[[{"header":{"parameterUnit":"m.s-1","parameterCategory":1,"la1":30.6,"la2":29.2853,"lo1":-89.7004,"lo2":-87.6739,"dy":0.0162,"dx":0.0183,"nx":112,"ny":82,"refTime":"2024-06-20T06:00:00:Z","depth":0,"parameterNumber":2,"parameterNumberName":"U-component_of_WINDS"},"data":[0.0,0.0,0.0,0.0,0.0,0.0,0.0,0.0,0.0,0.0,0.0,0.0,0.0,0.0,0.0,0.0,0.0,0.0,0.0,0.0,0.0,0.0,0.0,0.0,0.0,0.0,0.0,0.0,0.0,0.0,0.0,0.0,0.0,0.0,0.0,0.0,0.0,0.0,0.0,0.0,0.0,0.0,0.0,0.0,0.0,0.0,0.0,0.0,0.0,0.0,0.0,0.0,0.0,0.0,0.0,0.0,0.0,0.0,0.0,0.0,0.0,0.0,0.0,0.0,0.0,0.0,0.0,0.0,0.0,0.0,0.0,0.0,0.0,0.0,0.0,0.0,0.0,0.0,0.0,0.0,0.0,0.0,0.0,0.0,0.0,0.0,0.0,0.0,0.0,0.0,0.0,0.0,0.0,0.0,0.0,0.0,0.0,0.0,0.0,0.0,0.0,0.0,0.0,0.0,0.0,0.0,0.0,0.0,0.0,0.0,0.0,0.0,0.0,0.0,0.0,0.0,0.0,0.0,0.0,0.0,0.0,0.0,0.0,0.0,0.0,0.0,0.0,0.0,0.0,0.0,0.0,0.0,0.0,0.0,0.0,0.0,0.0,0.0,0.0,0.0,0.0,0.0,0.0,0.0,0.0,0.0,0.0,0.0,0.0,0.0,0.0,0.0,0.0,0.0,0.0,0.0,0.0,0.0,0.0,0.0,0.0,0.0,0.0,0.0,0.0,0.0,0.0,0.0,0.0,0.0,0.0,0.0,0.0,0.0,0.0,0.0,0.0,0.0,0.0,0.0,0.0,0.0,0.0,0.0,0.0,0.0,0.0,0.0,0.0,0.0,0.0,0.0,0.0,0.0,0.0,0.0,0.0,0.0,0.0,0.0,0.0,0.0,0.0,0.0,0.0,0.0,0.0,0.0,0.0,0.0,0.0,0.0,0.0,0.0,0.0,0.0,0.0,0.0,0.0,0.0,0.0,0.0,0.0,0.0,0.0,0.0,0.0,0.0,0.0,0.0,0.0,0.0,0.0,0.0,0.0,0.0,0.0,0.0,0.0,0.0,0.0,0.0,0.0,0.0,0.0,0.0,0.0,0.0,0.0,0.0,0.0,0.0,0.0,0.0,0.0,0.0,0.0,0.0,0.0,0.0,0.0,0.0,0.0,0.0,0.0,0.0,0.0,0.0,0.0,0.0,0.0,0.0,0.0,0.0,0.0,0.0,0.0,0.0,0.0,0.0,0.0,0.0,0.0,0.0,0.0,0.0,0.0,0.0,0.0,0.0,0.0,0.0,0.0,0.0,0.0,0.0,0.0,0.0,0.0,0.0,0.0,0.0,0.0,0.0,0.0,0.0,0.0,0.0,0.0,0.0,0.0,0.0,0.0,0.0,0.0,0.0,0.0,0.0,0.0,0.0,-0.0304,-0.104,-0.1091,0.0,0.0,0.0,0.0,0.0,0.0,0.0,0.0,0.0,0.0,0.0,0.0,0.0,0.0,0.0,0.0,0.0,0.0,0.0,0.0,0.0,0.0,0.0,0.0,0.0,0.0,0.0,0.0,0.0,0.0,0.0,0.0,0.0,0.0,0.0,0.0,0.0,0.0,0.0,0.0,0.0,0.0,0.0,0.0,0.0,0.0,0.0,0.0,0.0,0.0,0.0,0.0,0.0,0.0,0.0,0.0,0.0,0.0,0.0,0.0,0.0,0.0,0.0,0.0,0.0,0.0,0.0,0.0,0.0,0.0,0.0,0.0,0.0,0.0,0.0,0.0,0.0,0.0,0.0,0.0,0.0,0.0,0.0,0.0,0.0,0.0,0.0,0.0,0.0,0.0,0.0,0.0,0.0,0.0,0.0,0.0,0.0,0.0,0.0,0.0,0.0,0.0,0.0,0.0,0.0,0.0,0.0,0.0,-0.0279,-0.0907,-0.1944,-0.2592,0.0,0.0,0.0,0.0,0.0,0.0,0.0,0.0,0.0,0.0,0.0,0.0,0.0,0.0,0.0,0.0,0.0,0.0,0.0,0.0,0.0,0.0,0.0,0.0,0.0,0.0,0.0,0.0,0.0,0.0,0.0,0.0,0.0,0.0,0.0,0.0,0.0,0.0,0.0,0.0,0.0,0.0,0.0,0.0,0.0,0.0,0.0,0.0,0.0,0.0,0.0,0.0,0.0,0.0,0.0,0.0,0.0,0.0,0.0,0.0,0.0,0.0,0.0,0.0,0.0,0.0,0.0,0.0,0.0,0.0,0.0,0.0,0.0,0.0,0.0,0.0,0.0,0.0,0.0,0.0,0.0,0.0,0.0,0.0,0.0,0.0,0.0,0.0,0.0,0.0,0.0,0.0,0.0,0.0,0.0,0.0,0.0,0.0,0.0,0.0,0.0,0.0,0.0,0.0,0.0,0.0,0.0,0.0,-0.1132,-0.1898,-0.1995,-0.4337,0.0,0.0,0.0,0.0,0.0,0.0,0.0,0.0,0.0,0.0,0.0,0.0,0.0,0.0,0.0,0.0,0.0,0.0,0.0,0.0,0.0,0.0,0.0,0.0,0.0,0.0,0.0,0.0,0.0,0.0,0.0,0.0,0.0,0.0,0.0,0.0,0.0,0.0,0.0,0.0,0.0,0.0,0.0,0.0,0.0,0.0,0.0,0.0,0.0,0.0,0.0,0.0,0.0,0.0,0.0,0.0,0.0,0.0,0.0,0.0,0.0,0.0,0.0,0.0,0.0,0.0,0.0,0.0,0.0,0.0,0.0,0.0,0.0,0.0,0.0,0.0,0.0,0.0,0.0,0.0,0.0,0.0,0.0,0.0,0.0,0.0,0.0,0.0,0.0,0.0,0.0,0.0,0.0,0.0,0.0,0.0,0.0,0.0,0.0,0.0,0.0,0.0,-0.1428,-0.1555,-0.1552,-0.1567,-0.1572,-0.1566,-0.1065,-0.1479,-0.3138,0.0,0.0,0.0,0.0,0.0,0.0,0.0,0.0,0.0,0.0,0.0,0.0,0.0,0.0,0.0,0.0,0.0,0.0,0.0,0.0,0.0,0.0,0.0,0.0,0.0,0.0,0.0,0.0,0.0,0.0,0.0,0.0,0.0,0.0,0.0,0.0,0.0,0.0,0.0,0.0,0.0,0.0,0.0,0.0,0.0,0.0,0.0,0.0,0.0,0.0,0.0,0.0,0.0,0.0,0.0,0.0,0.0,0.0,0.0,0.0,0.0,0.0,0.0,0.0,0.0,0.0,0.0,0.0,0.0,0.0,0.0,0.0,0.0,0.0,0.0,0.0,0.0,0.0,0.0,0.0,0.0,0.0,0.0,0.0,0.0,0.0,0.0,0.0,0.0,0.0,0.0,0.0,0.0,0.0,0.0,0.0,0.0,0.0,0.0,0.0,0.0,0.0,-0.2678,-0.3079,-0.3254,-0.3272,-0.3274,-0.3254,-0.3212,-0.254,-0.2863,-0.4623,0.0,0.0,0.0,0.0,0.0,0.0,0.0,0.0,0.0,0.0,0.0,0.0,0.0,0.0,0.0,0.0,0.0,0.0,0.0,0.0,0.0,0.0,0.0,0.0,0.0,0.0,0.0,0.0,0.0,0.0,0.0,0.0,0.0,0.0,0.0,0.0,0.0,0.0,0.0,0.0,0.0,0.0,0.0,0.0,0.0,0.0,0.0,0.0,0.0,0.0,0.0,0.0,0.0,0.0,0.0,0.0,0.0,0.0,0.0,0.0,0.0,0.0,0.0,0.0,0.0,0.0,0.0,0.0,0.0,0.0,0.0,0.0,0.0,0.0,0.0,0.0,0.0,0.0,0.0,0.0,0.0,0.0,0.0,0.0,0.0,0.0,0.0,0.0,0.0,0.0,0.0,0.0,0.0,0.0,0.0,0.0,0.0,0.0,0.0,0.0,0.0,0.0,-0.4526,-0.4762,-0.4919,-0.4934,-0.4924,-0.4861,-0.4736,-0.592,-0.6575,0.0,0.0,0.0,0.0,0.0,0.0,0.0,0.0,0.0,0.0,0.0,0.0,0.0,0.0,0.0,0.0,0.0,0.0,0.0,0.0,0.0,0.0,0.0,0.0,0.0,0.0,0.0,0.0,0.0,0.0,0.0,0.0,0.0,0.0,0.0,0.0,0.0,0.0,0.0,0.0,0.0,0.0,0.0,0.0,0.0,0.0,0.0,0.0,0.0,0.0,0.0,0.0,0.0,0.0,0.0,0.0,0.0,0.0,0.0,0.0,0.0,0.0,0.0,0.0,0.0,0.0,0.0,0.0,0.0,0.0,0.0,0.0,0.0,0.0,0.0,0.0,0.0,0.0,0.0,0.0,0.0,0.0,0.0,0.0,0.0,0.0,0.0,0.0,0.0,0.0,0.0,0.0,0.0,0.0,0.0,0.0,0.0,0.0,0.0,0.0,0.0,0.0,0.0,-0.5778,-0.6348,-0.6677,-0.6675,-0.6675,-0.6639,-0.6607,-0.58,-0.5629,-0.6383,0.0,0.0,0.0,0.0,0.0,0.0,0.0,0.0,0.0,0.0,0.0,0.0,0.0,0.0,0.0,0.0,0.0,0.0,0.0,0.0,0.0,0.0,0.0,0.0,0.0,0.0,0.0,0.0,0.0,0.0,0.0,0.0,0.0,0.0,0.0,0.0,0.0,0.0,0.0,0.0,0.0,0.0,0.0,0.0,0.0,0.0,0.0,0.0,0.0,0.0,0.0,0.0,0.0,0.0,0.0,0.0,0.0,0.0,0.0,0.0,0.0,0.0,0.0,0.0,0.0,0.0,0.0,0.0,0.0,0.0,0.0,0.0,0.0,0.0,0.0,0.0,0.0,0.0,0.0,0.0,0.0,0.0,0.0,0.0,0.0,0.0,0.0,0.0,0.0,0.0,0.0,0.0,0.0,0.0,0.0,0.0,0.0,0.0,0.0,0.0,0.0,0.0,-0.746,-0.8031,-0.8391,-0.8443,-0.8399,-0.8336,-0.8289,-0.7282,-0.6863,-0.7344,0.0,0.0,0.0,0.0,0.0,0.0,0.0,0.0,0.0,0.0,0.0,0.0,0.0,0.0,0.0,0.0,0.0,0.0,0.0,0.0,0.0,0.0,0.0,0.0,0.0,0.0,0.0,0.0,0.0,0.0,0.0,0.0,0.0,0.0,0.0,0.0,0.0,0.0,0.0,0.0,0.0,0.0,0.0,0.0,0.0,0.0,0.0,0.0,0.0,0.0,0.0,0.0,0.0,0.0,0.0,0.0,0.0,0.0,0.0,0.0,0.0,0.0,0.0,0.0,0.0,0.0,0.0,0.0,0.0,0.0,0.0,0.0,0.0,0.0,0.0,0.0,0.0,0.0,0.0,0.0,0.0,0.0,0.0,0.0,0.0,0.0,0.0,0.0,0.0,0.0,0.0,0.0,0.0,0.0,0.0,0.0,0.0,0.0,0.0,0.0,0.0,0.0,-0.9186,-0.9578,-0.9886,-1.0028,-0.99,-0.9758,-0.9659,-0.9625,-0.9367,-0.8791,0.0,0.0,0.0,0.0,0.0,0.0,0.0,0.0,0.0,0.0,0.0,0.0,0.0,0.0,0.0,0.0,0.0,0.0,0.0,0.0,0.0,0.0,0.0,0.0,0.0,0.0,0.0,0.0,0.0,0.0,0.0,0.0,0.0,0.0,0.0,0.0,0.0,0.0,0.0,0.0,0.0,0.0,0.0,0.0,0.0,0.0,0.0,0.0,0.0,0.0,0.0,0.0,0.0,0.0,0.0,0.0,0.0,0.0,0.0,0.0,-1.31,-1.2086,0.0,0.0,0.0,0.0,0.0,0.0,0.0,0.0,0.0,0.0,0.0,0.0,0.0,0.0,0.0,0.0,0.0,0.0,0.0,0.0,0.0,0.0,0.0,0.0,0.0,0.0,0.0,0.0,0.0,0.0,0.0,0.0,0.0,0.0,0.0,0.0,0.0,0.0,0.0,0.0,-0.9342,-0.9859,-1.0195,-1.0229,-1.0062,-0.9954,-0.9927,-0.971,-0.9449,-0.9111,-0.8838,0.0,0.0,0.0,0.0,0.0,0.0,0.0,0.0,0.0,0.0,0.0,0.0,0.0,0.0,0.0,0.0,0.0,0.0,0.0,0.0,0.0,0.0,0.0,0.0,0.0,0.0,0.0,0.0,0.0,0.0,0.0,0.0,0.0,0.0,0.0,0.0,0.0,0.0,0.0,0.0,0.0,0.0,0.0,0.0,0.0,0.0,0.0,0.0,0.0,0.0,0.0,0.0,0.0,0.0,0.0,0.0,0.0,0.0,0.0,-1.6646,-1.4937,0.0,0.0,0.0,0.0,0.0,0.0,0.0,0.0,0.0,0.0,0.0,0.0,0.0,0.0,0.0,0.0,0.0,0.0,0.0,0.0,0.0,0.0,0.0,0.0,0.0,0.0,0.0,0.0,0.0,0.0,0.0,0.0,0.0,0.0,0.0,0.0,0.0,0.0,0.0,0.0,-0.9564,-0.9992,-1.0304,-1.0378,-1.0249,-1.013,-1.013,-1.0019,-0.9774,-0.9424,-0.9225,0.0,0.0,0.0,0.0,0.0,0.0,0.0,0.0,0.0,0.0,0.0,0.0,0.0,0.0,0.0,0.0,0.0,0.0,0.0,0.0,0.0,0.0,0.0,0.0,0.0,0.0,0.0,0.0,0.0,0.0,0.0,0.0,0.0,0.0,0.0,0.0,0.0,0.0,0.0,0.0,0.0,0.0,0.0,0.0,0.0,0.0,0.0,0.0,0.0,0.0,0.0,0.0,0.0,-2.3188,-2.3201,-2.3201,-2.3201,-2.3201,-2.3078,-2.0735,-1.864,-1.6672,-1.4739,0.0,0.0,0.0,0.0,0.0,0.0,0.0,0.0,0.0,0.0,0.0,0.0,0.0,0.0,0.0,0.0,0.0,0.0,0.0,0.0,0.0,0.0,-1.0331,-1.0049,-1.0215,-1.0215,-0.9594,0.0,0.0,0.0,0.0,0.0,0.0,0.0,0.0,0.0,0.0,0.0,-0.9863,-1.0168,-1.0399,-1.0521,-1.0405,-1.0317,-1.0317,-1.0297,-1.0114,-0.9683,-0.9659,-0.9401,0.0,0.0,0.0,0.0,0.0,0.0,0.0,0.0,0.0,0.0,0.0,0.0,0.0,0.0,0.0,0.0,0.0,0.0,0.0,0.0,0.0,0.0,0.0,0.0,0.0,0.0,0.0,0.0,0.0,0.0,0.0,0.0,-1.0853,-1.1063,0.0,0.0,0.0,0.0,0.0,0.0,0.0,0.0,0.0,0.0,0.0,0.0,0.0,-2.1648,-2.3594,-2.3875,-2.4022,-2.4035,-2.4239,-2.4359,-2.4359,-2.4359,-2.4359,-2.4359,-2.3981,0.0,-1.9599,-1.7398,0.0,0.0,0.0,0.0,0.0,0.0,0.0,0.0,0.0,0.0,0.0,0.0,0.0,0.0,0.0,0.0,0.0,0.0,0.0,0.0,0.0,0.0,-1.0819,-1.0779,-1.0799,-1.0765,-1.0561,-1.0019,-0.9564,-0.9503,-0.9322,-0.9138,0.0,0.0,0.0,0.0,0.0,0.0,-1.0181,-1.048,-1.0637,-1.0657,-1.0555,-1.0466,-1.0466,-1.0383,-1.0195,-0.9974,-0.9839,-0.9646,-0.9306,-0.9,0.0,0.0,0.0,0.0,0.0,0.0,0.0,0.0,0.0,0.0,0.0,0.0,0.0,0.0,0.0,0.0,0.0,0.0,0.0,0.0,0.0,0.0,0.0,0.0,0.0,0.0,0.0,0.0,0.0,-1.1016,-1.1313,-1.1409,-1.1491,-1.2144,0.0,0.0,0.0,0.0,0.0,0.0,0.0,0.0,0.0,-1.9016,-1.9296,-2.0585,-2.3065,-2.3337,-2.4138,-2.5438,-2.5558,-2.5625,-2.5625,-2.5625,-2.4906,-2.3634,-2.3562,-2.2065,-1.957,-1.8201,-1.7072,-1.5981,0.0,0.0,0.0,0.0,-1.1679,-1.2346,-1.1433,-1.1084,-1.0832,-0.9521,0.0,0.0,0.0,0.0,0.0,0.0,0.0,-0.7403,-0.7593,-0.7708,-0.7814,-0.7814,-0.7814,-0.78,-0.7718,-0.833,-0.9062,-0.9691,-0.9815,-0.9737,-0.9485,-0.9422,0.0,0.0,0.0,-1.0154,-1.0371,-1.0588,-1.0684,-1.0684,-1.0663,-1.0622,-1.0622,-1.0561,-1.046,-1.0278,-1.0236,-1.0066,-0.9737,-0.9521,-0.9252,0.0,0.0,0.0,0.0,0.0,0.0,0.0,0.0,0.0,0.0,0.0,0.0,0.0,0.0,0.0,0.0,0.0,0.0,0.0,0.0,0.0,0.0,0.0,0.0,0.0,0.0,0.0,0.0,-1.1599,-1.1789,-1.1789,-1.1986,-1.2547,0.0,0.0,0.0,0.0,0.0,0.0,-1.6418,-1.6582,-1.7003,-1.7777,-1.8072,-1.9414,-2.1905,-2.2135,-2.3126,-2.4854,-2.4854,-2.4854,-2.4854,-2.4854,-2.3904,-2.2214,-2.2115,-2.1082,-1.9374,-1.8565,-1.7816,-1.6824,-1.3665,-1.2839,-1.3228,-1.1465,-1.1581,-1.2406,-1.0671,-1.0064,-0.9771,-0.7992,-0.74,-0.6984,-0.5217,0.0,0.0,0.0,0.0,-0.5206,-0.5345,-0.5423,-0.5436,-0.5436,-0.5436,-0.5436,-0.5436,-0.6573,-0.7971,-0.9295,-1.0038,-1.0331,-0.9958,-0.9951,0.0,-0.9992,-1.0188,-1.0385,-1.0534,-1.0649,-1.0684,-1.0684,-1.0684,-1.0684,-1.0684,-1.0684,-1.067,-1.0555,-1.0548,-1.0432,-1.0143,-0.9988,-0.9741,-0.9362,0.0,0.0,0.0,0.0,0.0,0.0,0.0,0.0,0.0,0.0,0.0,0.0,0.0,0.0,0.0,0.0,0.0,0.0,0.0,0.0,0.0,0.0,0.0,0.0,0.0,0.0,0.0,0.0,0.0,-1.2257,-1.2676,0.0,0.0,0.0,0.0,-1.303,-1.4891,-1.528,-1.3531,-1.3659,-1.4774,-1.6875,-1.7103,-1.8208,-2.0388,-2.044,-2.0482,-2.0607,-2.0607,-2.0607,-2.0607,-2.0607,-2.0523,-2.044,-2.043,-2.0268,-1.9996,-1.8984,-1.7387,-1.554,-1.4951,-1.3573,-1.1643,-0.9463,-0.8801,-0.8668,-0.6614,-0.5914,-0.5887,-0.5907,-0.5756,-0.5473,-0.5153,-0.5074,0.0,0.0,-0.524,-0.5396,-0.5406,-0.5494,-0.5583,-0.5583,-0.5583,-0.5583,-0.5583,-0.5561,-0.6098,-0.802,-0.9729,-1.0826,-1.0657,0.0,-1.046,-1.046,-1.0473,-1.0534,-1.0657,-1.0717,-1.0684,-1.0684,-1.0684,-1.0684,-1.0684,-1.0684,-1.0684,-1.0677,-1.0677,-1.0636,-1.0473,-1.0363,-1.0107,-0.9765,-0.6633,0.0,0.0,0.0,0.0,0.0,0.0,0.0,0.0,0.0,0.0,0.0,0.0,0.0,0.0,0.0,0.0,0.0,0.0,0.0,0.0,0.0,0.0,0.0,0.0,0.0,0.0,0.0,0.0,-0.8437,-0.8649,0.0,-0.8468,-0.913,-0.9953,-1.0887,-1.1903,-1.2868,-1.3849,-1.4183,-1.465,-1.5477,-1.5535,-1.6659,-1.8937,-1.8846,-1.9622,-2.1185,-2.0991,-2.0931,-2.0985,-2.0921,-2.009,-1.8664,-1.8547,-1.7648,-1.6065,-1.4081,-1.3537,-1.3793,-1.2148,-1.0092,-0.7988,-0.7313,-0.7042,-0.6869,-0.627,-0.606,-0.5826,-0.451,-0.3081,-0.1913,-0.1824,-0.1808,-0.1833,-0.1804,-0.1884,-0.1931,-0.1909,-0.1955,-0.1999,-0.1999,-0.2,-0.2002,-0.2002,-0.2951,-0.4004,-0.47,-0.7221,-0.9554,-1.0651,-1.09,-1.0927,-1.0765,-1.0867,-1.0975,-1.1029,-1.1002,-1.1002,-1.1002,-1.0921,-1.0833,-1.0833,-1.0745,-1.0684,-1.0684,-1.0684,-1.0697,-1.0643,-1.0588,-1.0426,-1.012,-0.8011,-0.6906,0.0,0.0,0.0,0.0,0.0,0.0,0.0,0.0,0.0,0.0,0.0,0.0,0.0,0.0,0.0,0.0,0.0,0.0,0.0,0.0,0.0,0.0,0.0,0.0,0.0,-0.7047,-0.6385,-0.6346,-0.6565,-0.6623,-0.6436,-0.6509,-0.7261,-0.8878,-0.9215,-1.0094,-1.1787,-1.2033,-1.2541,-1.3373,-1.3419,-1.4584,-1.6982,-1.691,-1.771,-1.9339,-1.9124,-1.907,-1.9151,-1.899,-1.8111,-1.6668,-1.6502,-1.5097,-1.2736,-1.1079,-1.0155,-0.973,-0.8888,-0.7557,-0.6048,-0.5448,-0.5134,-0.495,-0.4375,-0.4161,-0.3931,-0.2527,-0.1112,0.0,0.0,0.0,0.0,0.0,0.0,0.0,0.0,0.0,0.0,0.0,0.0,0.0,0.0,-0.1022,-0.2116,-0.2757,-0.5378,-0.7799,-0.8919,-0.9208,-0.9261,-0.9069,-0.9153,-0.9238,-0.9238,-0.9238,-0.9238,-0.9238,-0.9131,-0.9052,-0.9052,-0.9514,-0.9835,-0.9878,-0.9831,-1.0066,-1.0725,-1.0139,-0.9991,-1.0432,-0.8265,-0.6848,-0.6302,0.0,0.0,0.0,0.0,0.0,0.0,0.0,0.0,0.0,0.0,0.0,0.0,0.0,0.0,0.0,0.0,0.0,0.0,0.0,0.0,0.0,0.0,0.0,-0.5857,-0.6241,-0.6286,-0.6289,-0.6659,-0.6772,-0.6502,-0.6747,-0.6921,-0.6967,-0.7013,-0.7045,-0.7107,-0.7113,-0.8237,-1.0715,-1.0809,-1.1968,-1.4447,-1.4486,-1.4486,-1.4493,-1.4571,-1.4518,-1.4473,-1.441,-1.4336,-1.424,-1.4144,-1.2664,-1.0379,-1.0326,-0.7556,-0.3587,-0.5599,-0.6264,-0.5835,-0.3775,-0.3004,-0.2714,-0.0682,0.0,0.0,0.0,0.0,0.0,0.0,0.0,0.0,0.0,0.0,0.0,0.0,0.0,0.0,0.0,0.0,0.0,0.0,0.0,-0.0568,-0.2458,-0.4339,-0.5609,-0.561,-0.561,-0.5569,-0.5429,-0.5416,0.0,-0.5416,-0.5419,-0.5419,-0.5419,-0.5419,-0.5416,-0.5416,-0.6966,-0.8015,-0.8194,-0.8028,-0.8762,-1.0636,-0.8907,-0.874,-1.0492,-0.7139,-0.5154,-0.4711,0.0,0.0,0.0,0.0,0.0,0.0,0.0,0.0,0.0,0.0,0.0,0.0,0.0,0.0,0.0,0.0,0.0,0.0,0.0,0.0,0.0,-0.3288,-0.3238,-0.3897,-0.2711,-0.1788,-0.177,-0.1894,-0.1917,-0.1827,-0.1931,-0.2691,-0.443,-0.465,-0.5485,-0.7214,-0.7406,-0.7773,-0.8499,-0.8499,-0.8824,-0.9567,-0.9452,-0.9452,-0.9563,-1.1195,-1.1073,-0.9449,-1.1136,-1.0861,-0.9119,-0.9075,-0.8701,-0.7907,-0.6198,-0.4744,-0.3589,-0.4087,-0.3229,-0.1644,-0.1055,-0.0835,-0.0781,-0.0203,0.0,0.0,0.0,0.0,0.0,0.0,0.0,0.0,0.0,0.0,0.0,0.0,0.0,0.0,0.0,0.0,0.0,0.0,0.0,-0.0156,-0.0699,-0.1231,-0.2466,-0.527,-0.576,-0.5743,-0.5686,-0.5683,-0.5683,-0.5683,-0.569,-0.5683,-0.5683,-0.5603,-0.5538,-0.5538,-0.5884,-0.6133,-0.6191,-0.6145,-0.6365,-0.6897,-0.6403,-0.636,-0.6838,-0.566,-0.4968,0.0,0.0,0.0,0.0,0.0,0.0,0.0,0.0,0.0,0.0,0.0,0.0,0.0,0.0,0.0,0.0,0.0,0.0,0.0,0.0,0.0,0.0,-0.1749,-0.179,-0.1795,-0.0775,0.0,0.0,0.0,0.0,0.0,0.1013,0.111,-0.0242,0.068,0.0684,-0.0688,-0.0791,-0.1885,-0.4172,-0.4271,-0.5306,-0.7567,-0.7541,-0.7528,-0.7616,-0.89,-0.879,-0.754,-0.8844,-0.8625,-0.7227,-0.7125,-0.6562,-0.5535,-0.4171,-0.2984,-0.2084,0.0,0.0,0.0,0.0,0.0,0.0,0.0,0.0,0.0,0.0,0.0,0.0,0.0,0.0,0.0,0.0,0.0,0.0,0.0,0.0,0.0,0.0,0.0,0.0,0.0,0.0,0.0,0.0,0.0,0.0,-0.2994,-0.3362,-0.3362,-0.3362,-0.336,-0.3362,-0.3362,-0.3381,-0.3357,-0.3357,-0.33,-0.325,-0.325,-0.3884,0.0,0.0,0.0,-0.4251,-0.4261,-0.4998,0.0,0.0,0.0,0.0,0.0,0.0,0.0,0.0,-0.3603,-0.3126,0.0,0.0,0.0,0.0,0.0,0.0,0.0,0.0,0.0,0.0,0.0,0.0,0.0,0.0,0.0,0.0,0.0,0.0,0.0,0.0286,0.0336,0.0048,0.0,0.0148,0.0444,0.261,0.4196,0.4632,0.6923,0.8375,0.851,0.8517,0.0,0.0,0.0,-0.0963,-0.574,-0.5792,-0.5767,-0.5767,-0.6059,-0.608,-0.5825,-0.5958,-0.59,-0.5692,-0.5494,-0.4228,-0.2324,-0.2364,-0.113,0.0761,0.0219,0.0,0.0,0.0,0.0,0.0,0.0,0.0,0.0,0.0,0.0,0.0,0.0,0.0,0.0,0.0,0.0,0.0,0.0,0.0,0.0,0.0,0.0,0.0,0.0,0.0,0.0,0.0,0.0,0.0,0.0,0.0,0.0,0.0,0.0,0.0,0.0,0.0,0.0,0.0,0.0,0.0,0.0,-0.1464,-0.2431,-0.2572,-0.2443,-0.2397,-0.2403,-0.3942,-0.4798,-0.4792,-0.3228,-0.2397,-0.2409,-0.0783,0.0,-0.0038,-0.1521,-0.1417,0.0,0.0,0.0,0.0,0.0,0.0,0.0,0.0,0.0,0.0,0.0,0.0,0.0,0.0,0.0,0.0,0.0,0.0,0.0,0.1974,0.2535,0.0247,0.0,0.0909,0.3172,0.3866,0.513,0.7476,0.8147,0.8464,0.8496,0.8496,0.803,0.6946,0.6946,0.6424,0.5384,0.5375,0.537,0.5368,0.3286,0.0,0.5139,0.31,0.3155,0.4841,0.488,0.5108,0.543,0.5298,0.5456,0.5357,0.1503,0.0,0.0,0.0,0.0,0.0,0.0,0.0,0.0,0.0,0.0,0.0,0.0,0.0,0.0,0.0,0.0,0.0,0.0,0.0,0.0,0.0,0.0,0.0,0.0,0.0,0.0,0.0,0.0,0.0,0.0,0.0,0.0,0.0,0.0,0.0,0.0,0.0,0.0,0.0,0.0,0.0,0.0,-0.0308,-0.0536,-0.0576,-0.0531,-0.0523,-0.0517,-0.0856,-0.1043,-0.1033,-0.0708,-0.0523,-0.052,-0.019,0.0,0.0,-0.0344,-0.0306,0.0,0.0,0.0,0.0,0.0,0.0,0.0,0.0,0.0,0.0,0.0,0.0,0.0,0.0,0.0,0.0,0.1166,0.2117,0.2098,0.4552,0.5286,0.2421,0.3352,0.4812,0.6195,0.7562,0.8958,1.0488,1.1846,1.2652,1.2761,1.2766,1.2085,1.067,1.0618,0.994,0.8532,0.8494,0.8525,0.8473,0.7196,0.7251,0.835,0.7018,0.699,0.8064,0.7862,0.7751,0.7668,0.7562,0.7408,0.6886,0.3319,0.1876,0.1644,0.0443,0.0,0.0,0.0,0.0,0.0,0.0,0.0,0.0,0.0,0.0,0.0,0.0,0.0,0.0,0.0,0.0,0.0,0.0,0.0,0.0,0.0,0.0,0.0,0.0,0.0,0.0,0.0,0.0,0.0,0.0,0.0,0.0,0.0,0.0,0.0,0.0,0.0,0.0,0.0,0.0,0.0,0.0,0.0,0.0,0.0,0.0,0.0,0.0,0.0,0.0,0.0,0.0,0.0,0.0,0.0,0.0,0.0,0.0,0.0,0.0,0.0,0.0,0.0,0.0,0.0,0.0,0.0,0.0,0.0,0.0,0.0198,0.075,0.2756,0.444,0.4976,0.7557,0.8573,0.627,0.7478,0.8746,0.9336,1.1371,1.2922,1.3535,1.561,1.6931,1.706,1.7066,1.599,1.3687,1.3613,1.2488,1.0204,1.0171,1.0125,1.0174,1.0151,1.011,1.0085,0.9974,0.9878,0.9782,0.948,0.9307,0.9192,0.8579,0.8232,0.7782,0.4876,0.3715,0.3323,0.0898,0.0,0.0,0.0,0.0,0.0,0.0,0.0,0.0,0.0,0.0,0.0,0.0,0.0,0.0,0.0,0.0,0.0,0.0,0.0,0.0,0.0,0.0,0.0,0.0,0.0,0.0,0.0,0.0,0.0,0.0,0.0,0.0,0.0,0.0,0.0,0.0,0.0,0.0,0.0,0.0,0.0,0.0,0.0,0.0,0.0,0.0,0.0,0.0,0.0,0.0,0.0,0.0,0.0,0.0,0.0,0.0,0.0,0.0,0.0,0.0,0.0,0.0,0.0,0.0,0.0,0.0,0.0,0.0,0.0,0.0,0.0815,0.3308,0.4127,0.5334,0.7861,1.0799,1.2579,1.2378,1.0198,0.9714,1.2433,1.2933,1.418,1.6687,1.713,1.7351,1.7372,1.7372,1.721,1.6881,1.6749,1.6571,1.6252,1.6117,1.6053,1.6053,1.6033,1.5956,1.5776,1.5616,1.5461,1.5204,1.486,1.4578,1.4181,1.1924,1.0804,1.0064,0.5432,0.3618,0.331,0.09,0.0,0.0,0.0,0.0,0.0,0.0,0.0,0.0,0.0,0.0,0.0,0.0,0.0,0.0,0.0,0.0,0.0,0.0,0.0,0.0,0.0,0.0,0.0,0.0,0.0,0.0,0.0,0.0,0.0,0.0,0.0,0.0,0.0,0.0,0.0,0.0,0.0,0.0,0.0,0.0,0.0,0.0,0.0,0.0,0.0,0.0,0.0,0.0,0.0,0.0,0.0,0.0,0.0,0.0,0.0,0.0,0.0,0.0,0.0,0.0,0.0,0.0,0.0,0.0,0.0,0.0,0.1308,0.1939,0.0308,0.2762,0.4958,0.4561,0.7361,0.9993,1.1267,1.3863,1.5716,1.5851,1.4611,1.4284,1.5615,1.5742,1.62,1.7318,1.7446,1.75,1.75,1.75,1.75,1.75,1.7317,1.7195,1.7195,1.7053,1.6978,1.6978,1.6978,1.6944,1.6876,1.6727,1.6442,1.6069,1.5859,1.5594,1.512,1.2581,1.1345,1.0587,0.5626,0.3656,0.33,0.0909,0.0,0.0,0.0,0.0,0.0,0.0,0.0,0.0,0.0,0.0,0.0,0.0,0.0,0.0,0.0,0.0,0.0,0.0,0.0,0.0,0.0,0.1085,0.208,0.2114,0.3187,0.4119,0.4125,0.3017,0.2075,0.2094,0.0906,0.0,0.0,0.0,0.0,0.0,0.0,0.0,0.0,0.0,0.0,0.0,0.0,0.0,0.0,0.0,0.0,0.0,0.0,0.0,0.0,0.0,0.0,0.0,0.0,0.0,0.0,0.0,0.0,0.0,0.0,0.0,0.0,0.0,0.02,0.1017,0.2787,0.3817,0.264,0.5881,0.8384,0.7259,1.0652,1.3761,1.4586,1.6456,1.7758,1.7771,1.7683,1.7649,1.7717,1.7683,1.7684,1.7609,1.7703,1.7771,1.7771,1.7771,1.7751,1.7717,1.7514,1.7338,1.7256,1.7114,1.7019,1.6978,1.6978,1.6978,1.6978,1.677,1.6479,1.6137,1.6029,1.5811,1.5334,1.2721,1.153,1.0882,0.6536,0.4812,0.4491,0.2759,0.1639,0.1081,0.1801,0.2022,0.1837,0.1211,0.0987,0.0851,0.0222,0.0,0.0,0.0,0.0,0.0,0.0,0.0,0.0179,0.0844,0.0975,0.115,0.1798,0.3323,0.4583,0.457,0.5955,0.7118,0.7097,0.5669,0.4577,0.4584,0.252,0.0744,0.0082,0.0,0.0,0.0,0.0,0.0,0.0,0.0,0.0,0.0,0.0,0.0,0.0,0.0,0.0,0.0,0.0,0.0338,0.0988,0.0988,0.1338,0.1961,0.1956,0.1959,0.0,0.0,0.0,0.0,0.0,0.0,0.0,0.0,0.0771,0.3498,0.4117,0.5058,0.7937,0.8708,0.9817,1.2648,1.3654,1.4977,1.7587,1.8265,1.8443,1.8265,1.8301,1.8233,1.8091,1.7948,1.7914,1.8057,1.8213,1.8301,1.8301,1.8301,1.8233,1.8091,1.7935,1.7704,1.7419,1.7263,1.7114,1.6978,1.6978,1.6978,1.6978,1.677,1.6533,1.63,1.63,1.6123,1.5678,1.2931,1.1694,1.1284,0.8569,0.7497,0.7476,0.7383,0.5726,0.3861,0.6308,0.7031,0.6522,0.4251,0.349,0.3045,0.0718,0.0,0.0,0.0,0.0,0.0,0.0,0.0,0.0583,0.2954,0.3489,0.4114,0.6385,0.6961,0.6986,0.7,0.703,0.7094,0.7108,0.7051,0.7008,0.7004,0.5016,0.2664,0.0295,0.0,0.0,0.0,0.0,0.0,0.0,0.0,0.0,0.0,0.0,0.0,0.0,0.0,0.0,0.0,0.0,0.1171,0.3509,0.3509,0.4657,0.6899,0.6869,0.6869,0.0,0.0,0.0,0.0,0.1405,0.2768,0.2762,0.4242,0.5887,0.6852,0.852,0.9553,0.8734,1.1853,1.4319,1.3633,1.542,1.7243,1.8255,1.8552,1.8552,1.8213,1.8165,1.8111,1.8004,1.7989,1.8036,1.8091,1.8233,1.8355,1.8407,1.8375,1.8301,1.8247,1.7894,1.767,1.7521,1.7317,1.7168,1.7121,1.7026,1.6978,1.6978,1.677,1.6642,1.654,1.6395,1.6191,1.5839,1.3115,1.1819,1.1352,0.873,0.767,0.7794,0.9488,0.9504,0.8546,0.7705,0.7335,0.6899,0.4393,0.358,0.3134,0.0718,0.0,0.0,0.0,0.0,0.0,0.0,0.0,0.0628,0.3045,0.358,0.4248,0.6611,0.8352,0.9499,0.9468,1.0794,1.1891,1.1895,1.0556,0.8947,0.7352,0.6435,0.4493,0.0516,0.1417,0.176,0.0172,0.1422,0.2374,0.2374,0.2374,0.3062,0.4611,0.3267,0.3089,0.4627,0.4729,0.4695,0.4695,0.4711,0.5128,0.5905,0.5905,0.6335,0.7109,0.7085,0.7098,0.11,0.0698,0.0237,0.1271,0.2875,0.4477,0.5514,0.7174,0.8755,0.9754,1.1343,1.2408,1.1657,1.4697,1.6865,1.5468,1.7079,1.8586,1.8687,1.8864,1.883,1.8389,1.8287,1.8165,1.7968,1.8036,1.8091,1.8091,1.8233,1.8332,1.8474,1.8443,1.8375,1.8321,1.8036,1.7751,1.7595,1.7399,1.7222,1.7114,1.7026,1.6978,1.6978,1.6876,1.675,1.6689,1.65,1.6354,1.6051,1.4248,1.3369,1.2969,1.1195,1.0453,1.0588,1.221,1.2746,1.2376,1.0702,0.9471,0.8243,0.5774,0.4365,0.3149,0.0719,0.0,0.0,0.0,0.0,0.0,0.0,0.0,0.0807,0.4072,0.4829,0.5722,0.8975,1.0895,1.1971,1.1971,1.3224,1.4299,1.4299,1.2996,1.1184,0.8762,0.914,0.794,0.3167,0.3899,0.4245,0.2689,0.3914,0.4836,0.4836,0.4836,0.5485,0.7006,0.5683,0.554,0.7051,0.7122,0.7092,0.7092,0.712,0.7509,0.8401,0.8401,0.8827,0.9691,0.9691,0.9691,0.3371,0.2289,0.1071,0.3762,0.4506,0.5328,0.8071,0.8845,0.9627,1.2184,1.2709,1.3579,1.6446,1.7073,1.7378,1.7968,1.8565,1.8972,1.8993,1.9237,1.9271,1.8875,1.864,1.8443,1.8124,1.8111,1.8111,1.8111,1.8233,1.8332,1.8474,1.8474,1.8464,1.8321,1.8265,1.8055,1.7609,1.7446,1.7277,1.6992,1.6985,1.6978,1.6978,1.6978,1.6904,1.6709,1.6702,1.654,1.632,1.6171,1.6058,1.5888,1.5554,1.5438,1.5425,1.5425,1.533,1.5187,1.4899,1.3112,1.0531,0.8156,0.5679,0.3132,0.0721,0.0,0.0,0.0,0.0,0.0,0.0,0.0,0.1166,0.5811,0.7012,0.8397,1.3091,1.421,1.4299,1.4299,1.4299,1.4299,1.4299,1.4299,1.3533,1.1211,1.2819,1.2551,0.7732,0.7191,0.7234,0.7104,0.7214,0.7304,0.7304,0.7304,0.7348,0.7479,0.7364,0.732,0.7454,0.7483,0.7479,0.7479,0.7467,0.8575,1.0895,1.0895,1.2059,1.4299,1.4299,1.4299,0.6942,0.6751,0.65,0.7235,0.9002,1.0751,1.1477,1.3189,1.4779,1.5352,1.5487,1.568,1.6337,1.6781,1.7195,1.7629,1.821,1.8728,1.8952,1.9237,1.9271,1.8875,1.883,1.8708,1.8301,1.8355,1.8375,1.8267,1.8301,1.8332,1.8474,1.8474,1.8464,1.8321,1.8213,1.8036,1.7812,1.7548,1.7324,1.7141,1.7032,1.6978,1.6978,1.6978,1.6958,1.6917,1.675,1.6655,1.6574,1.6469,1.6259,1.6015,1.594,1.5778,1.5533,1.5533,1.5506,1.5212,1.318,1.1903,1.0689,0.819,0.5665,0.3136,0.0727,0.0,0.0,0.0,0.0,0.0,0.0,0.0,0.0762,0.3759,0.5811,0.7951,1.0939,1.3046,1.4299,1.4299,1.4299,1.4299,1.4299,1.4299,1.4078,1.3489,1.3894,1.2567,0.7714,0.8682,0.9079,0.7309,0.8703,0.9782,0.9782,0.9782,1.0539,1.2367,1.0778,1.0587,1.2408,1.2481,1.2455,1.2455,1.2446,1.2774,1.3356,1.3356,1.3717,1.4299,1.4299,1.4299,0.9715,0.9287,0.8778,1.005,1.1513,1.2969,1.4088,1.5556,1.652,1.6286,1.6279,1.6286,1.6137,1.6476,1.6924,1.7372,1.8057,1.864,1.8952,1.9305,1.9413,1.9094,1.9081,1.8938,1.8552,1.8586,1.8552,1.8335,1.8321,1.8332,1.8474,1.8474,1.8498,1.8409,1.8335,1.8145,1.7915,1.7629,1.7412,1.7188,1.7114,1.7039,1.6978,1.6978,1.6978,1.6978,1.689,1.6757,1.6689,1.6608,1.6483,1.6266,1.6205,1.6042,1.5685,1.4489,1.3969,1.3479,1.0824,0.9048,0.7703,0.629,0.4117,0.1752,0.0414,0.0,0.0,0.0,0.0,0.0,0.0,0.0,0.059,0.3024,0.5464,0.7877,1.027,1.272,1.4496,1.4496,1.4496,1.4475,1.4407,1.4394,1.4373,1.4306,1.4299,1.3312,1.0629,1.1433,1.1743,1.0402,1.1477,1.2281,1.2281,1.2281,1.2863,1.421,1.3046,1.2907,1.4255,1.4299,1.4299,1.4299,1.4299,1.4299,1.4299,1.4299,1.4299,1.4299,1.4299,1.4299,1.2252,1.1265,1.0221,1.2652,1.3239,1.3824,1.5981,1.649,1.6347,1.599,1.601,1.6058,1.5928,1.6205,1.6653,1.7141,1.7914,1.8586,1.8972,1.9359,1.9556,1.9447,1.9305,1.9128,1.8909,1.8888,1.8742,1.8464,1.8443,1.8464,1.8474,1.8552,1.8552,1.8474,1.8454,1.8301,1.7956,1.7758,1.7534,1.7249,1.7236,1.7148,1.7012,1.7012,1.6998,1.6978,1.6978,1.6904,1.673,1.673,1.6642,1.6486,1.6415,1.6021,1.5325,1.2984,1.1699,1.0762,0.8208,0.5783,0.3808,0.3784,0.2069,0.0,0.0,0.0232,0.0508,0.0504,0.0735,0.0922,0.0589,0.0502,0.097,0.2696,0.5312,0.7964,0.9986,1.266,1.4694,1.4694,1.4694,1.4654,1.4563,1.4543,1.4502,1.438,1.436,1.4353,1.4333,1.4312,1.4299,1.4299,1.4299,1.4299,1.4299,1.4299,1.4299,1.4299,1.4299,1.4299,1.4299,1.4299,1.4299,1.4299,1.4299,1.4299,1.4299,1.4299,1.4299,1.4299,1.4299,1.4299,1.5757,1.573,1.5635,1.6138,1.6152,1.608,1.6404,1.6334,1.6096,1.5942,1.5922,1.5935,1.5908,1.6123,1.6571,1.727,1.7717,1.831,1.9061,1.9237,1.9325,1.9413,1.9353,1.9325,1.9149,1.9237,1.9237,1.9061,1.904,1.8905,1.8494,1.8654,1.8654,1.8531,1.8366,1.8267,1.8057,1.7901,1.7738,1.7514,1.7439,1.7304,1.7154,1.7154,1.7093,1.6978,1.6978,1.6965,1.6937,1.6937,1.6849,1.6655,1.6628,1.5128,1.2885,1.2429,1.0698,0.823,0.5583,0.4337,0.3949,0.3854,0.2092,0.0,0.0,0.149,0.314,0.3134,0.4652,0.5802,0.3677,0.3133,0.2725,0.1016,0.41,0.7505,0.7918,1.1552,1.4694,1.4694,1.4694,1.4687,1.466,1.4654,1.4647,1.462,1.462,1.4572,1.4489,1.4373,1.4299,1.4299,1.4299,1.4299,1.4299,1.4299,1.4299,1.4299,1.4299,1.4299,1.4299,1.4299,1.4299,1.4299,1.4299,1.4299,1.4299,1.4299,1.4299,1.4299,1.4299,1.4299,1.6768,1.6924,1.6978,1.6978,1.6802,1.652,1.6341,1.6062,1.5784,1.5602,1.5628,1.5716,1.5635,1.6001,1.6449,1.6883,1.727,1.7812,1.862,1.8871,1.9081,1.9393,1.9501,1.9481,1.9345,1.9305,1.9257,1.9094,1.9094,1.8993,1.8776,1.883,1.885,1.8776,1.705,1.6043,1.585,1.4075,1.3938,1.5307,1.5243,1.5898,1.7195,1.7195,1.7114,1.6978,1.6978,1.6978,1.6978,1.6978,1.6937,1.6713,1.5225,1.3724,1.2053,0.9161,0.7142,0.5552,0.2832,0.1899,0.212,0.3366,0.2977,0.1985,0.1985,0.3766,0.5756,0.5771,0.6665,0.7326,0.61,0.4788,0.3513,0.2284,0.4872,0.8332,1.0902,1.3383,1.5019,1.4984,1.497,1.495,1.4875,1.4862,1.4835,1.4708,1.4694,1.4667,1.4593,1.457,1.4468,1.4319,1.4299,1.4299,1.4299,1.4367,1.438,1.4306,1.4367,1.438,1.4306,1.4299,1.4299,1.4299,1.4299,1.4299,1.4299,1.4299,1.4299,1.4299,1.4299,1.4299,1.6815,1.6958,1.6978,1.6978,1.6727,1.6408,1.6144,1.5825,1.552,1.5282,1.5425,1.5574,1.552,1.5893,1.63,1.6571,1.6917,1.7419,1.8213,1.8565,1.8918,1.9325,1.9556,1.9671,1.9481,1.9345,1.8899,1.8142,1.7405,1.7256,1.798,1.7361,1.6919,1.6919,1.4459,1.3019,1.2848,1.0246,1.0072,1.2256,1.2256,1.3706,1.6361,1.6335,1.6571,1.7026,1.6992,1.6978,1.6978,1.6978,1.6663,1.5855,1.3569,1.1873,1.0182,0.5821,0.3739,0.2817,0.0717,0.0354,0.1192,0.3144,0.3823,0.3909,0.447,0.6411,0.8432,0.8415,0.8817,0.9124,0.8563,0.6942,0.5453,0.5468,0.7097,0.9855,1.4336,1.5377,1.5425,1.5303,1.5255,1.5194,1.5086,1.5038,1.4977,1.4809,1.4789,1.4775,1.4748,1.4741,1.4685,1.4421,1.4367,1.436,1.4394,1.4468,1.4475,1.4401,1.4468,1.4462,1.4346,1.4319,1.4299,1.4299,1.4299,1.4312,1.4346,1.4346,1.436,1.4394,1.436,1.4346,1.6635,1.6876,1.6978,1.6978,1.6653,1.6286,1.6123,1.5744,1.5425,1.5398,1.5411,1.5513,1.5813,1.5908,1.6173,1.6829,1.6971,1.7311,1.8199,1.8565,1.8884,1.9183,1.9488,1.9664,1.9644,1.9501,1.8192,1.5319,1.2247,1.1683,1.4589,1.1893,1.0264,1.0264,0.9968,0.9746,0.9614,0.9315,0.9236,0.9314,0.9314,1.0798,1.3567,1.3414,1.4765,1.7168,1.7039,1.6978,1.6978,1.6978,1.5487,1.309,1.2821,0.9538,0.4879,0.4366,0.2557,0.0311,0.0103,0.1617,0.3669,0.3782,0.3791,0.4232,0.6571,0.9015,1.1055,1.1045,1.2705,1.3987,1.1647,1.0899,1.0744,1.0873,1.105,1.2053,1.4934,1.556,1.5566,1.5553,1.5438,1.5384,1.5371,1.5255,1.516,1.5147,1.514,1.5092,1.501,1.495,1.4889,1.4674,1.4532,1.455,1.464,1.4539,1.4563,1.4647,1.4584,1.4509,1.4489,1.4367,1.4299,1.4299,1.4299,1.4367,1.4489,1.4489,1.4518,1.4654,1.4557,1.4489,1.6459,1.6795,1.6958,1.6863,1.6503,1.613,1.603,1.5669,1.5384,1.5296,1.5418,1.5539,1.5703,1.584,1.6092,1.6612,1.6558,1.6754,1.765,1.7806,1.8057,1.8728,1.9081,1.9291,1.9379,1.7637,1.5097,1.186,0.8539,0.7205,0.8548,0.9229,0.951,0.951,0.7653,0.6625,0.6481,0.4639,0.4555,0.6262,0.6232,0.8698,1.3197,1.3085,1.4514,1.7182,1.7039,1.6019,1.4417,1.4417,1.2721,1.0021,0.8276,0.6213,0.3986,0.2279,0.0945,0.0,0.0,0.1732,0.4247,0.5737,0.7325,0.8783,0.9646,1.1668,1.3711,1.3711,1.4487,1.5059,1.3971,1.2625,1.156,1.1673,1.1798,1.258,1.5054,1.571,1.5744,1.5607,1.5539,1.5499,1.5499,1.5499,1.5425,1.5337,1.5316,1.5269,1.512,1.5099,1.5072,1.5011,1.4794,1.4626,1.4687,1.4767,1.4774,1.4694,1.4774,1.4746,1.4652,1.4545,1.4518,1.4518,1.4518,1.459,1.4606,1.4606,1.4633,1.4694,1.4633,1.4597,1.6279,1.6646,1.689,1.6723,1.6449,1.6096,1.5949,1.5622,1.5364,1.5215,1.5391,1.5539,1.558,1.5757,1.6037,1.6395,1.632,1.6463,1.7188,1.7311,1.7575,1.8247,1.8599,1.8507,1.7743,1.402,1.0665,0.8346,0.5123,0.3358,0.3437,0.5567,0.6748,0.6748,0.4584,0.339,0.329,0.1125,0.1061,0.3196,0.3169,0.6258,1.1917,1.175,1.3286,1.6008,1.5826,1.4101,1.1446,1.1446,0.9809,0.7005,0.4995,0.3668,0.2713,0.0746,0.0,0.0,0.0,0.1744,0.4285,0.6023,0.8967,1.1741,1.1521,1.3228,1.5242,1.5194,1.5296,1.5398,1.5337,1.4044,1.2839,1.2963,1.3113,1.371,1.5387,1.5845,1.5942,1.5791,1.573,1.5703,1.5703,1.5621,1.5553,1.5445,1.5479,1.5438,1.533,1.5316,1.5316,1.5316,1.5133,1.4924,1.4829,1.493,1.4943,1.4829,1.4936,1.4923,1.4814,1.4721,1.4694,1.4694,1.4694,1.4714,1.4808,1.4808,1.4828,1.4869,1.4828,1.4726,1.6008,1.6415,1.6702,1.6696,1.6473,1.6225,1.5976,1.5622,1.5364,1.5215,1.5303,1.5459,1.556,1.5757,1.6003,1.6259,1.6429,1.6625,1.6944,1.7365,1.7649,1.7902,1.8145,1.7225,1.4449,0.8626,0.4914,0.4761,0.1823,0.0059,0.0059,0.0059,0.0118,0.0118,0.0059,0.0059,0.0059,0.0,0.0,0.0058,0.0058,0.3145,0.8923,0.8653,1.0286,1.321,1.2871,1.113,0.854,0.854,0.6846,0.4253,0.42,0.25,0.0053,0.0,0.0,0.0,0.0,0.1751,0.3967,0.3897,0.7435,1.1766,1.165,1.3386,1.5377,1.5221,1.5296,1.5445,1.5546,1.5587,1.5621,1.5818,1.5852,1.5893,1.6042,1.6076,1.6076,1.6076,1.6003,1.5901,1.5901,1.5737,1.5593,1.5587,1.5587,1.5587,1.5587,1.5587,1.5587,1.5587,1.5587,1.5458,1.5201,1.5098,1.5078,1.5167,1.5052,1.5017,1.5017,1.4821,1.4694,1.4694,1.4694,1.4814,1.5017,1.5017,1.5085,1.5174,1.5078,1.4889,1.5438,1.5791,1.611,1.5965,1.5845,1.5669,1.5574,1.556,1.552,1.5371,1.554,1.573,1.5778,1.5874,1.6037,1.6388,1.6408,1.6517,1.6924,1.71,1.7358,1.7868,1.8321,1.7472,1.4527,1.043,0.7059,0.4874,0.1764,0.0,0.0,0.0,0.0,0.0,0.0,0.0,0.0,0.0,0.0,0.0,0.0,0.2066,0.5928,0.7681,0.9092,1.0224,1.1963,0.9968,0.5576,0.5576,0.5048,0.42,0.42,0.4835,0.5786,0.5786,0.4544,0.2887,0.2877,0.3362,0.3976,0.3954,0.7593,1.1977,1.1766,1.352,1.5581,1.5628,1.5608,1.558,1.5879,1.5866,1.5825,1.6024,1.6058,1.6049,1.6205,1.6157,1.611,1.6218,1.611,1.6058,1.6058,1.5974,1.5906,1.5798,1.5833,1.575,1.56,1.5593,1.5593,1.5593,1.5593,1.5553,1.5499,1.5452,1.5445,1.5493,1.5452,1.5425,1.5425,1.533,1.5255,1.5201,1.5201,1.5174,1.516,1.516,1.514,1.5181,1.5085,1.4989,1.5072,1.5432,1.575,1.5614,1.5649,1.5622,1.5452,1.5574,1.5662,1.5452,1.5649,1.5901,1.5901,1.5949,1.6078,1.6313,1.6327,1.6429,1.6761,1.691,1.7182,1.7717,1.7236,1.6121,1.4211,1.1245,0.8098,0.4952,0.2884,0.1237,0.0059,0.0,0.0,0.0,0.0,0.0,0.0,0.0,0.0,0.0,0.0,0.1603,0.4528,0.6147,0.6973,0.7185,0.8819,0.7482,0.0,0.42,0.4835,0.5841,0.5841,0.6899,0.8487,0.8487,0.6666,0.4215,0.42,0.3437,0.2476,0.2509,0.6128,1.0731,1.1619,1.362,1.5621,1.586,1.5791,1.5778,1.6015,1.6058,1.601,1.6056,1.6123,1.6191,1.6286,1.6279,1.6259,1.63,1.6232,1.6151,1.609,1.6083,1.6049,1.6003,1.599,1.5906,1.5818,1.5805,1.5805,1.5805,1.5805,1.5805,1.5805,1.5654,1.5593,1.5593,1.5593,1.5593,1.5593,1.5593,1.5546,1.5499,1.5438,1.5364,1.5269,1.5208,1.5181,1.5181,1.5092,1.5098,0.0,1.5235,1.5512,1.5526,1.5784,1.5879,1.5472,1.5608,0.0,1.5479,1.5649,1.5894,1.5915,1.6024,1.6076,1.6096,1.6225,1.6374,1.6517,1.6829,1.7209,1.7595,1.5465,1.3974,1.3974,1.1374,0.8409,0.5281,0.4834,0.3303,0.0179,0.0,0.0,0.0,0.0,0.0,0.0,0.0,0.0,0.0,0.0,0.1482,0.4179,0.421,0.4198,0.4195,0.4178,0.42,0.42,0.42,0.6,0.8805,0.8805,0.8911,0.9122,0.9122,0.727,0.4829,0.4789,0.2942,0.0629,0.0618,0.3805,0.8238,1.0995,1.3444,1.5356,1.5335,1.5473,1.5654,1.5794,1.5977,1.6083,1.6096,1.6205,1.6313,1.6334,1.6435,1.6483,1.6347,1.632,1.6259,1.611,1.6083,1.6083,1.6083,1.6083,1.6083,1.6083,1.6083,1.6083,1.6083,1.6083,1.6083,1.6083,1.5825,1.5621,1.5621,1.5621,1.5621,1.5621,1.5621,1.5614,1.5607,1.5493,1.5404,1.5398,1.5262,1.5201,1.5201,1.5201,1.5208,1.4434,0.0,1.4755,1.4877,1.4958,1.5059,0.0,1.5303,1.5527,1.5526,1.5642,1.5757,1.5988,1.601,1.603,1.6218,1.6374,1.6524,1.6621,1.7249,1.7772,1.8124,1.7654,1.7429,1.7588,1.4649,1.1536,0.8521,0.6051,0.3352,0.0177,0.0,0.0,0.0,0.0,0.0,0.0,0.0,0.0,0.0,0.0,0.0398,0.1138,0.3261,0.3055,0.1201,0.3269,0.42,0.42,0.42,0.7164,1.171,1.171,1.3037,1.5008,1.5008,1.3201,1.0703,1.0682,0.8843,0.6476,0.6362,0.5726,0.5432,0.8138,1.0812,1.2473,1.0455,1.136,1.3018,1.3046,1.4564,1.611,1.6232,1.6286,1.6374,1.6547,1.6527,1.651,1.6476,1.6381,1.6259,1.611,1.6083,1.6083,1.6083,1.6083,1.6083,1.6083,1.6083,1.6083,1.6083,1.6083,1.6083,1.6083,1.6015,1.5974,1.5974,1.5974,1.5974,1.5974,1.5974,1.592,1.5854,1.5547,1.535,1.5235,1.5316,1.5357,1.5357,1.5357,1.5418,1.4062,1.4557,1.474,1.4828,1.5004,1.5107,1.5167,1.535,1.5472,1.5533,1.5539,1.5641,1.5852,1.4871,1.4083,1.4193,1.4431,1.5142,1.6694,1.748,1.8024,1.8287,1.8443,1.8586,1.88,1.7095,1.4134,0.9717,0.782,0.4824,0.0237,0.0,0.0,0.0,0.0,0.0,0.0,0.0,0.0,0.0,0.0,0.0,0.0057,0.1555,0.143,0.011,0.1619,0.2997,0.4277,0.5638,0.8752,1.2821,1.4154,1.5645,1.6978,1.6978,1.5165,1.2716,1.2716,1.0013,0.6744,0.7918,0.6362,0.4281,0.5704,0.7226,0.8329,0.8058,1.0004,1.2191,1.219,1.4246,1.6307,1.6388,1.6463,1.6506,1.6662,1.6741,1.6693,1.6551,1.6463,1.6341,1.6117,1.6083,1.6083,1.6083,1.6083,1.6083,1.6083,1.6083,1.6083,1.6083,1.6083,1.6083,1.6083,1.6083,1.6083,1.6083,1.6083,1.6083,1.6083,1.6083,1.5981,1.5757,1.5527,1.5337,1.5181,1.5337,1.5411,1.5411,1.5486,1.5512,1.3912,1.4493,1.452,1.4851,1.4972,1.4895,1.48,1.4878,1.4812,1.432,1.4623,1.4857,1.4479,1.2661,1.1184,1.1209,1.1474,1.2827,1.6094,1.6951,1.7477,1.8156,1.8375,1.8531,1.8732,1.8112,1.5399,0.9797,0.8941,0.6117,0.0297,0.0,0.0,0.0,0.0,0.0,0.0,0.0,0.0,0.0,0.0,0.0,0.0,0.0,0.0,0.0,0.0,0.1618,0.4413,0.6818,0.9492,1.2347,1.5218,1.6341,1.6394,1.6821,1.5435,1.3301,1.2821,0.9278,0.5188,0.7069,0.5727,0.3364,0.3364,0.3367,0.3875,0.6139,0.8825,1.1125,1.1587,1.374,1.5955,1.6397,1.6601,1.6702,1.673,1.689,1.689,1.6585,1.6524,1.6429,1.613,1.6083,1.6083,1.6083,1.6083,1.6083,1.6083,1.6083,1.6083,1.6083,1.6083,1.6083,1.6083,1.6083,1.6083,1.6083,1.6083,1.6083,1.6083,1.6083,1.5954,1.5627,1.5547,1.5404,1.5255,1.5404,1.5479,1.5479,1.5608,1.5683,1.4495,1.324,1.2256,1.4231,1.3371,1.2025,1.186,1.1971,1.1462,0.9376,1.063,1.1475,0.9546,0.8758,0.847,0.8568,0.8763,1.0021,1.3173,1.3912,1.5064,1.763,1.8077,1.8213,1.8375,1.5954,1.2939,0.9468,0.6843,0.3809,0.0175,0.0,0.0,0.0,0.0,0.0,0.0,0.0,0.0,0.0,0.0,0.0,0.0,0.0,0.0,0.0,0.0,0.1618,0.4252,0.4693,0.6528,0.9439,1.2242,1.3353,1.3675,1.6124,1.6715,1.5967,1.3569,1.059,0.7487,0.5502,0.2921,0.0623,0.0623,0.0626,0.0681,0.1088,0.3203,0.583,0.8276,1.0921,1.3551,1.606,1.6682,1.6736,1.6917,1.6965,1.689,1.6585,1.6524,1.6429,1.613,1.6083,1.6083,1.6083,1.6083,1.6083,1.6083,1.6083,1.6083,1.6083,1.6083,1.6083,1.6083,1.6083,1.6083,1.6083,1.6083,1.6083,1.6083,1.6083,1.6001,1.5874,1.5847,1.5716,1.5519,1.5716,1.5833,1.5833,1.586,1.5886,1.4104,1.2879,1.1408,1.2419,1.1018,0.9459,0.9369,0.9357,0.9012,0.79,0.859,0.9028,0.7984,0.6598,0.5709,0.5925,0.6018,0.7681,1.2331,1.3246,1.453,1.7557,1.8002,1.7527,1.6009,1.4473,1.1711,0.7123,0.5507,0.3309,0.0175,0.0,0.0,0.0,0.0,0.0,0.0,0.0,0.0,0.0,0.0,0.0,0.0,0.0,0.0,0.0,0.0,0.071,0.2062,0.3548,0.4963,0.6478,0.9334,1.1341,1.3037,1.5967,1.6019,1.4476,1.3143,0.9835,0.5964,0.4648,0.2321,0.0,0.0,0.0,0.0,0.0,0.1991,0.4401,0.576,0.8172,1.0591,1.1949,1.3435,1.4557,1.4674,1.5914,1.689,1.6585,1.6524,1.6429,1.613,1.6083,1.6083,1.6083,1.6083,1.6083,1.6083,1.6083,1.6083,1.6083,1.6083,1.6083,1.6083,1.6083,1.6083,1.6083,1.6083,1.6083,1.6083,1.6051,1.5976,1.5901,1.5778,1.5703,1.5593,1.5784,1.5901,1.5901,1.599,1.6064,1.3253,1.1965,1.0073,0.9462,0.8108,0.688,0.6879,0.6779,0.6523,0.5924,0.6307,0.6506,0.5937,0.4216,0.2999,0.3187,0.3225,0.5005,1.022,1.114,1.2439,1.5417,1.5872,1.5106,1.2894,1.192,0.9565,0.5014,0.4026,0.2533,0.0116,0.0,0.0,0.0,0.0,0.0,0.0,0.0,0.0,0.0,0.0,0.0,0.0,0.0,0.0,0.0,0.0,0.0,0.0164,0.2327,0.3217,0.3509,0.6369,0.9228,1.1978,1.4212,1.3622,1.1604,1.0918,0.7852,0.4093,0.3456,0.1756,0.0,0.0,0.0,0.0,0.0,0.1536,0.3343,0.4048,0.5854,0.7641,0.8329,1.0126,1.171,1.171,1.3996,1.589,1.5635,1.6077,1.6435,1.6178,1.6103,1.6083,1.6083,1.6083,1.6083,1.6083,1.6083,1.6083,1.6083,1.6083,1.6083,1.6083,1.6083,1.6083,1.6083,1.6083,1.6083,1.6083,1.6017,1.5956,1.5956,1.5798,1.5744,1.5744,1.5852,1.5956,1.5956,1.6029,1.6083,1.207,0.9552,0.6953,0.4961,0.4377,0.4226,0.4096,0.4062,0.3398,0.1039,0.243,0.3331,0.1005,0.0412,0.0262,0.0316,0.0318,0.1384,0.4416,0.5021,0.6219,0.9001,0.9476,0.9472,0.9289,0.6752,0.4971,0.4541,0.1946,0.0229,0.0,0.0,0.0,0.0,0.0,0.0,0.0,0.0,0.0,0.0,0.0,0.0,0.0,0.0,0.0,0.0,0.0,0.0,0.0,0.0217,0.0322,0.0586,0.3403,0.6266,0.8805,0.9016,0.8964,0.8435,0.5735,0.4517,0.3775,0.1171,0.016,0.0,0.0,0.0,0.0,0.0,0.016,0.0903,0.3524,0.4329,0.5207,0.7852,0.8646,0.8805,0.8805,1.1024,1.2948,1.2829,1.4798,1.6469,1.632,1.6178,1.6083,1.6083,1.6083,1.6083,1.6083,1.6083,1.6083,1.6083,1.6083,1.6083,1.6083,1.6083,1.6083,1.6083,1.6083,1.6083,1.6083,1.6069,1.6069,1.6069,1.6056,1.6049,1.6049,1.6062,1.6069,1.6069,1.6076,1.6083,0.8923,0.6853,0.4712,0.3952,0.2607,0.1489,0.1433,0.1441,0.1146,0.0202,0.076,0.1166,0.0153,0.0,0.0,0.0,0.0,0.0958,0.3828,0.437,0.556,0.8386,0.8817,0.8178,0.6318,0.5172,0.3731,0.1815,0.0623,0.0,0.0,0.0,0.0,0.0,0.0,0.0,0.0,0.0,0.0,0.0,0.0,0.0,0.0,0.0,0.0,0.0,0.0,0.0,0.0,0.0,0.0,0.0266,0.3085,0.4888,0.6054,0.7852,0.7376,0.5682,0.457,0.3032,0.1437,0.032,0.0,0.0,0.0,0.0,0.0,0.0,0.0,0.0266,0.1326,0.1593,0.1863,0.2977,0.457,0.5841,0.5841,0.9439,1.2665,1.2435,1.459,1.6442,1.6205,1.6123,1.6083,1.6083,1.6083,1.6083,1.6083,1.6083,1.6083,1.6083,1.6083,1.6083,1.6083,1.6083,1.6083,1.6083,1.6083,1.6083,1.6083,1.6171,1.6178,1.6083,1.6178,1.6178,1.6083,1.6083,1.6083,1.6083,1.6083,1.6083,0.6237,0.4873,0.3425,0.2657,0.1225,0.0,0.0,0.0,0.0,0.0,0.0,0.0,0.0,0.0,0.0,0.0,0.0,0.0692,0.2606,0.3831,0.5234,0.7136,0.748,0.6724,0.47,0.3639,0.2245,0.017,0.0,0.0,0.0,0.0,0.0,0.0,0.0,0.0,0.0,0.0,0.0,0.0,0.0,0.0,0.0,0.0,0.0,0.0,0.0,0.0,0.0,0.0,0.0,0.0213,0.2129,0.2872,0.3138,0.5099,0.457,0.2872,0.2872,0.1597,0.0,0.0,0.0586,0.1331,0.1331,0.1331,0.1491,0.2447,0.2022,0.1544,0.2447,0.1331,0.0213,0.1118,0.2819,0.4465,0.5364,0.9334,1.267,1.247,1.4614,1.6456,1.6252,1.6144,1.6083,1.6083,1.6083,1.6083,1.6083,1.6083,1.6083,1.6083,1.6083,1.6083,1.6083,1.6083,1.6083,1.6083,1.6083,1.6103,1.6151,1.6252,1.6279,1.6225,1.6327,1.63,1.6151,1.6151,1.6151,1.6151,1.6103,1.611,0.435,0.3654,0.3016,0.0645,0.0047,0.0048,0.005,0.005,0.0,0.0,0.0,0.0,0.0,0.0,0.0,0.0,0.0,0.0,0.0,0.2591,0.4471,0.4471,0.4462,0.4462,0.4479,0.1737,0.0,0.0,0.0,0.0,0.0,0.0,0.0,0.0,0.0,0.0,0.0,0.0,0.0,0.0,0.0,0.0,0.0,0.0,0.0,0.0,0.0,0.0,0.0,0.0,0.0,0.0,0.0,0.0,0.0,0.0,0.0,0.0,0.0,0.0,0.0,0.0,0.1916,0.42,0.42,0.42,0.4835,0.7693,0.6425,0.4888,0.7746,0.4303,0.0799,0.3562,0.4253,0.5048,0.7905,1.0707,1.2716,1.2716,1.4785,1.6524,1.6517,1.6273,1.6083,1.6083,1.6083,1.6083,1.6083,1.6083,1.6083,1.6083,1.6083,1.6083,1.6083,1.6083,1.6083,1.6083,1.6083,1.6151,1.63,1.6313,1.6381,1.6517,1.6524,1.6456,1.6313,1.6313,1.6313,1.6307,1.6157,1.6164,0.1308,0.1091,0.1333,0.2512,0.2899,0.3465,0.5395,0.2793,0.0,0.0,0.0,0.0,0.0,0.0,0.0,0.0,0.0,0.0,0.0,0.0757,0.1312,0.1312,0.1334,0.135,0.1346,0.0505,0.0,0.0,0.0,0.0,0.0,0.0,0.0,0.0,0.0,0.0,0.0,0.0,0.0,0.0,0.0,0.0,0.0,0.0,0.0,0.0,0.0,0.0,0.0,0.0,0.0,0.0,0.0,0.0,0.0,0.0,0.0,0.0,0.0,0.0,0.0,0.0,0.1916,0.42,0.42,0.5629,0.7429,0.8276,0.7905,0.7429,0.8276,0.727,0.621,0.7005,0.7217,0.7482,0.8329,1.0707,1.2696,1.2567,1.4674,1.649,1.6388,1.6212,1.6083,1.6083,1.6083,1.6083,1.6083,1.6083,1.6083,1.6083,1.6083,1.6083,1.6083,1.6083,1.6083,1.6083,1.6083,1.6151,1.63,1.6402,1.6476,1.6524,1.6574,1.656,1.6456,1.6456,1.6456,1.6456,1.6415,1.6415,0.0,0.0779,0.1998,0.3652,0.4941,0.6299,0.798,0.4914,0.1358,0.0212,0.0,0.0,0.0,0.0,0.0,0.0,0.0,0.0,0.0,0.1027,0.1805,0.1811,0.1779,0.1796,0.1801,0.0728,0.0,0.0,0.0,0.0,0.0,0.0,0.0,0.0,0.0,0.0,0.0,0.0,0.0,0.0,0.0,0.0,0.0,0.0,0.0,0.0,0.0,0.0,0.0,0.0,0.0,0.0,0.0,0.0,0.0,0.0,0.0,0.0,0.0,0.0,0.0,0.0,0.266,0.5894,0.5894,0.7905,1.0391,1.1556,1.1028,1.0443,1.1556,1.1877,1.1609,1.0443,1.0179,1.0496,1.1609,1.3201,1.44,1.4325,1.5511,1.6564,1.6422,1.6273,1.6151,1.609,1.6083,1.6103,1.6164,1.6171,1.6171,1.6171,1.6171,1.6151,1.609,1.6083,1.6083,1.6083,1.6083,1.6178,1.6388,1.6476,1.6578,1.67,1.6795,1.6716,1.656,1.656,1.656,1.656,1.65,1.6558,0.0,0.1758,0.3778,0.4417,0.6818,0.9044,0.8891,0.686,0.4198,0.1331,0.0582,0.037,0.0372,0.0159,0.0,0.0,0.0,0.0,0.0,0.2377,0.4105,0.4082,0.4063,0.4096,0.407,0.1621,0.0,0.0,0.0,0.0,0.0,0.0,0.0,0.0,0.0,0.0,0.0,0.0,0.0,0.0,0.0,0.0,0.0,0.0,0.0,0.0,0.0,0.0,0.0,0.0,0.0,0.0,0.0,0.0,0.0,0.0,0.0,0.0,0.0,0.016,0.0373,0.0373,0.4251,0.8911,0.8911,1.0866,1.3622,1.6282,1.5113,1.3675,1.6341,1.6978,1.6341,1.3727,1.309,1.3727,1.6124,1.6821,1.6926,1.6656,1.6641,1.6655,1.6564,1.6422,1.6279,1.6144,1.6123,1.6171,1.6313,1.6327,1.6327,1.6327,1.632,1.6252,1.6117,1.609,1.6083,1.6083,1.6083,1.6212,1.651,1.6524,1.6666,1.6978,1.6978,1.691,1.6716,1.6716,1.6716,1.6716,1.6574,1.6588,0.0,0.0419,0.1936,0.6316,1.1174,1.4329,1.2273,1.1327,1.007,0.727,0.4881,0.329,0.3296,0.1488,0.0,0.0,0.0,0.0,0.0,0.0543,0.0987,0.094,0.0949,0.0954,0.0956,0.0393,0.0,0.0,0.0,0.0,0.0,0.0,0.0,0.0,0.0,0.0,0.0,0.0,0.0,0.0,0.0,0.0,0.0,0.0,0.0,0.0,0.0,0.0,0.0,0.0,0.0,0.0,0.0,0.0,0.0,0.0,0.0,0.0,0.0,0.1437,0.3296,0.3296,0.7164,1.182,1.182,1.3785,1.6177,1.6821,1.6551,1.6229,1.6821,1.6978,1.6821,1.6229,1.6072,1.5645,1.399,1.5376,1.6341,1.4043,1.5265,1.6689,1.6655,1.6527,1.6463,1.6429,1.6429,1.6435,1.6469,1.6476,1.6476,1.6476,1.6374,1.6293,1.6266,1.6151,1.6083,1.6083,1.6083,1.6212,1.651,1.6524,1.6666,1.6978,1.6978,1.6965,1.6931,1.6931,1.6931,1.6931,1.6897,1.6897,0.0,0.0939,0.3249,0.8894,1.3621,1.6459,1.5095,1.4739,1.4318,1.2884,0.8093,0.422,0.4203,0.1876,0.0,0.0,0.0,0.0,0.0,0.0,0.0,0.0,0.0,0.0,0.0,0.0,0.0,0.0,0.0,0.0,0.0,0.0,0.0,0.0,0.0,0.0,0.0,0.0,0.0,0.0,0.0,0.0,0.0,0.0,0.0,0.0,0.0,0.0,0.0,0.0,0.0,0.0,0.0,0.0,0.0,0.0,0.0852,0.2022,0.2022,0.3879,0.6266,0.6266,0.9175,1.2716,1.2716,1.4686,1.6978,1.6978,1.6978,1.6978,1.6978,1.6978,1.6978,1.6978,1.6978,1.6229,1.3301,1.3885,1.4522,1.2985,1.3835,1.5194,1.6502,1.6574,1.6524,1.6524,1.6524,1.6493,1.6567,1.6581,1.6581,1.6581,1.6497,1.6381,1.6313,1.6171,1.6083,1.6083,1.6151,1.6293,1.651,1.654,1.6741,1.6978,1.6978,1.6978,1.6978,1.6978,1.6978,1.6978,1.6978,1.6978,0.1023,0.327,0.6406,1.0738,1.4428,1.6978,1.6978,1.6978,1.6873,1.6341,1.024,0.4931,0.4947,0.2211,0.0,0.0,0.0,0.0,0.0,0.0,0.0,0.0,0.0,0.0,0.0,0.0,0.0,0.0,0.0,0.0,0.0,0.0,0.0,0.0,0.0,0.0,0.0,0.0,0.0,0.0,0.0,0.0,0.0,0.0,0.0,0.0,0.0,0.0,0.0,0.0,0.0,0.0,0.0,0.0,0.0053,0.0533,0.2182,0.4253,0.4782,0.6846,0.9228,0.9228,1.113,1.3464,1.3464,1.5113,1.6978,1.6978,1.6978,1.6978,1.6978,1.6978,1.6978,1.6978,1.6978,1.6229,1.3301,1.309,1.3301,1.2821,1.309,1.4173,1.6386,1.6686,1.6598,1.6598,1.6598,1.6646,1.6723,1.6736,1.6736,1.6736,1.6601,1.651,1.6395,1.6246,1.6144,1.6123,1.6259,1.6402,1.6517,1.6615,1.677,1.6978,1.6978,1.6978,1.6978,1.6978,1.6978,1.6978,1.6978,1.6978,0.502,0.8538,1.0704,0.935,1.3055,1.6978,1.6978,1.6978,1.6288,1.378,1.0399,0.7915,0.7905,0.3591,0.0,0.0,0.0,0.0,0.0,0.0,0.0,0.0,0.0,0.0,0.0,0.0,0.0,0.0,0.0,0.0,0.0,0.0,0.0,0.0,0.0,0.0,0.0,0.0,0.0,0.0,0.0,0.0,0.0,0.0,0.0,0.0,0.0,0.0,0.0,0.0,0.0,0.0,0.0,0.0,0.032,0.2713,0.3881,0.457,0.7058,0.9757,1.2136,1.2136,1.4101,1.6446,1.6446,1.6715,1.6978,1.6978,1.6978,1.6978,1.6978,1.6978,1.6978,1.6978,1.6978,1.6229,1.3301,1.4686,1.5697,1.3195,1.4739,1.6545,1.6899,1.6931,1.6917,1.6917,1.6917,1.6924,1.6944,1.6951,1.6951,1.6951,1.6815,1.6662,1.6642,1.65,1.6408,1.6286,1.6415,1.6503,1.6524,1.6615,1.677,1.6978,1.6978,1.6978,1.6978,1.6978,1.6978,1.6978,1.6978,1.6978,0.6133,0.941,1.1643,1.0827,1.3717,1.6768,1.6944,1.575,1.4207,1.2985,0.9171,0.6116,0.6092,0.2764,0.0,0.0,0.0,0.0,0.0,0.0,0.0622,0.2313,0.1016,0.0677,0.2353,0.1013,0.0,0.0,0.0,0.0,0.0,0.0,0.0,0.0,0.0,0.0,0.0,0.0,0.0,0.0,0.0,0.0,0.0,0.0,0.0,0.0,0.0,0.0,0.0,0.0,0.0,0.0,0.0,0.0958,0.25,0.3722,0.6213,0.9119,1.0391,1.2721,1.5113,1.5113,1.5967,1.6978,1.6978,1.6978,1.6978,1.6978,1.6978,1.6978,1.6978,1.6978,1.6978,1.6978,1.6978,1.6656,1.5376,1.4844,1.4207,1.2932,1.5008,1.6978,1.6978,1.6978,1.6978,1.6978,1.6978,1.6978,1.6978,1.6978,1.6978,1.6978,1.6842,1.6696,1.6696,1.656,1.6497,1.6429,1.6513,1.6601,1.6601,1.6795,1.691,1.6978,1.6978,1.6978,1.6978,1.6978,1.6978,1.6978,1.6978,1.6978,0.6703,0.9651,1.2339,1.2188,1.4258,1.6476,1.6748,1.4644,1.2465,1.1725,0.7628,0.4,0.3291,0.1422,0.0,0.0,0.0,0.0285,0.1091,0.1207,0.2007,0.4265,0.2561,0.176,0.3213,0.13,0.0,0.0,0.0,0.0,0.0,0.0,0.0,0.0,0.0,0.0,0.0,0.0,0.0,0.0,0.0,0.0,0.0,0.0,0.0,0.0,0.0,0.0,0.0,0.0,0.0,0.0,0.0,0.1703,0.4306,0.5048,0.8435,1.2821,1.3517,1.5218,1.6978,1.6978,1.6978,1.6978,1.6978,1.6978,1.6978,1.6978,1.6978,1.6978,1.6978,1.6978,1.6978,1.6978,1.6978,1.6978,1.6978,1.5323,1.378,1.378,1.554,1.6978,1.6978,1.6978,1.6978,1.6978,1.6978,1.6978,1.6978,1.6978,1.6978,1.6978,1.6876,1.6757,1.6757,1.67,1.6619,1.6527,1.6669,1.6736,1.6702,1.6897,1.6978,1.6978,1.6978,1.6978,1.6978,1.6978,1.6978,1.6978,1.6978,1.6978,0.7515,1.0625,1.4086,1.2122,1.3902,1.6144,1.6307,1.4333,1.173,0.9057,0.6228,0.3368,0.0708,0.0109,0.0,0.0,0.0,0.1025,0.4011,0.4474,0.4531,0.47,0.4528,0.3326,0.0517,0.0116,0.0,0.0,0.0,0.0,0.0,0.0,0.0,0.0,0.0,0.0,0.0,0.0,0.0,0.0,0.0,0.0,0.0,0.0,0.0,0.0,0.0,0.0,0.0,0.0,0.0,0.0,0.0,0.1703,0.4517,0.727,1.0126,1.309,1.5803,1.6873,1.6978,1.6978,1.6978,1.6978,1.6978,1.6978,1.6978,1.6978,1.6978,1.6978,1.6978,1.6978,1.6978,1.6978,1.6978,1.6978,1.6978,1.6873,1.6768,1.6768,1.6873,1.6978,1.6978,1.6978,1.6978,1.6978,1.6978,1.6978,1.6978,1.6978,1.6978,1.6978,1.6971,1.6971,1.6971,1.6965,1.6897,1.6696,1.6883,1.6904,1.6702,1.6897,1.6978,1.6978,1.6978,1.6978,1.6978,1.6978,1.6978,1.6978,1.6978,1.6978,1.1568,1.284,1.3971,1.1957,1.3555,1.5321,1.4008,1.2937,1.1483,0.8655,0.5964,0.3228,0.0483,0.0,0.066,0.2577,0.295,0.4068,0.7146,0.7746,0.7769,0.7623,0.595,0.4318,0.3021,0.1143,0.0,0.0,0.0,0.0,0.0,0.0,0.0,0.0,0.0,0.0,0.0,0.0,0.0,0.0,0.0,0.0,0.0,0.0,0.0,0.0,0.0,0.0,0.0,0.0,0.0,0.016,0.1969,0.4464,0.7323,1.0126,1.2985,1.5592,1.6656,1.6978,1.6978,1.6978,1.6978,1.6978,1.6978,1.6978,1.6604,1.4739,1.4259,1.4259,1.4259,1.4259,1.4686,1.6551,1.6978,1.6978,1.6978,1.6978,1.6978,1.6978,1.6978,1.6978,1.6978,1.6978,1.6978,1.6978,1.6978,1.6978,1.6978,1.6978,1.6978,1.6978,1.6978,1.6978,1.6978,1.6978,1.6958,1.6904,1.6951,1.6958,1.6904,1.6951,1.6978,1.6978,1.6978,1.6978,1.6978,1.6978,1.6978,1.6978,1.6978,1.6978,1.2204,1.2249,1.171,1.1252,1.2603,1.3648,1.2342,1.196,1.1387,0.9647,0.7186,0.4506,0.1859,0.2154,0.3232,0.4312,0.4592,0.6129,1.0176,1.0981,1.0688,0.9434,0.7621,0.5565,0.3217,0.1202,0.0,0.0,0.0,0.0,0.0,0.0,0.0,0.0,0.0,0.0,0.0,0.0,0.0,0.0,0.0,0.0,0.0,0.0,0.0,0.0054,0.1023,0.0861,0.0054,0.1019,0.1388,0.1703,0.4517,0.7376,1.0126,1.2031,1.4522,1.6978,1.6978,1.6978,1.6978,1.6978,1.6978,1.6978,1.6978,1.6978,1.6604,1.4686,1.4154,1.4154,1.4154,1.4154,1.4633,1.6551,1.6978,1.6978,1.6978,1.6978,1.6978,1.6978,1.6978,1.6978,1.6978,1.6978,1.6978,1.6978,1.6177,1.554,1.554,1.554,1.554,1.554,1.6446,1.6978,1.6978,1.6978,1.6978,1.6978,1.6978,1.6978,1.6978,1.6978,1.6978,1.6978,1.6978,1.6978,1.6978,1.6978,1.6978,1.6978,1.6978,1.6978,0.0,0.0,0.0,0.9984,1.0962,1.1361,1.1546,1.1519,1.1568,1.1744,0.983,0.7268,0.4604,0.6517,0.7671,0.5173,0.4873,0.7051,1.3102,1.4146,1.3067,0.9799,0.9438,0.698,0.0588,0.0,0.0,0.0,0.0,0.0,0.0,0.0,0.0,0.0,0.0,0.0,0.0,0.0,0.0,0.0,0.0,0.0,0.0,0.0,0.0054,0.0266,0.3032,0.2672,0.0486,0.3178,0.4339,0.4623,0.7482,1.0285,1.2716,1.2821,1.4581,1.6978,1.6978,1.6978,1.6978,1.6978,1.6978,1.6978,1.6978,1.6978,1.6978,1.6873,1.6873,1.6873,1.6873,1.6926,1.6978,1.6978,1.6978,1.6978,1.6978,1.6978,1.6978,1.6978,1.6978,1.6978,1.6978,1.6978,1.6978,1.6873,1.447,1.2663,1.2611,1.2558,1.2611,1.2663,1.5218,1.6926,1.6978,1.6978,1.6978,1.6978,1.6978,1.6978,1.6978,1.6978,1.6978,1.6978,1.6978,1.6978,1.6978,1.6978,1.6978,1.6978,1.6978,1.6978,0.7346,0.0,0.0,0.0,0.0,0.0,1.1455,1.2615,1.3517,1.1742,1.0979,0.9848,0.7359,0.7706,0.8872,1.0557,1.0917,1.2396,1.6487,1.5384,1.295,0.9799,0.7486,0.4543,0.0409,0.0,0.0,0.0,0.0,0.0,0.0,0.0,0.0,0.0,0.0,0.0,0.0,0.0,0.0,0.0,0.0,0.0,0.0,0.0,0.1127,0.3085,0.3881,0.4947,0.6233,0.6977,0.7287,0.7588,1.0443,1.2031,1.2932,1.506,1.6341,1.6978,1.6978,1.6978,1.6978,1.6978,1.6978,1.6978,1.6978,1.6978,1.6551,1.4476,1.3885,1.3885,1.3885,1.5435,1.6978,1.6978,1.6978,1.6978,1.6978,1.6978,1.6978,1.6978,1.6978,1.6978,1.6978,1.6978,1.6288,1.4207,1.3195,1.1978,0.9915,0.9651,1.0443,1.2505,1.3406,1.4739,1.6821,1.6978,1.6978,1.6978,1.6978,1.6978,1.6978,1.6978,1.6978,1.6978,1.6978,1.6978,1.6978,1.6978,1.6978,1.6978,1.6978,1.6978,0.5029,0.6416,0.7501,0.7013,0.0,0.0,1.1306,1.3028,1.4507,1.3222,1.3106,1.2502,1.0067,1.0779,1.2,1.2869,1.3109,1.3983,1.6074,1.5072,1.2438,0.796,0.5924,0.3615,0.0294,0.0,0.0,0.0,0.0,0.0,0.0,0.12,0.1311,0.0057,0.0,0.0,0.0,0.0,0.0,0.0,0.0,0.0599,0.177,0.177,0.3312,0.6054,0.7217,0.8699,1.0338,1.1556,1.1345,1.0549,1.3359,1.447,1.4686,1.6394,1.6978,1.6978,1.6978,1.6978,1.6978,1.6978,1.6978,1.6978,1.6978,1.6978,1.6656,1.4949,1.447,1.447,1.447,1.575,1.6978,1.6978,1.6978,1.6978,1.6978,1.6978,1.6978,1.6978,1.6978,1.6978,1.6978,1.6019,1.4633,1.2932,1.0655,0.854,0.6899,0.6687,0.7323,0.8964,1.1288,1.3353,1.506,1.6288,1.6978,1.6978,1.6978,1.6978,1.6978,1.6978,1.6978,1.6978,1.6978,1.6978,1.6978,1.6978,1.6978,1.6978,1.6978,1.6978,0.2402,0.3247,0.4127,0.6367,0.8823,0.0,1.1416,1.3166,1.4769,1.5248,1.5411,1.4825,1.2627,1.454,1.5738,1.3488,1.3034,1.312,1.3536,1.3285,1.0947,0.534,0.4516,0.3212,0.0298,0.0,0.0,0.0,0.0,0.0,0.0,0.2531,0.2756,0.0057,0.0,0.0,0.0,0.0,0.0,0.0,0.0326,0.1772,0.42,0.4517,0.6266,0.9122,1.1604,1.2879,1.3353,1.5967,1.5487,1.3406,1.6019,1.6978,1.6978,1.6978,1.6978,1.6978,1.6978,1.6978,1.6978,1.6978,1.6978,1.6978,1.6978,1.6978,1.6978,1.6978,1.6978,1.6978,1.6978,1.6978,1.6978,1.6978,1.6978,1.6978,1.6978,1.6978,1.6978,1.6978,1.6978,1.6978,1.6978,1.4633,1.2611,1.2295,0.7641,0.4093,0.3775,0.3722,0.3828,0.4147,0.8748,1.1873,1.2189,1.4581,1.6072,1.6072,1.6341,1.6394,1.6072,1.6341,1.6394,1.6072,1.6072,1.6072,1.6072,1.6715,1.6978,1.6978,1.6978,1.6978,0.0517,0.2076,0.4179,0.6472,0.8918,0.0,1.3235,1.4044,1.4475,1.4755,1.4991,1.504,1.4916,1.5566,1.6108,1.5782,1.4058,1.2917,1.3349,0.9385,0.5958,0.4824,0.249,0.0713,0.0059,0.0,0.0,0.0,0.0,0.0,0.0,0.0564,0.0619,0.0,0.0,0.0,0.0,0.0,0.0,0.0,0.2276,0.3647,0.4306,0.6584,0.9228,1.1925,1.2453,1.3996,1.6177,1.6768,1.6656,1.6229,1.6768,1.6978,1.6978,1.6978,1.6978,1.6978,1.6978,1.6978,1.6978,1.6978,1.6978,1.6978,1.6978,1.6978,1.6978,1.6978,1.6978,1.6978,1.6978,1.6978,1.6978,1.6978,1.6978,1.6978,1.6978,1.6978,1.6978,1.6978,1.6978,1.6978,1.6978,1.4633,1.1925,0.9651,0.6422,0.3403,0.1118,0.0799,0.1703,0.3934,0.5207,0.6793,0.9122,0.9809,1.0179,1.0179,1.2295,1.251,1.0232,1.2352,1.2453,1.0179,1.0179,1.0179,1.0179,1.4745,1.6978,1.6978,1.6978,1.6978,0.0,0.1765,0.3867,0.5046,0.7136,0.0,0.0,1.2598,1.3016,1.4419,1.4862,1.5059,1.5357,1.5716,1.6069,1.6368,1.4209,1.2156,1.1095,0.7237,0.3976,0.251,0.0943,0.0,0.0,0.0,0.0,0.0,0.1372,0.159,0.0057,0.1407,0.1576,0.0057,0.0,0.0,0.0,0.0,0.0,0.0054,0.2862,0.4929,0.6425,0.9281,1.2136,1.4844,1.4844,1.5645,1.6978,1.6978,1.6978,1.6978,1.6978,1.6978,1.6978,1.6978,1.6978,1.6978,1.6978,1.6978,1.6978,1.6978,1.6978,1.6978,1.6978,1.6978,1.6978,1.6978,1.6978,1.6978,1.6978,1.6978,1.6978,1.6978,1.6978,1.6978,1.6978,1.6978,1.6978,1.6978,1.6978,1.6551,1.5113,1.251,0.9651,0.6793,0.3933,0.1597,0.016,0.0,0.0533,0.1969,0.335,0.4782,0.6213,0.7693,0.8487,0.8487,0.9809,0.9968,0.854,0.9862,0.9968,0.854,0.8487,0.8487,0.8487,1.1345,1.3464,1.4896,1.6341,1.6978,0.0,0.1421,0.301,0.349,0.5041,0.7091,0.0,0.0,0.0,1.3426,1.412,1.4395,1.4979,1.5486,1.586,1.609,1.3944,1.1521,0.9454,0.6876,0.3886,0.0404,0.0,0.0,0.0,0.0,0.0,0.0,0.2247,0.2582,0.0114,0.2309,0.2531,0.0057,0.0,0.0,0.0,0.0,0.0,0.0054,0.3442,0.6255,0.8593,1.1978,1.4791,1.6978,1.6978,1.6978,1.6978,1.6978,1.6978,1.6985,1.7012,1.7019,1.7019,1.7019,1.7019,1.7019,1.6992,1.6978,1.6978,1.6978,1.6978,1.6978,1.6978,1.6978,1.6978,1.6978,1.6978,1.6978,1.6978,1.6978,1.6978,1.6978,1.6978,1.6978,1.6978,1.6978,1.6978,1.6978,1.6551,1.5435,1.309,1.0338,0.7535,0.4623,0.1809,0.0,0.0,0.0,0.0,0.0,0.2022,0.3403,0.3403,0.5523,0.6846,0.6846,0.7376,0.7429,0.6899,0.6846,0.6846,0.6846,0.6846,0.6846,0.6846,0.7429,0.9122,1.1978,1.4844,1.6177,0.0,0.0222,0.0939,0.3078,0.3778,0.4616,0.6994,0.0,0.8257,1.0801,0.0,1.2037,1.4323,0.0,0.0,1.5486,1.3438,1.1837,1.1704,0.9337,0.5692,0.0617,0.0,0.0,0.0,0.0,0.0,0.0,0.0336,0.0335,0.0,0.0338,0.0338,0.0,0.0,0.0,0.0,0.0,0.0,0.0054,0.5445,0.8176,0.8699,1.4049,1.6715,1.6978,1.6978,1.6978,1.6978,1.6978,1.6978,1.6992,1.7121,1.7168,1.7168,1.7168,1.7168,1.7148,1.7026,1.6978,1.6978,1.6978,1.6978,1.6978,1.6978,1.6978,1.6978,1.6978,1.6978,1.6978,1.6978,1.6978,1.6978,1.6978,1.6978,1.6978,1.6978,1.6978,1.6978,1.6978,1.4949,1.309,1.2769,1.0338,0.7535,0.4623,0.1809,0.0,0.0,0.0,0.0,0.0,0.0266,0.0479,0.0479,0.0799,0.0958,0.0958,0.3296,0.3562,0.1065,0.0958,0.0958,0.0958,0.0958,0.0958,0.0958,0.3456,0.616,0.9069,1.1873,1.3195,0.0,0.0,0.0224,0.1246,0.1529,0.2133,0.4527,0.5069,0.5758,0.818,0.0,0.0,0.0,0.0,0.0,0.0,1.4851,1.3803,1.2405,1.1134,0.8355,0.2977,0.2341,0.1696,0.0166,0.0,0.0,0.0,0.0,0.0,0.0,0.0,0.0,0.0,0.0,0.0,0.0,0.0,0.0,0.0054,0.5798,0.8487,0.8699,1.4423,1.6978,1.6978,1.6978,1.6978,1.6978,1.6978,1.6978,1.6992,1.7141,1.7141,1.7066,1.7066,1.7066,1.706,1.7005,1.6978,1.6978,1.6978,1.6978,1.6978,1.6978,1.6978,1.6978,1.6978,1.6978,1.6978,1.6978,1.6978,1.6978,1.6978,1.6978,1.6978,1.6978,1.6978,1.6499,1.4844,1.3517,1.1657,0.8329,0.6793,0.5046,0.2182,0.0746,0.0,0.0,0.0,0.0,0.0,0.0,0.0,0.0,0.0,0.0,0.0,0.1118,0.1225,0.0053,0.0,0.0,0.0,0.0,0.0,0.0,0.1171,0.2394,0.3667,0.8167,1.0285,0.0,0.0,0.0,0.0,0.0,0.0454,0.22,0.2616,0.3304,0.5662,0.6274,0.0,0.0,0.0,1.2564,1.5167,0.0,1.5386,1.3554,1.3218,1.1147,0.5723,0.4467,0.3274,0.1356,0.0428,0.0,0.0,0.0,0.0,0.0,0.0,0.0,0.0,0.0,0.0,0.0,0.0,0.0,0.0053,0.5793,0.8487,0.8699,1.4423,1.6978,1.6978,1.6978,1.6978,1.6978,1.6978,1.6978,1.6992,1.7093,1.7093,1.7039,1.7039,1.7039,1.7032,1.6992,1.6978,1.6978,1.6978,1.6978,1.6978,1.6978,1.6978,1.6978,1.6978,1.6978,1.6978,1.6978,1.6978,1.6978,1.6978,1.6978,1.6978,1.6978,1.6394,1.5218,1.309,1.1446,0.9066,0.4888,0.42,0.3245,0.0426,0.0,0.0,0.0,0.0,0.0,0.0,0.0,0.0,0.0,0.0,0.0,0.0,0.0,0.0,0.0,0.0,0.0,0.0,0.0,0.0,0.0,0.0,0.0,0.0107,0.5046,0.7323,0.0,0.0,0.0,0.0,0.0,0.0,0.009,0.0138,0.0793,0.3195,0.3721,0.5249,1.0292,1.1309,1.2327,1.5153,1.5764,0.0,0.0,1.5768,1.3819,0.8503,0.5582,0.4003,0.404,0.1626,0.0,0.0,0.0,0.0,0.0,0.0,0.0,0.0,0.0,0.0,0.0,0.0,0.0,0.0054,0.5758,0.8487,0.8699,1.4423,1.6978,1.6978,1.6978,1.6978,1.6978,1.6978,1.6978,1.6978,1.6985,1.7066,1.7182,1.7182,1.7182,1.7168,1.7026,1.6978,1.6978,1.6978,1.6978,1.6978,1.6978,1.6978,1.6978,1.6978,1.6978,1.6978,1.6978,1.6978,1.6978,1.6978,1.6978,1.6978,1.6978,1.4791,1.2821,1.2716,0.8223,0.441,0.4253,0.42,0.3245,0.0426,0.0,0.0,0.0,0.0,0.0,0.0,0.0,0.0,0.0,0.0,0.0,0.0,0.0,0.0,0.0,0.0,0.0,0.0,0.0,0.0,0.0,0.0,0.0,0.0053,0.2979,0.4359,0.0,0.0,0.0,0.0,0.0,0.0,0.0,0.0,0.0232,0.1051,0.1207,0.2209,0.5572,0.6374,0.7923,1.2272,1.3205,1.3964,0.0,1.5901,1.4595,1.1129,0.6682,0.392,0.403,0.159,0.0,0.0,0.0,0.0,0.0,0.0,0.0,0.0,0.0,0.0,0.0,0.0,0.0,0.0054,0.5795,0.8487,0.8699,1.4423,1.6978,1.6985,1.708,1.7066,1.6998,1.7188,1.7154,1.6992,1.7087,1.7093,1.7053,1.7053,1.7175,1.7324,1.7175,1.706,1.6978,1.6978,1.6978,1.6978,1.6978,1.6978,1.6978,1.6978,1.6978,1.6978,1.6978,1.6978,1.6978,1.6978,1.6978,1.6978,1.6978,1.4739,1.2136,1.0285,0.6846,0.3615,0.1756,0.1437,0.1118,0.016,0.1597,0.2766,0.2766,0.2766,0.2766,0.2766,0.1118,0.0,0.0,0.0,0.0,0.0,0.0,0.0,0.0,0.0,0.0,0.0,0.0,0.0,0.0,0.0,0.0,0.0,0.0958,0.1437,0.0,0.0,0.0,0.0,0.0,0.0,0.0,0.0,0.0,0.0,0.0,0.0761,0.3286,0.3897,0.5384,0.962,1.0496,1.1197,0.0,1.297,1.2346,1.0775,0.7439,0.4986,0.4128,0.1623,0.0,0.0,0.0,0.0,0.0,0.0,0.0,0.0,0.0,0.0,0.0,0.0,0.0,0.0054,0.4735,0.7535,0.8646,1.3359,1.6019,1.6985,1.708,1.7066,1.6992,1.7188,1.7154,1.6992,1.708,1.7093,1.7053,1.6998,1.71,1.7249,1.7154,1.706,1.6978,1.6978,1.6978,1.6978,1.6978,1.6978,1.6978,1.6978,1.6978,1.6978,1.6978,1.6978,1.6978,1.6978,1.6229,1.5487,1.5487,1.2405,0.9122,0.7323,0.4676,0.2129,0.032,0.0,0.0,0.0,0.1544,0.2713,0.2713,0.3562,0.3828,0.2819,0.1969,0.1065,0.0107,0.0,0.0,0.0,0.0,0.0,0.0,0.0,0.0,0.0,0.0,0.0,0.0,0.0,0.0,0.0,0.0,0.0]},{"header":{"parameterUnit":"m.s-1","parameterCategory":1,"la1":30.6,"la2":29.2853,"lo1":-89.7004,"lo2":-87.6739,"dy":0.0162,"dx":0.0183,"nx":112,"ny":82,"refTime":"2024-06-20T06:00:00:Z","depth":0,"parameterNumber":3,"parameterNumberName":"V-component_of_WINDS"},"data":[0.0,0.0,0.0,0.0,0.0,0.0,0.0,0.0,0.0,0.0,0.0,0.0,0.0,0.0,0.0,0.0,0.0,0.0,0.0,0.0,0.0,0.0,0.0,0.0,0.0,0.0,0.0,0.0,0.0,0.0,0.0,0.0,0.0,0.0,0.0,0.0,0.0,0.0,0.0,0.0,0.0,0.0,0.0,0.0,0.0,0.0,0.0,0.0,0.0,0.0,0.0,0.0,0.0,0.0,0.0,0.0,0.0,0.0,0.0,0.0,0.0,0.0,0.0,0.0,0.0,0.0,0.0,0.0,0.0,0.0,0.0,0.0,0.0,0.0,0.0,0.0,0.0,0.0,0.0,0.0,0.0,0.0,0.0,0.0,0.0,0.0,0.0,0.0,0.0,0.0,5.2148,5.1641,5.1601,5.1562,5.1406,5.1406,5.0664,4.9023,0.0,0.0,0.0,0.0,0.0,0.0,0.0,0.0,0.0,0.0,0.0,0.0,0.0,0.0,0.0,0.0,0.0,0.0,0.0,0.0,0.0,0.0,0.0,0.0,0.0,0.0,0.0,0.0,0.0,0.0,0.0,0.0,0.0,0.0,0.0,0.0,0.0,0.0,0.0,0.0,0.0,0.0,0.0,0.0,0.0,0.0,0.0,0.0,0.0,0.0,0.0,0.0,0.0,0.0,0.0,0.0,0.0,0.0,0.0,0.0,0.0,0.0,0.0,0.0,0.0,0.0,0.0,0.0,0.0,0.0,0.0,0.0,0.0,0.0,0.0,0.0,0.0,0.0,0.0,0.0,0.0,0.0,0.0,0.0,0.0,0.0,0.0,0.0,0.0,0.0,0.0,0.0,0.0,0.0,0.0,0.0,0.0,0.0,0.0,0.0,0.0,0.0,0.0,0.0,5.1055,5.2344,5.25,5.2187,5.1445,5.1406,5.0664,4.9023,0.0,0.0,0.0,0.0,0.0,0.0,0.0,0.0,0.0,0.0,0.0,0.0,0.0,0.0,0.0,0.0,0.0,0.0,0.0,0.0,0.0,0.0,0.0,0.0,0.0,0.0,0.0,0.0,0.0,0.0,0.0,0.0,0.0,0.0,0.0,0.0,0.0,0.0,0.0,0.0,0.0,0.0,0.0,0.0,0.0,0.0,0.0,0.0,0.0,0.0,0.0,0.0,0.0,0.0,0.0,0.0,0.0,0.0,0.0,0.0,0.0,0.0,0.0,0.0,0.0,0.0,0.0,0.0,0.0,0.0,0.0,0.0,0.0,0.0,0.0,0.0,0.0,0.0,0.0,0.0,0.0,0.0,0.0,0.0,0.0,0.0,0.0,0.0,0.0,0.0,0.0,0.0,0.0,0.0,0.0,0.0,0.0,0.0,0.0,0.0,0.0,0.0,0.0,5.1445,5.1523,5.3203,5.2969,5.2344,5.1484,5.1406,5.0663,4.8895,4.8777,0.0,0.0,0.0,0.0,0.0,0.0,0.0,0.0,0.0,0.0,0.0,0.0,0.0,0.0,0.0,0.0,0.0,0.0,0.0,0.0,0.0,0.0,0.0,0.0,0.0,0.0,0.0,0.0,0.0,0.0,0.0,0.0,0.0,0.0,0.0,0.0,0.0,0.0,0.0,0.0,0.0,0.0,0.0,0.0,0.0,0.0,0.0,0.0,0.0,0.0,0.0,0.0,0.0,0.0,0.0,0.0,0.0,0.0,0.0,0.0,0.0,0.0,0.0,0.0,0.0,0.0,0.0,0.0,0.0,0.0,0.0,0.0,0.0,0.0,0.0,0.0,0.0,0.0,0.0,0.0,0.0,0.0,0.0,0.0,0.0,0.0,0.0,0.0,0.0,0.0,0.0,0.0,0.0,0.0,0.0,0.0,0.0,0.0,0.0,0.0,0.0,0.0,5.293,5.2969,5.3906,5.3398,5.2578,5.1484,5.121,5.0382,4.8789,4.8446,0.0,0.0,0.0,0.0,0.0,0.0,0.0,0.0,0.0,0.0,0.0,0.0,0.0,0.0,0.0,0.0,0.0,0.0,0.0,0.0,0.0,0.0,0.0,0.0,0.0,0.0,0.0,0.0,0.0,0.0,0.0,0.0,0.0,0.0,0.0,0.0,0.0,0.0,0.0,0.0,0.0,0.0,0.0,0.0,0.0,0.0,0.0,0.0,0.0,0.0,0.0,0.0,0.0,0.0,0.0,0.0,0.0,0.0,0.0,0.0,0.0,0.0,0.0,0.0,0.0,0.0,0.0,0.0,0.0,0.0,0.0,0.0,0.0,0.0,0.0,0.0,0.0,0.0,0.0,0.0,0.0,0.0,0.0,0.0,0.0,0.0,0.0,0.0,0.0,0.0,0.0,0.0,0.0,0.0,0.0,0.0,0.0,0.0,0.0,0.0,0.0,0.0,5.4297,5.5664,5.4141,5.3945,5.3242,5.1523,5.0612,4.969,4.8748,4.7772,0.0,0.0,0.0,0.0,0.0,0.0,0.0,0.0,0.0,0.0,0.0,0.0,0.0,0.0,0.0,0.0,0.0,0.0,0.0,0.0,0.0,0.0,0.0,0.0,0.0,0.0,0.0,0.0,0.0,0.0,0.0,0.0,0.0,0.0,0.0,0.0,0.0,0.0,0.0,0.0,0.0,0.0,0.0,0.0,0.0,0.0,0.0,0.0,0.0,0.0,0.0,0.0,0.0,0.0,0.0,0.0,0.0,0.0,0.0,0.0,0.0,0.0,0.0,0.0,0.0,0.0,0.0,0.0,0.0,0.0,0.0,0.0,0.0,0.0,0.0,0.0,0.0,0.0,0.0,0.0,0.0,0.0,0.0,0.0,0.0,0.0,0.0,0.0,0.0,0.0,0.0,0.0,0.0,0.0,0.0,0.0,0.0,0.0,0.0,0.0,0.0,0.0,5.3418,5.4822,5.4704,5.4196,5.3375,5.2203,5.1356,5.0212,4.8688,0.0,0.0,0.0,0.0,0.0,0.0,0.0,0.0,0.0,0.0,0.0,0.0,0.0,0.0,0.0,0.0,0.0,0.0,0.0,0.0,0.0,0.0,0.0,0.0,0.0,0.0,0.0,0.0,0.0,0.0,0.0,0.0,0.0,0.0,0.0,0.0,0.0,0.0,0.0,0.0,0.0,0.0,0.0,0.0,0.0,0.0,0.0,0.0,0.0,0.0,0.0,0.0,0.0,0.0,0.0,0.0,0.0,0.0,0.0,0.0,0.0,0.0,0.0,0.0,0.0,0.0,0.0,0.0,0.0,0.0,0.0,0.0,0.0,0.0,0.0,0.0,0.0,0.0,0.0,0.0,0.0,0.0,0.0,0.0,0.0,0.0,0.0,0.0,0.0,0.0,0.0,0.0,0.0,0.0,0.0,0.0,0.0,0.0,0.0,0.0,0.0,0.0,5.1102,5.3192,5.4669,5.4981,5.4511,5.369,5.2519,5.1695,5.0426,4.8569,0.0,0.0,0.0,0.0,0.0,0.0,0.0,0.0,0.0,0.0,0.0,0.0,0.0,0.0,0.0,0.0,0.0,0.0,0.0,0.0,0.0,0.0,0.0,0.0,0.0,0.0,0.0,0.0,0.0,0.0,0.0,0.0,0.0,0.0,0.0,0.0,0.0,0.0,0.0,0.0,0.0,0.0,0.0,0.0,0.0,0.0,0.0,0.0,0.0,0.0,0.0,0.0,0.0,0.0,0.0,0.0,0.0,0.0,0.0,0.0,0.0,0.0,0.0,0.0,0.0,0.0,0.0,0.0,0.0,0.0,0.0,0.0,0.0,0.0,0.0,0.0,0.0,0.0,0.0,0.0,0.0,0.0,0.0,0.0,0.0,0.0,0.0,0.0,0.0,0.0,0.0,0.0,0.0,0.0,0.0,0.0,0.0,0.0,0.0,0.0,0.0,0.0,5.1089,5.4088,5.5877,5.5013,5.4897,5.4196,5.2482,5.1457,5.0157,0.0,0.0,0.0,0.0,0.0,0.0,0.0,0.0,0.0,0.0,0.0,0.0,0.0,0.0,0.0,0.0,0.0,0.0,0.0,0.0,0.0,0.0,0.0,0.0,0.0,0.0,0.0,0.0,0.0,0.0,0.0,0.0,0.0,0.0,0.0,0.0,0.0,0.0,0.0,0.0,0.0,0.0,0.0,0.0,0.0,0.0,0.0,0.0,0.0,0.0,0.0,0.0,0.0,0.0,0.0,0.0,0.0,0.0,0.0,0.0,0.0,0.0,0.0,0.0,0.0,0.0,0.0,0.0,0.0,0.0,0.0,0.0,0.0,0.0,0.0,0.0,0.0,0.0,0.0,0.0,0.0,0.0,0.0,0.0,0.0,0.0,0.0,0.0,0.0,0.0,0.0,0.0,0.0,0.0,0.0,0.0,0.0,0.0,0.0,0.0,0.0,0.0,0.0,5.0962,5.3885,5.5892,5.5616,5.5105,5.4558,5.4051,5.2689,5.1136,4.9315,0.0,0.0,0.0,0.0,0.0,0.0,0.0,0.0,0.0,0.0,0.0,0.0,0.0,0.0,0.0,0.0,0.0,0.0,0.0,0.0,0.0,0.0,0.0,0.0,0.0,0.0,0.0,0.0,0.0,0.0,0.0,0.0,0.0,0.0,0.0,0.0,0.0,0.0,0.0,0.0,0.0,0.0,0.0,0.0,0.0,0.0,0.0,0.0,0.0,0.0,0.0,0.0,0.0,0.0,0.0,0.0,0.0,0.0,0.0,0.0,0.0,0.0,0.0,0.0,0.0,0.0,0.0,0.0,0.0,0.0,0.0,0.0,0.0,0.0,0.0,0.0,0.0,0.0,0.0,0.0,0.0,0.0,0.0,0.0,0.0,0.0,0.0,0.0,0.0,0.0,0.0,0.0,0.0,0.0,0.0,0.0,0.0,0.0,0.0,0.0,0.0,0.0,5.1257,5.3937,5.5937,5.6284,5.558,5.4957,5.4648,5.3727,5.2128,4.9695,0.0,0.0,0.0,0.0,0.0,0.0,0.0,0.0,0.0,0.0,0.0,0.0,0.0,0.0,0.0,0.0,0.0,0.0,0.0,0.0,0.0,0.0,0.0,0.0,0.0,0.0,0.0,0.0,0.0,0.0,0.0,0.0,0.0,0.0,0.0,0.0,0.0,0.0,0.0,0.0,0.0,0.0,0.0,0.0,0.0,0.0,0.0,0.0,0.0,0.0,0.0,0.0,0.0,0.0,0.0,0.0,0.0,0.0,0.0,0.0,0.0,0.0,0.0,0.0,0.0,0.0,0.0,0.0,0.0,0.0,0.0,0.0,0.0,0.0,0.0,0.0,0.0,0.0,0.0,0.0,0.0,0.0,0.0,0.0,0.0,0.0,0.0,0.0,0.0,0.0,0.0,0.0,0.0,0.0,0.0,0.0,0.0,0.0,0.0,0.0,0.0,0.0,5.1928,5.4318,5.6247,5.7055,5.6324,5.5516,5.478,5.4587,5.3126,4.9856,0.0,0.0,0.0,0.0,0.0,0.0,0.0,0.0,0.0,0.0,0.0,0.0,0.0,0.0,0.0,0.0,0.0,0.0,0.0,0.0,0.0,0.0,0.0,0.0,0.0,0.0,0.0,0.0,0.0,0.0,0.0,0.0,0.0,0.0,0.0,0.0,0.0,0.0,0.0,0.0,0.0,0.0,0.0,0.0,0.0,0.0,0.0,0.0,0.0,0.0,0.0,0.0,0.0,0.0,0.0,0.0,0.0,0.0,0.0,0.0,5.5907,5.4656,0.0,0.0,0.0,0.0,0.0,0.0,0.0,0.0,0.0,0.0,0.0,0.0,0.0,0.0,0.0,0.0,0.0,0.0,0.0,0.0,0.0,0.0,0.0,0.0,0.0,0.0,0.0,0.0,0.0,0.0,0.0,0.0,0.0,0.0,0.0,0.0,0.0,0.0,0.0,0.0,5.2813,5.5736,5.7819,5.8011,5.7247,5.6632,5.6478,5.5247,5.3587,5.1505,5.0125,0.0,0.0,0.0,0.0,0.0,0.0,0.0,0.0,0.0,0.0,0.0,0.0,0.0,0.0,0.0,0.0,0.0,0.0,0.0,0.0,0.0,0.0,0.0,0.0,0.0,0.0,0.0,0.0,0.0,0.0,0.0,0.0,0.0,0.0,0.0,0.0,0.0,0.0,0.0,0.0,0.0,0.0,0.0,0.0,0.0,0.0,0.0,0.0,0.0,0.0,0.0,0.0,0.0,0.0,0.0,0.0,0.0,0.0,0.0,5.8173,5.686,0.0,0.0,0.0,0.0,0.0,0.0,0.0,0.0,0.0,0.0,0.0,0.0,0.0,0.0,0.0,0.0,0.0,0.0,0.0,0.0,0.0,0.0,0.0,0.0,0.0,0.0,0.0,0.0,0.0,0.0,0.0,0.0,0.0,0.0,0.0,0.0,0.0,0.0,0.0,0.0,5.4241,5.6665,5.8434,5.8858,5.8127,5.7632,5.7632,5.6819,5.5434,5.3274,5.2318,0.0,0.0,0.0,0.0,0.0,0.0,0.0,0.0,0.0,0.0,0.0,0.0,0.0,0.0,0.0,0.0,0.0,0.0,0.0,0.0,0.0,0.0,0.0,0.0,0.0,0.0,0.0,0.0,0.0,0.0,0.0,0.0,0.0,0.0,0.0,0.0,0.0,0.0,0.0,0.0,0.0,0.0,0.0,0.0,0.0,0.0,0.0,0.0,0.0,0.0,0.0,0.0,0.0,6.36,6.3637,6.3637,6.3637,6.3637,6.3515,6.1192,6.0146,5.9992,5.953,0.0,0.0,0.0,0.0,0.0,0.0,0.0,0.0,0.0,0.0,0.0,0.0,0.0,0.0,0.0,0.0,0.0,0.0,0.0,0.0,0.0,0.0,5.8588,5.717,5.7934,5.7934,5.4236,0.0,0.0,0.0,0.0,0.0,0.0,0.0,0.0,0.0,0.0,0.0,5.5934,5.7665,5.8973,5.9665,5.9011,5.8511,5.8511,5.8396,5.7357,5.5093,5.478,5.3318,0.0,0.0,0.0,0.0,0.0,0.0,0.0,0.0,0.0,0.0,0.0,0.0,0.0,0.0,0.0,0.0,0.0,0.0,0.0,0.0,0.0,0.0,0.0,0.0,0.0,0.0,0.0,0.0,0.0,0.0,0.0,0.0,6.1749,6.2545,0.0,0.0,0.0,0.0,0.0,0.0,0.0,0.0,0.0,0.0,0.0,0.0,0.0,6.517,6.4824,6.5595,6.5999,6.6035,6.6709,6.704,6.704,6.704,6.704,6.704,6.6678,0.0,6.2876,6.1817,0.0,0.0,0.0,0.0,0.0,0.0,0.0,0.0,0.0,0.0,0.0,0.0,0.0,0.0,0.0,0.0,0.0,0.0,0.0,0.0,0.0,0.0,6.1556,6.1325,6.1441,6.1248,5.9896,5.6819,5.4241,5.3895,5.2697,5.1659,0.0,0.0,0.0,0.0,0.0,0.0,5.7742,5.9435,6.0517,6.0633,5.9858,5.9358,5.9358,5.8698,5.7819,5.6747,5.5978,5.4703,5.2779,5.1207,0.0,0.0,0.0,0.0,0.0,0.0,0.0,0.0,0.0,0.0,0.0,0.0,0.0,0.0,0.0,0.0,0.0,0.0,0.0,0.0,0.0,0.0,0.0,0.0,0.0,0.0,0.0,0.0,0.0,6.2672,6.4365,6.4705,6.5166,6.4929,0.0,0.0,0.0,0.0,0.0,0.0,0.0,0.0,0.0,6.8138,6.8993,6.9353,6.9186,7.0001,7.0225,6.9889,7.022,7.0403,7.0403,7.0403,7.0578,7.0891,7.042,6.9716,6.8672,6.577,6.47,6.4696,0.0,0.0,0.0,0.0,6.2631,6.2065,6.2835,6.2858,6.2426,6.1415,0.0,0.0,0.0,0.0,0.0,0.0,0.0,6.0289,6.1565,6.2495,6.3072,6.3072,6.3072,6.2956,6.2573,6.0957,5.8877,5.64,5.5665,5.5044,5.3621,5.3433,0.0,0.0,0.0,5.7588,5.8819,6.005,6.0787,6.0787,6.0473,6.0242,6.0242,5.9896,5.9319,5.8478,5.805,5.7088,5.5401,5.417,5.2472,0.0,0.0,0.0,0.0,0.0,0.0,0.0,0.0,0.0,0.0,0.0,0.0,0.0,0.0,0.0,0.0,0.0,0.0,0.0,0.0,0.0,0.0,0.0,0.0,0.0,0.0,0.0,0.0,6.5782,6.6859,6.6859,6.7975,6.8112,0.0,0.0,0.0,0.0,0.0,0.0,6.9894,7.0939,7.1683,7.2139,7.2991,7.3414,7.3362,7.3986,7.4051,7.3613,7.3613,7.3613,7.3613,7.3613,7.3844,7.4248,7.3625,7.3521,7.3424,6.9436,6.7371,6.67,6.6421,6.5671,6.4836,6.5647,6.5468,6.4959,6.5978,6.635,6.6118,6.4507,6.3712,6.2816,6.0008,0.0,0.0,0.0,0.0,6.2243,6.3486,6.3989,6.4145,6.4145,6.4145,6.4145,6.4145,6.3881,6.2659,5.9315,5.8996,5.8588,5.6472,5.6434,0.0,5.6665,5.778,5.8896,5.9742,6.0396,6.0787,6.0787,6.0787,6.0787,6.0787,6.0787,6.0512,5.9858,5.9819,5.9165,5.7709,5.6824,5.5241,5.2928,0.0,0.0,0.0,0.0,0.0,0.0,0.0,0.0,0.0,0.0,0.0,0.0,0.0,0.0,0.0,0.0,0.0,0.0,0.0,0.0,0.0,0.0,0.0,0.0,0.0,0.0,0.0,0.0,0.0,6.9513,7.1661,0.0,0.0,0.0,0.0,7.1835,7.2988,7.3866,7.4365,7.6009,7.6675,7.612,7.695,7.7138,7.659,7.6617,7.6606,7.6572,7.6572,7.6572,7.6572,7.6572,7.6595,7.6617,7.6579,7.6137,7.5118,7.179,7.0223,6.9735,6.8145,6.7277,6.6885,6.6281,6.6569,6.7256,6.7528,6.7593,6.7713,6.8378,6.7489,6.5867,6.4129,6.3587,0.0,0.0,6.3064,6.3678,6.3795,6.4414,6.5034,6.5034,6.5034,6.5034,6.5034,6.4369,6.3693,6.3322,6.2529,6.1595,6.0633,0.0,5.9319,5.9319,5.9396,5.9742,6.0633,6.0781,6.0787,6.0787,6.0787,6.0787,6.0787,6.0787,6.0787,6.0748,6.0748,6.0319,5.9396,5.8583,5.7319,5.5555,5.33,0.0,0.0,0.0,0.0,0.0,0.0,0.0,0.0,0.0,0.0,0.0,0.0,0.0,0.0,0.0,0.0,0.0,0.0,0.0,0.0,0.0,0.0,0.0,0.0,0.0,0.0,0.0,0.0,7.4052,7.5915,0.0,7.4324,7.5032,7.5597,7.5666,7.7055,7.8206,7.8792,8.0439,8.1268,8.1035,8.1342,8.1199,8.0618,8.0037,7.9811,7.9935,7.8855,7.8629,7.918,7.8591,7.8566,7.8876,7.8382,7.8189,7.8091,7.5972,7.4165,7.2647,7.1871,7.1242,7.0801,7.107,7.0705,7.0133,7.0777,7.06,7.011,6.9972,6.8837,6.7434,6.685,6.6264,6.5873,6.6147,6.6418,6.6769,6.7277,6.7628,6.7861,6.7861,6.79,6.7939,6.7939,6.7592,6.7264,6.7219,6.4951,6.2753,6.1784,6.182,6.1775,6.1248,6.1627,6.2044,6.2352,6.2397,6.2397,6.2397,6.1935,6.1633,6.1633,6.1133,6.0787,6.0787,6.0787,6.0666,6.0358,6.005,5.9127,5.7396,5.6111,5.4053,0.0,0.0,0.0,0.0,0.0,0.0,0.0,0.0,0.0,0.0,0.0,0.0,0.0,0.0,0.0,0.0,0.0,0.0,0.0,0.0,0.0,0.0,0.0,0.0,0.0,7.4903,7.6844,7.7396,7.9534,8.0235,7.8486,7.9382,7.9983,7.9859,8.0883,8.1841,8.2561,8.3631,8.4228,8.4139,8.4132,8.3779,8.3007,8.2424,8.2216,8.2329,8.1216,8.0988,8.1531,8.0646,8.0447,8.0798,7.9995,7.9755,7.985,7.8834,7.7462,7.5823,7.4747,7.3833,7.3266,7.3862,7.3414,7.2487,7.2837,7.2576,7.2002,7.1244,7.0304,6.9414,6.914,6.8633,6.8242,6.8555,6.8633,6.8711,6.9258,6.9414,6.9414,6.9414,6.9414,6.9453,6.9492,6.9367,6.9264,6.9203,6.6933,6.4688,6.3715,6.3752,6.3626,6.2786,6.3129,6.3472,6.3472,6.3472,6.3472,6.3472,6.2974,6.267,6.267,6.1811,6.1444,6.1714,6.1208,6.0971,6.1216,6.0999,6.0311,5.9165,5.7889,5.6028,5.3497,0.0,0.0,0.0,0.0,0.0,0.0,0.0,0.0,0.0,0.0,0.0,0.0,0.0,0.0,0.0,0.0,0.0,0.0,0.0,0.0,0.0,0.0,0.0,7.5476,7.7679,7.9321,7.936,8.2309,8.3711,8.2047,8.3399,8.4404,8.44,8.4396,8.4786,8.5525,8.5603,8.5542,8.5345,8.5334,8.4824,8.3803,8.3756,8.3756,8.3795,8.3702,8.3671,8.3679,8.2778,8.2355,8.2332,8.1516,8.081,8.019,8.0118,7.9838,7.9176,7.6475,7.4895,7.4146,7.4357,7.4392,7.4247,7.359,7.3359,7.3203,7.2344,7.207,7.1914,7.1055,7.0781,7.0625,6.9805,6.9531,6.9492,6.9492,6.9531,6.957,6.9492,6.9492,6.9492,6.957,6.9531,6.9451,6.9292,6.8495,6.7502,6.6639,6.5777,6.4878,6.4067,6.3911,0.0,6.3911,6.395,6.395,6.395,6.395,6.3911,6.3911,6.2975,6.2732,6.3576,6.2022,6.137,6.2103,6.1428,6.0978,6.086,5.8669,5.7112,5.6327,0.0,0.0,0.0,0.0,0.0,0.0,0.0,0.0,0.0,0.0,0.0,0.0,0.0,0.0,0.0,0.0,0.0,0.0,0.0,0.0,0.0,7.7235,7.9113,7.8458,8.0149,8.1933,8.3184,8.4705,8.5721,8.5879,8.6345,8.652,8.6332,8.6907,8.7328,8.7398,8.797,8.8291,8.8263,8.8263,8.8114,8.78,8.7184,8.7184,8.7762,8.5757,8.5182,8.5849,8.4228,8.3555,8.3684,8.2864,8.2354,8.212,8.1013,8.0446,8.0193,7.88,7.7863,7.7287,7.7336,7.6558,7.5347,7.4531,7.4258,7.4219,7.3945,7.3906,7.3711,7.2851,7.2578,7.2422,7.1562,7.1289,7.1289,7.1289,7.1289,7.1328,7.1289,7.1289,7.1289,7.1328,7.1289,7.1289,7.1246,7.0497,6.9526,6.8391,6.7528,6.6902,6.6672,6.6633,6.6633,6.6633,6.7142,6.7495,6.7495,6.6992,6.6645,6.6645,6.5204,6.4435,6.4665,6.31,6.2528,6.3297,6.2564,6.2136,6.2125,6.087,5.9794,0.0,0.0,0.0,0.0,0.0,0.0,0.0,0.0,0.0,0.0,0.0,0.0,0.0,0.0,0.0,0.0,0.0,0.0,0.0,0.0,0.0,0.0,8.0176,8.2051,8.2285,8.3551,8.4844,8.5859,8.707,8.8008,8.8515,8.8471,8.8508,8.8671,8.9099,8.9567,9.0153,9.066,9.0957,9.0998,9.0993,9.0821,9.0465,8.9566,8.941,8.9873,8.791,8.7293,8.7841,8.5952,8.5189,8.528,8.4073,8.3375,8.3058,8.216,8.1625,8.1262,0.0,0.0,0.0,0.0,7.8164,7.6875,7.5976,7.5469,7.5078,7.4726,7.4609,7.4492,7.3984,7.3828,7.375,7.3242,7.3086,7.3086,7.3086,7.3086,7.3086,7.3086,7.3086,7.3086,7.3086,7.2812,7.2539,7.2539,7.1836,0.0,7.0327,6.9215,6.8433,6.8433,6.8394,6.8433,6.8433,6.8823,6.9098,6.9098,6.871,6.8438,6.8438,6.7114,0.0,0.0,0.0,6.4313,6.4469,6.3945,0.0,0.0,0.0,0.0,0.0,0.0,0.0,0.0,6.3452,6.4338,0.0,0.0,0.0,0.0,0.0,0.0,0.0,0.0,0.0,0.0,0.0,0.0,0.0,0.0,0.0,0.0,8.2969,8.4765,8.6406,8.7421,8.8007,8.7929,8.9336,9.0351,9.0546,9.0275,9.0449,9.1249,9.1143,9.1688,9.3167,9.3244,0.0,0.0,0.0,9.2964,9.2204,9.1418,9.1028,9.1028,9.0187,8.9755,8.9615,8.7962,8.7105,8.6845,8.5253,8.4191,8.3522,8.3326,8.2844,8.2067,8.0468,7.9844,7.9844,7.9726,7.9258,7.8515,7.7734,0.0,0.0,7.5312,7.5039,7.5,7.4805,7.4765,7.4726,7.4648,7.4609,7.4609,7.4609,7.4609,7.4609,7.4609,7.4609,7.4609,7.4609,7.3984,7.3437,7.3437,7.2812,7.2265,7.2148,7.0742,6.9609,6.957,6.9531,6.957,6.9648,6.9687,6.9687,6.9687,6.9765,0.0,6.9765,6.8812,6.855,6.9327,6.7846,6.6558,6.5737,6.5624,6.5528,6.545,6.5702,6.6558,6.7926,6.8316,6.8945,6.9687,6.6389,6.6586,0.0,0.0,0.0,0.0,0.0,0.0,0.0,0.0,0.0,0.0,0.0,0.0,0.0,0.0,0.0,8.3984,8.6133,8.8086,8.9101,9.0447,9.1097,9.0624,9.1484,9.2573,9.3774,9.3201,9.3023,9.3686,9.3709,9.3798,9.4148,9.4148,9.415,9.4158,9.4158,9.4078,9.3908,9.3752,9.3674,9.3635,9.2637,0.0,9.1379,9.0181,8.8967,8.7796,8.6777,8.5824,8.4983,8.3621,8.2554,8.1738,8.1041,8.0742,8.0664,7.9961,7.9609,7.9453,7.9258,7.9101,7.8828,7.8008,7.7734,7.7461,7.6055,7.5664,0.0,7.4805,7.4609,7.4609,7.4609,7.4609,7.4609,7.4609,7.4609,7.4609,7.4609,7.4453,7.4336,7.4336,7.4219,7.3867,7.3164,7.1601,7.0469,7.0469,7.0469,7.0469,7.0469,7.1055,7.1484,7.1484,7.1523,7.1523,7.1523,7.0663,7.0232,7.0388,6.949,6.8553,6.7693,6.8237,6.8273,6.7609,6.8277,6.8474,6.8162,6.9531,7.0664,7.1484,7.0077,7.0155,0.0,0.0,0.0,0.0,0.0,0.0,0.0,0.0,0.0,0.0,0.0,8.1445,8.2773,0.0,8.7109,8.7969,8.9055,9.0248,9.1577,9.2661,9.3092,9.2468,9.3064,9.3783,9.4524,9.4111,9.4106,9.4812,9.477,9.4902,9.5321,9.536,9.5409,9.5499,9.5505,9.5578,9.5714,9.5286,9.5048,9.5053,9.4061,9.343,9.3103,9.1724,9.0707,8.9912,8.8205,8.696,8.6026,8.431,8.3108,8.233,8.2198,8.1892,8.1468,8.1131,8.0742,8.0351,8.0351,8.0078,7.9648,7.9219,7.9101,7.8867,7.7578,7.7187,7.7031,7.6133,7.6211,7.6562,7.6562,7.6836,7.7031,7.664,7.6562,7.6445,7.6015,7.5547,7.5234,7.5234,7.4883,7.4453,7.4023,7.3242,7.2344,7.1484,7.1367,7.1367,7.1367,7.1719,7.1992,7.1992,7.2383,7.2656,7.2656,7.2656,7.2461,7.2031,7.1601,7.082,6.9492,6.9844,7.0078,7.0117,7.0508,7.0937,7.1406,7.2226,7.289,7.3281,7.3281,7.3555,0.0,0.0,0.0,0.0,0.0,0.0,0.0,7.7695,7.9414,8.1953,8.4453,8.6562,8.7969,8.9609,9.0976,9.1637,9.1833,9.2432,9.397,9.4699,9.5004,9.4871,9.5018,9.5185,9.5325,9.5182,9.5339,9.5925,9.5846,9.6019,9.6749,9.6788,9.6853,9.7008,9.686,9.6894,9.7082,9.6261,9.5834,9.5789,9.5084,9.4696,9.4463,9.2943,9.2049,9.1628,8.9263,8.7632,8.6544,8.5194,8.4051,8.3191,8.3451,8.3003,8.2277,8.23,8.1875,8.125,8.125,8.0781,8.0195,8.0,7.9961,7.9805,7.8984,7.8711,7.8594,7.789,7.8203,7.8711,7.8711,7.9219,7.9531,7.8906,7.8711,7.8555,7.7851,7.7148,7.6601,7.6445,7.5859,7.5234,7.4922,7.4844,7.4336,7.2734,7.25,7.25,7.25,7.25,7.25,7.25,7.3125,7.3555,7.3555,7.4219,7.4297,7.3594,7.3555,7.293,7.1523,7.1445,7.1797,7.25,7.25,7.3203,7.4609,7.4765,7.4922,7.5117,7.582,7.6055,7.0156,7.1484,7.3476,7.5976,7.6758,7.8125,0.0,8.3906,8.4765,8.7304,8.9297,9.0625,9.0859,9.2304,9.3434,9.3261,9.4519,9.5789,9.6516,9.7136,9.8024,9.9467,9.8575,9.8075,9.8594,9.8648,9.8555,9.84,9.8403,9.8404,9.8519,9.8519,9.8547,9.8565,9.7795,9.7389,9.7443,9.6634,9.6248,9.6248,9.6133,9.567,9.4908,9.3945,9.2704,9.1162,8.9398,8.7703,8.6185,8.621,8.5295,8.3851,8.4278,8.3906,8.3098,8.2495,8.2226,8.2148,8.2148,8.2109,8.1875,8.1094,8.0859,8.0703,7.9844,7.957,7.9531,7.9453,7.9492,7.957,7.957,7.9648,7.9687,7.9609,7.957,7.9531,7.9453,7.9336,7.9062,7.8359,7.8125,7.7578,7.6015,7.5742,7.543,7.4453,7.4297,7.4297,7.4297,7.4297,7.4297,7.4297,7.4414,7.4453,7.4453,7.4531,7.457,7.4453,7.4453,7.4375,7.418,7.414,7.4219,7.4297,7.4297,7.4414,7.4609,7.539,7.6133,7.6914,7.6992,7.664,7.4844,7.5781,7.6953,7.9531,8.0937,8.25,8.5703,8.7187,8.8476,9.0547,9.2217,9.3534,9.4218,9.5507,9.663,9.7158,9.7613,9.8164,9.8891,9.864,9.8876,10.008,9.9243,9.8895,9.9643,9.9742,9.947,9.8846,9.9259,9.9567,9.9567,9.9567,9.9567,9.9567,9.8211,9.7519,9.7519,9.6711,9.6288,9.6288,9.6288,9.6095,9.5711,9.4864,9.3249,9.1133,8.994,8.844,8.6858,8.7104,8.617,8.4692,8.5127,8.4804,8.3997,8.3315,8.2734,8.2304,8.2304,8.2304,8.2226,8.1875,8.1758,8.1601,8.0703,8.0469,8.0351,7.9844,8.0078,8.0469,8.0469,8.082,8.1094,8.0586,8.0469,8.0312,7.9805,7.9602,7.9426,7.9073,7.892,7.8603,7.7898,7.7871,7.7628,7.6768,7.5463,7.4609,7.4609,7.4609,7.4805,7.5312,7.5351,7.5547,7.6055,7.6094,7.5898,7.539,7.5351,7.5117,7.4609,7.4609,7.4844,7.5351,7.5351,7.5859,7.6875,7.7226,7.7851,7.8633,7.8633,7.8476,7.8047,7.9023,8.0039,8.2148,8.414,8.6133,8.8086,8.9844,9.1562,9.3236,9.4607,9.5822,9.68,9.7909,9.8942,9.9893,10.0295,10.0705,10.0983,10.0695,10.0712,10.1106,10.0606,10.0414,10.0798,10.0606,10.0289,9.9865,10.0721,10.1106,10.1106,10.1106,10.0991,10.0798,9.9327,9.8327,9.7865,9.7057,9.6519,9.6288,9.6288,9.6288,9.6288,9.5412,9.3758,9.1518,9.0902,8.9671,8.8089,8.807,8.721,8.5915,8.6041,8.5568,8.4803,8.4291,8.346,8.2571,8.2519,8.2358,8.2128,8.2217,8.222,8.2105,8.1523,8.1367,8.1211,8.0586,8.0859,8.1367,8.1367,8.1836,8.2148,8.1441,8.1283,8.1085,8.0409,8.0126,7.9947,7.9713,7.9543,7.9369,7.9135,7.9211,7.9086,7.846,7.699,7.5777,7.5351,7.5312,7.5547,7.6172,7.6484,7.6875,7.75,7.7578,7.7305,7.664,7.6406,7.5976,7.5351,7.5547,7.5976,7.6601,7.6836,7.7538,7.8744,7.8744,7.9129,7.9898,7.9663,7.978,7.8672,8.0312,8.2422,8.332,8.5508,8.8086,9.0625,9.2539,9.4215,9.5678,9.6709,9.7525,9.8117,9.8914,9.9674,10.0299,10.2414,10.3689,10.2684,10.3915,10.4597,10.3915,10.3789,10.3405,10.2597,10.1789,10.1597,10.2404,10.3289,10.3789,10.3789,10.3789,10.3405,10.2597,10.1712,10.0404,9.8788,9.7904,9.7057,9.6288,9.6288,9.6288,9.6288,9.5412,9.4066,9.2441,9.2441,9.1441,8.9774,8.9184,8.8449,8.7557,8.7001,8.6237,8.5455,8.5463,8.4533,8.3231,8.3042,8.2435,8.1732,8.196,8.1996,8.2053,8.2223,8.2265,8.2265,8.2226,8.2226,8.2265,8.2265,8.2265,8.2224,8.2017,8.1957,8.1928,8.1704,8.1618,8.138,8.0516,8.0357,8.0077,7.9252,7.91,7.9104,7.9065,7.9177,7.8744,7.7304,7.7109,7.7148,7.7148,7.793,7.8437,7.8476,7.8476,7.8437,7.8437,7.7617,7.7148,7.7109,7.793,7.8398,7.8437,7.918,7.9522,7.9375,7.9375,7.9708,8.0368,7.9508,8.0018,8.164,8.2929,8.4648,8.7226,8.8817,9.0583,9.3748,9.4788,9.5404,9.6476,9.6774,9.6991,9.7382,9.8311,9.9522,10.0998,10.2795,10.4089,10.4194,10.5213,10.5213,10.3289,10.302,10.2712,10.1779,10.202,10.2289,10.2597,10.3405,10.4097,10.4723,10.4212,10.3789,10.3482,10.1481,10.0212,9.9683,9.8211,9.7365,9.7096,9.6557,9.6288,9.6288,9.5412,9.4681,9.4104,9.2979,9.1825,9.0697,9.0105,8.9023,8.7706,8.7652,8.7124,8.6368,8.6198,8.5489,8.4412,8.3355,8.2801,8.2485,8.2109,8.1992,8.2049,8.2223,8.2304,8.2304,8.2304,8.2304,8.2304,8.2304,8.2304,8.2263,8.2053,8.1992,8.1921,8.1725,8.1605,8.1401,8.1129,8.0963,8.077,8.0493,8.0522,8.0481,8.0014,7.9545,7.913,7.8904,7.8737,7.8691,7.8828,7.901,7.9105,7.9105,7.9105,7.9042,7.8928,7.876,7.8611,7.8457,7.8725,7.8884,7.8884,7.9157,7.9561,8.0056,8.0056,8.0493,8.1252,8.098,8.1135,8.4016,8.5309,8.6914,8.9639,9.0853,9.2157,9.527,9.5825,9.5851,9.6343,9.6287,9.6274,9.6682,9.761,9.9122,10.1603,10.3799,10.5405,10.5982,10.6982,10.679,10.4289,10.3712,10.302,10.1904,10.2289,10.2597,10.2597,10.3405,10.4299,10.5107,10.4597,10.4212,10.3905,10.2289,10.0991,10.0106,9.8673,9.7673,9.7057,9.6557,9.6288,9.6288,9.5711,9.5297,9.4951,9.3873,9.2749,9.1612,9.0921,8.9791,8.8429,8.8001,8.7503,8.7014,8.688,8.6251,8.5357,8.4126,8.3527,8.3225,8.2572,8.2423,8.244,8.234,8.2304,8.2304,8.2304,8.2304,8.2304,8.2304,8.2304,8.2222,8.1969,8.1889,8.1831,8.1539,8.1383,8.1311,8.1311,8.1196,8.1093,8.1093,8.1193,8.1186,8.0815,8.0223,7.9723,7.9507,7.9357,7.9339,7.9486,7.9669,7.9775,7.9775,7.9775,7.9694,7.9575,7.9406,7.922,7.91,7.9408,7.9567,7.9567,7.9878,8.0274,8.0775,8.0775,8.1005,8.1496,8.1496,8.1496,8.5793,8.7431,8.9251,9.0703,9.1725,9.2933,9.5244,9.5686,9.561,9.5357,9.5328,9.5484,9.6023,9.6826,9.8557,10.1904,10.529,10.7598,10.7713,10.9098,10.929,10.6703,10.5713,10.4597,10.2789,10.2712,10.2712,10.2712,10.3405,10.4299,10.5107,10.5107,10.4713,10.3905,10.3915,10.2722,10.0183,9.9259,9.798,9.6365,9.6326,9.6288,9.6288,9.6288,9.5865,9.5066,9.5027,9.4104,9.2556,9.171,9.0778,8.9816,8.8209,8.7555,8.7478,8.7478,8.694,8.6132,8.531,8.4575,8.3873,8.3273,8.3166,8.3183,8.2575,8.2344,8.2304,8.2304,8.2304,8.2304,8.2304,8.2304,8.2218,8.1825,8.1692,8.16,8.1217,8.1108,8.1093,8.1093,8.1093,8.1093,8.1093,8.1093,8.1145,8.138,8.1221,8.067,7.939,7.9205,7.9201,7.9213,7.9948,8.045,8.045,8.045,8.0446,8.0434,7.966,7.9193,7.922,8.0002,8.0434,8.0434,8.1259,8.1582,8.1383,8.1383,8.1298,8.1093,8.1093,8.1093,8.8204,9.0177,9.2232,9.3235,9.4023,9.4822,9.6074,9.5736,9.499,9.4266,9.4125,9.4014,9.3545,9.5172,9.7519,10.0298,10.3607,10.6213,10.7482,10.9098,10.929,10.6703,10.679,10.6097,10.3789,10.4097,10.4212,10.3597,10.3789,10.4299,10.5107,10.5107,10.4713,10.3905,10.3289,10.2289,10.1019,9.9519,9.825,9.7211,9.6596,9.6288,9.6288,9.6288,9.6172,9.5942,9.5297,9.4758,9.4296,9.3403,9.221,9.0825,9.0402,8.9479,8.8372,8.8372,8.8218,8.7952,8.7213,8.6056,8.4758,8.4094,8.3636,8.33,8.3278,8.2812,8.2304,8.2304,8.2304,8.2304,8.2304,8.2304,8.2223,8.1984,8.1825,8.1645,8.1377,8.1224,8.1093,8.1093,8.1093,8.1093,8.1093,8.1093,8.1131,8.1152,8.1123,8.1063,8.104,8.0903,8.0859,8.0999,8.1097,8.1131,8.1131,8.1131,8.1076,8.0935,8.0847,8.0754,8.0613,8.0799,8.0922,8.0922,8.116,8.1228,8.1174,8.1174,8.1153,8.1093,8.1093,8.1093,9.0535,9.2229,9.3848,9.4624,9.5047,9.5293,9.5332,9.4866,9.3989,9.2364,9.2326,9.2364,9.1518,9.3441,9.598,9.8519,10.2404,10.5713,10.7482,10.9483,11.0098,10.829,10.8213,10.7405,10.5213,10.5405,10.5213,10.3982,10.3905,10.4299,10.5107,10.5107,10.4905,10.4405,10.3982,10.2904,10.1279,9.9981,9.875,9.748,9.7057,9.6634,9.6288,9.6288,9.6288,9.6288,9.5788,9.5335,9.4951,9.4489,9.348,9.2249,9.1902,9.0979,8.9812,8.9894,8.9463,8.8866,8.8953,8.7934,8.6415,8.5276,8.4744,8.4513,8.4257,8.3828,8.3359,8.2969,8.3164,8.3242,8.25,8.2851,8.3279,8.2718,8.2671,8.2751,8.2527,8.2343,8.2208,8.2208,8.2208,8.2093,8.1708,8.1631,8.1516,8.1131,8.1093,8.1181,8.1418,8.1349,8.1305,8.1408,8.1343,8.1265,8.1265,8.1265,8.1214,8.1108,8.1224,8.1207,8.11,8.1093,8.1093,8.1093,8.1093,8.1093,8.1093,8.1093,8.1093,8.1093,8.1093,8.1093,9.267,9.3857,9.4763,9.5296,9.5335,9.4976,9.3923,9.3518,9.271,9.0393,9.0509,9.0778,9.0047,9.1902,9.4441,9.7211,10.1597,10.5405,10.7598,10.979,11.0906,11.0291,10.9483,10.8482,10.6895,10.678,10.629,10.4713,10.4597,10.4713,10.5107,10.5213,10.5213,10.5107,10.4992,10.3789,10.151,10.0712,9.9442,9.7827,9.775,9.725,9.648,9.648,9.6403,9.6288,9.6288,9.5865,9.5181,9.5181,9.4681,9.3796,9.3095,9.2331,9.1578,9.1663,9.0772,8.9669,9.0409,8.9735,8.8316,8.6675,8.6186,8.6054,8.5312,8.496,8.4686,8.3944,8.4254,8.4487,8.3006,8.3748,8.4643,8.3745,8.3855,8.4155,8.3978,8.3775,8.3601,8.3601,8.3601,8.337,8.2593,8.2477,8.2247,8.1554,8.1439,8.14,8.1285,8.117,8.1093,8.1093,8.1093,8.1093,8.1093,8.1093,8.1093,8.1093,8.1093,8.1093,8.1093,8.1093,8.1093,8.1093,8.1093,8.1093,8.1093,8.1093,8.1093,8.1093,8.1093,8.1093,9.4159,9.5273,9.6001,9.6115,9.5558,9.4818,9.393,9.2633,9.1287,9.0124,9.0009,9.0086,8.9932,9.1441,9.398,9.7942,10.0481,10.351,10.8098,10.9098,10.9598,11.0098,11.0109,10.9598,10.8598,10.9098,10.9098,10.8098,10.7982,10.7213,10.5223,10.579,10.579,10.5097,10.4492,10.3597,10.2404,10.152,10.0596,9.9644,9.8904,9.8134,9.7288,9.7288,9.6942,9.6288,9.6288,9.6211,9.6057,9.6057,9.5557,9.4758,9.4604,9.4183,9.353,9.2843,9.2548,9.2329,9.1275,9.0286,8.9327,8.8275,8.7162,8.6172,8.6015,8.5377,8.4629,8.4473,8.4364,8.4293,8.4216,8.4434,8.4643,8.4642,8.4392,8.4197,8.4159,8.3856,8.3601,8.3601,8.3601,8.3563,8.3409,8.337,8.3332,8.3178,8.3178,8.2909,8.217,8.1516,8.1093,8.1093,8.1093,8.1093,8.1093,8.1093,8.1093,8.1093,8.1093,8.1093,8.1093,8.1093,8.1093,8.1093,8.1093,8.1093,8.1093,8.1093,8.1093,8.1093,8.1093,8.1093,9.5095,9.598,9.6288,9.6288,9.5288,9.3989,9.2672,9.1095,8.9517,8.8201,8.8632,8.9133,8.8671,9.0748,9.3287,9.5749,9.7942,10.1019,10.5597,10.7021,10.8213,10.9983,11.0598,11.0483,10.9713,10.9483,10.9213,10.829,10.829,10.7713,10.6482,10.679,10.6905,10.6482,10.5783,10.4992,10.4113,10.3421,10.2415,10.0916,10.0491,9.9321,9.7519,9.7519,9.7057,9.6288,9.6288,9.6288,9.6288,9.6288,9.6057,9.57,9.579,9.5385,9.4744,9.4596,9.4026,9.3272,9.2691,9.1621,9.0366,8.939,8.7996,8.6657,8.6657,8.6246,8.5666,8.5195,8.5287,8.535,8.4585,8.5139,8.5826,8.5438,8.5799,8.6043,8.5322,8.5403,8.5448,8.4978,8.4901,8.4786,8.4362,8.4286,8.4132,8.3678,8.3601,8.3447,8.3024,8.2631,8.2054,8.1208,8.1093,8.1093,8.1093,8.1477,8.1554,8.1131,8.1477,8.1554,8.1131,8.1093,8.1093,8.1093,8.1093,8.1093,8.1093,8.1093,8.1093,8.1093,8.1093,8.1093,9.5365,9.6172,9.6288,9.6288,9.4864,9.3056,9.1556,8.9748,8.8017,8.6671,8.7478,8.8325,8.8017,9.0133,9.2441,9.398,9.5942,9.8788,10.3289,10.529,10.729,10.9598,11.0906,11.1203,11.0483,10.9713,10.8919,10.8414,10.7981,10.7807,10.7808,10.7711,10.7584,10.7584,10.7114,10.6512,10.5588,10.5205,10.4005,10.2118,10.2118,10.0712,9.8098,9.7944,9.7389,9.6557,9.6365,9.6288,9.6288,9.6288,9.6343,9.636,9.6551,9.6263,9.5867,9.6034,9.5161,9.3864,9.3903,9.2733,9.1086,9.0023,8.8667,8.7334,8.7112,8.6912,8.6582,8.5917,8.6151,8.6355,8.5039,8.5813,8.6821,8.6311,8.7133,8.7769,8.6832,8.7209,8.7478,8.6786,8.6517,8.617,8.5555,8.5286,8.4939,8.4255,8.414,8.4063,8.3909,8.387,8.3285,8.1785,8.1477,8.1439,8.1631,8.2054,8.2093,8.167,8.2054,8.2016,8.1362,8.1208,8.1093,8.1093,8.1093,8.117,8.1362,8.1362,8.1439,8.1631,8.1439,8.1362,9.4643,9.5711,9.6288,9.6288,9.4441,9.2364,9.1441,8.9286,8.7478,8.7325,8.7401,8.7979,8.9393,8.9932,9.1432,9.5441,9.6249,9.8173,10.3212,10.529,10.7098,10.879,11.0521,11.1522,11.1406,11.0598,11.0188,11.0308,10.908,10.8317,10.8082,10.7508,10.7205,10.7205,10.7194,10.6704,10.5892,10.5801,10.4906,10.3213,10.3213,10.2204,10.01,9.9372,9.843,9.7365,9.6634,9.6288,9.6288,9.6288,9.642,9.6578,9.6574,9.6836,9.7143,9.6385,9.5669,9.4921,9.4179,9.2642,9.0863,8.9998,8.906,8.8101,8.7135,8.6681,8.6523,8.6445,8.6296,8.6177,8.6288,8.6425,8.672,8.7373,8.7626,8.7849,8.8356,8.8526,8.8564,8.8487,8.7833,8.7248,8.7171,8.6517,8.5978,8.5901,8.5863,8.5593,8.4854,8.4786,8.4439,8.3486,8.2678,8.2516,8.3293,8.2716,8.2593,8.3332,8.2708,8.2285,8.217,8.1477,8.1093,8.1093,8.1093,8.1477,8.217,8.217,8.2601,8.337,8.2554,8.217,9.3642,9.5249,9.6172,9.5634,9.3595,9.1479,9.0624,8.8863,8.7248,8.6748,8.744,8.841,8.9056,8.9547,9.097,9.421,9.3903,9.5018,10.0096,10.0981,10.2404,10.6213,10.8213,10.9406,10.9906,10.9803,10.959,10.9398,10.8492,10.8119,10.8609,10.8201,10.8019,10.8019,10.8598,10.8313,10.6913,10.7595,10.7012,10.5204,10.4697,10.3306,10.1095,9.981,9.8586,9.7442,9.6634,9.6373,9.6467,9.6467,9.6627,9.6866,9.703,9.7223,9.7379,9.7161,9.6284,9.5156,9.4804,9.3382,9.1542,9.056,8.9936,8.9178,8.7202,8.6442,8.6261,8.6261,8.6569,8.6789,8.6377,8.6742,8.7442,8.8294,8.8868,8.9156,8.8771,8.9094,8.9286,8.8795,8.841,8.8179,8.8179,8.7902,8.7478,8.6978,8.6863,8.6594,8.5747,8.5632,8.5478,8.5132,8.3901,8.3216,8.3563,8.3747,8.3785,8.3601,8.3785,8.3632,8.3093,8.2755,8.2601,8.2601,8.2601,8.2747,8.3101,8.3101,8.3255,8.3601,8.3255,8.2785,9.2326,9.4403,9.5788,9.5143,9.3287,9.1287,9.0163,8.8594,8.7132,8.6286,8.7286,8.841,8.8641,8.9363,9.0663,9.2979,9.2556,9.3364,9.748,9.8173,9.9673,10.3482,10.5482,10.7005,10.8203,10.8788,10.8893,10.8311,10.7886,10.7994,10.8617,10.849,10.8384,10.8384,10.9083,10.901,10.7684,10.851,10.808,10.6514,10.5616,10.4187,10.2119,10.0212,9.8837,9.7958,9.684,9.6514,9.6708,9.6708,9.6887,9.713,9.7333,9.7431,9.7501,9.7653,9.6797,9.5547,9.5273,9.4046,9.2361,9.1129,9.0533,8.994,8.7881,8.6889,8.644,8.617,8.6748,8.7325,8.6978,8.7434,8.8211,8.9061,8.975,9.0056,8.9547,8.9863,9.0124,8.9556,8.921,8.9056,8.9056,8.8872,8.8487,8.7872,8.7786,8.7555,8.694,8.6863,8.6863,8.6863,8.5824,8.4909,8.4371,8.467,8.4747,8.4371,8.4709,8.4632,8.4016,8.3755,8.3601,8.3601,8.3601,8.3717,8.3978,8.3978,8.4093,8.4324,8.4093,8.3516,9.0787,9.3095,9.5027,9.4989,9.3719,9.2018,9.0316,8.8594,8.7132,8.6286,8.6786,8.7671,8.8526,8.9363,9.047,9.221,9.3172,9.4287,9.6095,9.8481,10.0414,10.1202,10.2904,10.4686,10.6603,10.8094,10.8482,10.7707,10.7797,10.8008,10.8008,10.8008,10.8007,10.8007,10.8008,10.8008,10.8008,10.8008,10.7617,10.6718,10.5898,10.4796,10.3287,10.0801,9.943,9.9084,9.7356,9.6745,9.7007,9.7007,9.7142,9.7407,9.7409,9.7507,9.7695,9.7695,9.7187,9.6367,9.5508,9.4437,9.3197,9.1557,9.0672,9.0133,8.9243,8.8248,8.7209,8.6324,8.6748,8.7594,8.8449,8.8679,8.8872,8.971,8.9902,9.0133,9.0979,9.1171,9.1171,9.1171,9.047,8.9893,8.9893,8.9248,8.8718,8.8679,8.8679,8.8679,8.8679,8.8679,8.8679,8.8679,8.8679,8.7948,8.6209,8.5354,8.5239,8.6017,8.5363,8.4893,8.4893,8.4055,8.3601,8.3601,8.3601,8.4016,8.4893,8.4893,8.5277,8.6055,8.5239,8.4439,8.7555,8.9556,9.1364,9.0834,8.9863,8.8863,8.8325,8.8248,8.8017,8.7171,8.8132,8.921,8.9479,8.9739,9.0663,9.2941,9.3056,9.3672,9.598,9.698,9.8442,10.101,10.3905,10.6189,10.7617,10.7699,10.7698,10.7585,10.7798,10.8008,10.8008,10.8008,10.8008,10.8008,10.8593,10.8593,10.8008,10.8593,10.8515,10.7617,10.6211,10.5214,10.4402,10.1115,9.9546,9.9358,9.7432,9.6871,9.7262,9.7262,9.733,9.7409,9.7409,9.7341,9.7211,9.7211,9.6807,9.6206,9.5894,9.4784,9.3392,9.2884,9.1992,9.0973,9.0133,8.9136,8.8363,8.8632,8.8517,8.8641,9.0056,8.9979,8.9748,9.0586,9.0778,9.1018,9.1902,9.1633,9.1364,9.1979,9.1364,9.0778,9.0778,9.0594,9.021,8.9594,8.9509,8.9325,8.8756,8.8718,8.8718,8.8718,8.8718,8.8487,8.7902,8.7632,8.7594,8.7863,8.7632,8.7478,8.7478,8.7218,8.6794,8.6209,8.6209,8.6055,8.5701,8.5701,8.5863,8.6094,8.5277,8.4739,8.5478,8.7517,8.9325,8.8833,8.8748,8.8594,8.7632,8.8325,8.8825,8.7632,8.8748,8.9893,8.9893,9.0163,9.0893,9.2518,9.2595,9.3172,9.5057,9.5903,9.7442,10.0481,10.3694,10.5889,10.6596,10.6989,10.739,10.8011,10.7891,10.8,10.8515,10.789,10.75,10.75,10.8008,10.8086,10.75,10.7695,10.789,10.8008,10.6015,10.4988,10.5019,10.1415,9.9717,9.9624,9.7728,9.7095,0.0,9.7409,9.7341,9.7246,9.7246,9.7138,9.7012,9.7012,9.6841,9.6548,9.6197,9.5446,9.4538,9.3873,9.2727,9.1521,9.094,8.9793,8.8872,8.9663,8.9556,8.9479,9.0825,9.0778,9.0509,9.1056,9.1441,9.1825,9.2364,9.2326,9.221,9.2441,9.2056,9.1595,9.1248,9.121,9.1018,9.047,9.0393,9.021,8.971,8.9633,8.9633,8.9633,8.9633,8.9633,8.9633,8.9064,8.8718,8.8718,8.8718,8.8718,8.8718,8.8718,8.8449,8.7902,8.7555,8.7132,8.6594,8.6247,8.6094,8.6094,8.5593,8.5354,0.0,8.6401,8.8256,8.8333,8.9517,9.0056,8.7748,8.8517,0.0,8.7786,8.8748,8.9855,8.997,9.0586,9.1171,9.1287,9.2018,9.2864,9.3672,9.5441,9.7596,10.0106,10.2709,10.4381,10.4381,10.5993,10.7601,10.87,10.8017,10.8113,10.9101,10.7617,10.6719,10.6601,10.6601,10.6601,10.6601,10.5898,10.6289,10.7812,10.539,10.4481,10.4917,10.1514,9.9912,9.9834,9.8153,9.7409,9.7409,9.7409,9.7237,9.6984,9.6984,9.6974,9.6954,9.6954,9.7111,9.7224,9.6404,9.6283,9.617,9.4412,9.2969,9.1858,9.1608,9.0293,8.9076,8.9833,9.0047,9.0214,9.1023,9.1189,9.121,9.1287,9.1902,9.2518,9.2633,9.321,9.348,9.271,9.2556,9.221,9.1364,9.121,9.121,9.121,9.121,9.121,9.121,9.121,9.121,9.121,9.121,9.121,9.121,8.9748,8.8872,8.8872,8.8872,8.8872,8.8872,8.8872,8.8833,8.8795,8.7863,8.7363,8.7325,8.6555,8.6209,8.6209,8.6209,8.6247,8.1862,0.0,8.3947,8.464,8.5102,8.5401,0.0,8.6786,8.8055,8.8333,8.8709,8.9363,9.0671,9.0509,9.0624,9.1979,9.2864,9.371,9.4566,9.7827,10.0789,10.2789,10.4099,10.5207,10.5814,10.5906,10.6407,10.7514,10.7603,10.7799,10.8281,10.7304,10.6406,10.5781,10.5117,10.5117,10.5781,10.5586,10.5703,10.6093,10.4804,10.4296,10.429,10.1314,9.9992,10.011,9.8227,9.7409,9.7409,9.7409,9.7119,9.6676,9.6676,9.6585,9.6456,9.6456,9.6602,9.6753,9.6559,9.6235,9.5601,9.3925,9.2792,9.2105,9.1867,9.1354,9.0906,9.1317,9.1288,9.1185,9.1378,9.1307,9.1364,9.2056,9.2364,9.2864,9.4143,9.4027,9.3633,9.3441,9.2903,9.221,9.1364,9.121,9.121,9.121,9.121,9.121,9.121,9.121,9.121,9.121,9.121,9.121,9.121,9.0825,9.0594,9.0594,9.0594,9.0594,9.0594,9.0594,9.0287,8.9624,8.8171,8.7055,8.6401,8.6863,8.7094,8.7094,8.7094,8.744,8.157,8.2554,8.3593,8.4093,8.5093,8.5948,8.6017,8.7055,8.8025,8.8094,8.841,8.8987,8.9902,9.007,9.0512,9.1879,9.2751,9.3944,9.5901,9.9135,10.1894,10.3712,10.4597,10.5405,10.628,10.5696,10.6015,10.7687,10.7607,10.7782,10.8593,10.7383,10.6289,10.5508,10.4687,10.4414,10.4883,10.4492,10.4687,10.5508,10.4219,10.3789,10.4101,10.1785,10.081,10.0781,9.8932,9.8079,9.7953,9.7415,9.6989,9.6574,9.6506,9.6395,9.6288,9.6288,9.6432,9.6588,9.6588,9.6277,9.57,9.4669,9.3925,9.3378,9.3263,9.3118,9.2869,9.2109,9.2272,9.2599,9.2205,9.2226,9.2479,9.2941,9.3364,9.3912,9.4797,9.4941,9.4672,9.3864,9.3364,9.2672,9.1402,9.121,9.121,9.121,9.121,9.121,9.121,9.121,9.121,9.121,9.121,9.121,9.121,9.121,9.121,9.121,9.121,9.121,9.121,9.121,9.0633,8.9363,8.8055,8.6978,8.6094,8.6978,8.7401,8.7401,8.7825,8.8256,8.2309,8.3795,8.5058,8.4763,8.6566,8.8125,8.7269,8.7732,8.8218,8.7626,8.7972,8.8488,8.8907,8.9736,9.068,9.17,9.2612,9.4248,9.7152,9.9623,10.1712,10.3299,10.4212,10.5097,10.5895,10.5408,10.5799,10.7915,10.7598,10.7717,10.8788,10.7383,10.6093,10.5312,10.4492,10.3984,10.3984,10.3086,10.3398,10.4883,10.3398,10.3086,10.3789,10.2304,10.1601,10.1484,9.9765,9.8893,9.8612,9.7496,9.6919,9.6636,9.6423,9.6358,9.6349,9.6315,9.6429,9.6549,9.6574,9.6351,9.5992,9.5833,9.5336,9.4862,9.4862,9.494,9.4686,9.2883,9.3255,9.3992,9.311,9.333,9.3769,9.3891,9.445,9.5027,9.5181,9.5788,9.5788,9.4057,9.371,9.3172,9.1479,9.121,9.121,9.121,9.121,9.121,9.121,9.121,9.121,9.121,9.121,9.121,9.121,9.121,9.121,9.121,9.121,9.121,9.121,9.121,9.0479,8.891,8.8171,8.7363,8.6517,8.7363,8.7786,8.7786,8.8517,8.894,8.3001,8.4793,8.5848,8.4196,8.5326,8.6591,8.5746,8.6204,8.7061,8.7821,8.7363,8.7532,8.9885,9.0436,9.1091,9.2691,9.4242,9.5845,9.7591,9.9382,10.0794,10.1607,10.252,10.3289,10.4212,10.4413,10.4908,10.6219,10.7086,10.7393,10.7109,10.6211,10.5312,10.4414,10.3594,10.3086,10.3086,10.2187,10.1914,10.2187,10.1914,10.1914,10.1992,10.1719,10.1601,10.1484,9.9765,9.8893,9.8619,9.77,9.7164,9.6924,9.6649,9.6542,9.6536,9.6355,9.6334,9.6382,9.6551,9.6216,9.5801,9.5975,9.5619,9.5154,9.5154,9.5662,9.6013,9.4994,9.4672,9.4469,9.3423,9.3583,9.4186,9.4702,9.4912,9.522,9.5942,9.6211,9.5788,9.4057,9.371,9.3172,9.1479,9.121,9.121,9.121,9.121,9.121,9.121,9.121,9.121,9.121,9.121,9.121,9.121,9.121,9.121,9.121,9.121,9.121,9.121,9.121,9.0748,8.9739,8.9586,8.9133,8.8295,8.9133,8.9509,8.9509,8.9663,9.0094,8.2078,8.3979,8.5571,8.468,8.6606,8.8598,8.8215,8.8098,8.8055,8.8084,8.7705,8.774,8.9017,9.011,9.1697,9.4345,9.5827,9.6922,9.778,9.9355,10.0596,10.1183,10.2097,10.3011,10.4009,10.38,10.4305,10.6011,10.6185,10.6394,10.6718,10.5898,10.5117,10.4219,10.3398,10.289,10.289,10.1601,10.1406,10.2304,10.2304,10.2304,10.2304,10.2812,10.2695,10.2187,10.1015,10.0114,9.9471,9.853,9.7764,9.7206,9.6934,9.672,9.6585,9.6382,9.6373,9.6498,9.657,9.661,9.6652,9.6763,9.6691,9.6562,9.6562,9.6836,9.6953,9.6133,9.6034,9.5993,9.5021,9.5197,9.5744,9.6017,9.5978,9.5972,9.6389,9.639,9.5788,9.4057,9.371,9.3172,9.1479,9.121,9.121,9.121,9.121,9.121,9.121,9.121,9.121,9.121,9.121,9.121,9.121,9.121,9.121,9.121,9.121,9.121,9.121,9.074,9.0316,8.9893,8.9479,8.9056,8.8718,8.9517,8.9893,8.9893,9.0393,9.0816,8.1943,8.3483,8.5109,8.5533,8.7712,8.9932,9.0559,8.9901,8.9097,8.8904,8.88,8.8863,8.9099,9.0879,9.3155,9.5767,9.6899,9.7528,9.7748,9.922,10.0404,10.0899,10.2015,10.2999,10.3615,10.3613,10.4092,10.5584,10.5392,10.5516,10.6093,10.5508,10.4804,10.3906,10.3203,10.289,10.289,10.1406,10.1289,10.2617,10.2812,10.289,10.289,10.3789,10.3789,10.3086,10.2109,10.1094,10.0195,9.9191,9.8267,9.7437,9.7174,9.6944,9.6682,9.6537,9.6543,9.6689,9.6769,9.7065,9.7414,9.7439,9.7562,9.7695,9.7695,9.7695,9.7578,9.6953,9.7097,9.7247,9.6321,9.658,9.7082,9.7026,9.6855,9.6676,9.6676,9.6529,9.5919,9.4378,9.3867,9.321,9.1748,9.1325,9.121,9.121,9.121,9.121,9.121,9.121,9.121,9.121,9.121,9.121,9.121,9.121,9.121,9.121,9.121,9.121,9.121,9.0547,9.0201,9.0201,8.9594,8.9286,8.9286,8.9902,9.0201,9.0201,9.0902,9.121,8.4217,8.4658,8.4793,8.6537,8.7156,8.7984,9.0415,8.9673,8.8958,9.0697,9.0905,9.1111,9.2104,9.4374,9.6171,9.6445,9.7148,9.7607,9.7478,9.8896,9.9885,9.9751,10.1904,10.3081,10.2313,10.3882,10.4686,10.4002,10.4904,10.5195,10.4414,10.4297,10.3906,10.3008,10.289,10.289,10.289,10.1992,10.1601,10.1719,10.25,10.289,10.289,10.3789,10.4219,10.3984,10.2304,10.1094,10.0195,9.9335,9.8476,9.7654,9.744,9.722,9.6984,9.6964,9.6969,9.7017,9.7253,9.7356,9.7427,9.761,9.7695,9.7695,9.7695,9.7695,9.7695,9.7617,9.7656,9.7417,9.6381,9.6739,9.7322,9.7065,9.6998,9.6984,9.6984,9.6757,9.6321,9.543,9.4433,9.3403,9.2556,9.1748,9.121,9.121,9.121,9.121,9.121,9.121,9.121,9.121,9.121,9.121,9.121,9.121,9.121,9.121,9.121,9.121,9.121,9.1133,9.1133,9.1133,9.1056,9.1018,9.1018,9.1095,9.1133,9.1133,9.1171,9.121,8.2723,8.4135,8.5456,8.6198,8.6875,8.8034,9.0613,9.1082,9.136,9.2656,9.2848,9.2922,9.332,9.4648,9.5859,9.6406,9.7187,9.7612,9.7425,9.8849,9.9845,9.9608,10.1414,10.2486,10.2383,10.2995,10.3604,10.4007,10.3904,10.3984,10.4219,10.4219,10.3984,10.3711,10.3203,10.3203,10.3711,10.2304,10.1914,10.2383,10.3281,10.3398,10.289,10.4414,10.4414,10.3281,10.2109,10.1094,10.0195,9.9375,9.8476,9.7695,9.749,9.7338,9.7233,9.7065,9.7103,9.7256,9.7354,9.7492,9.7606,9.7695,9.7695,9.7695,9.7695,9.7695,9.7695,9.7695,9.7695,9.7617,9.7217,9.733,9.756,9.7454,9.7354,9.7246,9.7246,9.6924,9.6201,9.4852,9.411,9.3249,9.1902,9.1441,9.121,9.121,9.121,9.121,9.121,9.121,9.121,9.121,9.121,9.121,9.121,9.121,9.121,9.121,9.121,9.121,9.121,9.171,9.1748,9.121,9.1748,9.1748,9.121,9.121,9.121,9.121,9.121,9.121,8.2107,8.3412,8.4813,8.5427,8.6358,8.789,9.1015,9.1953,9.2656,9.4375,9.4492,9.4297,9.4297,9.5039,9.582,9.6406,9.7187,9.7654,9.7504,9.8871,9.9863,9.9706,10.1404,10.2592,10.2509,10.2592,10.2905,10.3711,10.3008,10.289,10.3711,10.3789,10.3789,10.3789,10.3203,10.3203,10.3789,10.2617,10.2304,10.289,10.3789,10.3906,10.3398,10.4492,10.4414,10.3281,10.2383,10.1406,10.0312,9.9648,9.8711,9.7695,9.7555,9.7497,9.7488,9.7288,9.7354,9.7497,9.7497,9.7565,9.7695,9.7695,9.7654,9.7608,9.7608,9.7608,9.7606,9.7508,9.7557,9.7605,9.7508,9.7608,9.7695,9.7611,9.7498,9.7397,9.7274,9.6934,9.624,9.5123,9.4264,9.3326,9.2172,9.1556,9.121,9.121,9.121,9.121,9.121,9.121,9.121,9.121,9.121,9.121,9.121,9.121,9.121,9.121,9.121,9.1325,9.1595,9.2172,9.2326,9.2018,9.2595,9.2441,9.1595,9.1595,9.1595,9.1595,9.1325,9.1364,8.3011,8.2653,8.2484,8.4411,8.5586,8.7344,9.164,9.1953,9.2304,9.5781,9.582,9.5195,9.5195,9.5937,9.6484,9.6484,9.7187,9.7695,9.7695,9.895,9.99,9.99,10.2207,10.3497,10.2597,10.2719,10.289,10.289,10.2109,10.1992,10.289,10.289,10.289,10.289,10.289,10.289,10.289,10.289,10.289,10.289,10.3789,10.4219,10.4219,10.4219,10.4219,10.4101,10.3281,10.1914,10.0312,10.0312,9.9258,9.7695,9.7695,9.7695,9.7695,9.7695,9.7695,9.7695,9.7695,9.7695,9.7695,9.7695,9.7559,9.7409,9.7409,9.7409,9.7341,9.7078,9.721,9.7338,9.7074,9.7327,9.7653,9.7435,9.7407,9.733,9.7061,9.6792,9.6588,9.6588,9.5028,9.371,9.3672,9.2287,9.121,9.121,9.121,9.121,9.121,9.121,9.121,9.121,9.121,9.121,9.121,9.121,9.121,9.121,9.121,9.1595,9.2441,9.2518,9.2903,9.3672,9.371,9.3326,9.2518,9.2518,9.2518,9.2479,9.1633,9.1672,8.2685,8.3313,8.4286,8.5275,8.71,8.9425,9.2342,9.3083,9.3945,9.6758,9.6679,9.6094,9.6094,9.6328,9.6484,9.6484,9.7187,9.7695,9.7695,9.9138,10.0186,10.0186,10.1905,10.3116,10.2803,10.2889,10.289,10.289,10.2695,10.2617,10.289,10.3515,10.3789,10.3789,10.3789,10.3789,10.3789,10.3203,10.289,10.289,10.3203,10.3281,10.3281,10.3906,10.3906,10.3203,10.1719,10.0781,10.0195,9.8984,9.8164,9.7695,9.7695,9.7695,9.7695,9.7695,9.7695,9.7695,9.7695,9.7695,9.7695,9.7695,9.7559,9.7409,9.7409,9.7259,9.7099,9.703,9.7061,9.7099,9.703,9.7111,9.7184,9.713,9.7115,9.7095,9.7026,9.6792,9.6433,9.5859,9.465,9.3518,9.2941,9.1941,9.121,9.121,9.121,9.121,9.121,9.121,9.121,9.121,9.121,9.121,9.121,9.121,9.121,9.121,9.121,9.1595,9.2441,9.3018,9.3441,9.371,9.4296,9.422,9.3326,9.3326,9.3326,9.3326,9.3095,9.3095,8.3281,8.402,8.5172,8.6915,8.8729,9.0797,9.3566,9.4755,9.5732,9.7382,9.707,9.6601,9.6914,9.6719,9.6601,9.6914,9.7383,9.7695,9.7695,9.9096,10.0296,10.0608,10.1898,10.2914,10.3187,10.2692,10.25,10.289,10.2617,10.25,10.289,10.3398,10.3711,10.3711,10.3711,10.3711,10.3711,10.3203,10.289,10.289,10.289,10.289,10.289,10.3398,10.3398,10.2812,10.1094,10.0117,9.9687,9.8281,9.7695,9.7695,9.7695,9.7695,9.7695,9.7695,9.7695,9.7695,9.7695,9.7695,9.7695,9.7695,9.7503,9.7243,9.7243,9.7061,9.6827,9.6734,9.6795,9.6821,9.6734,9.6734,9.6728,9.6821,9.6849,9.6815,9.6728,9.6602,9.6352,9.5849,9.4913,9.3941,9.3133,9.2287,9.1595,9.1248,9.121,9.1325,9.1672,9.171,9.171,9.171,9.171,9.1595,9.1248,9.121,9.121,9.121,9.121,9.1748,9.2941,9.3441,9.4018,9.4711,9.5249,9.5104,9.422,9.422,9.422,9.422,9.3873,9.3903,8.4453,8.4786,8.5463,8.8914,9.0407,9.1821,9.5054,9.6592,9.737,9.7608,9.7068,9.6796,9.7538,9.7109,9.6836,9.7578,9.7695,9.7734,9.7812,9.9034,10.0306,10.1089,10.1989,10.2809,10.3592,10.2487,10.1992,10.2812,10.2187,10.2109,10.289,10.289,10.289,10.289,10.289,10.289,10.289,10.289,10.289,10.289,10.289,10.289,10.2812,10.289,10.2812,10.2617,10.1015,9.9765,9.8828,9.8047,9.7695,9.7695,9.7695,9.7695,9.7695,9.7695,9.7695,9.7695,9.7695,9.7695,9.7655,9.7655,9.7368,9.6974,9.6974,9.6775,9.6543,9.6329,9.644,9.6536,9.6358,9.6288,9.6358,9.6529,9.6578,9.6529,9.6355,9.6315,9.6297,9.6304,9.5593,9.4758,9.3941,9.3133,9.2326,9.1556,9.1441,9.171,9.2518,9.2595,9.2595,9.2595,9.2556,9.2172,9.1402,9.1248,9.121,9.121,9.121,9.1941,9.3633,9.371,9.4518,9.6288,9.6288,9.5903,9.5104,9.5104,9.5104,9.5104,9.4296,9.4373,8.4804,8.535,8.658,8.9621,9.2255,9.4466,9.6055,9.6604,9.6821,9.7111,9.7182,9.7249,9.7444,9.7449,9.75,9.7656,9.7695,9.7929,9.8633,9.9569,10.0503,10.1402,10.23,10.2886,10.3081,10.2812,10.2695,10.289,10.2695,10.2695,10.289,10.289,10.289,10.289,10.289,10.289,10.289,10.289,10.289,10.289,10.289,10.25,10.1914,10.2617,10.2187,10.0781,10.0508,9.9414,9.7969,9.7773,9.7695,9.7695,9.7695,9.7695,9.7695,9.7695,9.7695,9.7695,9.7695,9.7606,9.7444,9.7444,9.7119,9.6702,9.6702,9.656,9.6346,9.6315,9.6322,9.6338,9.6315,9.6288,9.6315,9.6338,9.6364,9.6395,9.6491,9.6398,9.6358,9.6483,9.5704,9.4951,9.4758,9.4027,9.3364,9.3172,9.3172,9.321,9.3403,9.3441,9.3441,9.3441,9.2864,9.2402,9.2249,9.1595,9.121,9.121,9.121,9.1941,9.3633,9.371,9.4518,9.6288,9.6288,9.6211,9.6019,9.6019,9.6019,9.6019,9.5826,9.5826,8.5195,8.6049,8.7557,9.1326,9.3939,9.5784,9.6324,9.6458,9.6522,9.6645,9.7398,9.7878,9.7487,9.8263,9.8828,9.8398,9.8672,9.9101,9.957,10.039,10.1211,10.2109,10.2617,10.3086,10.3515,10.3086,10.289,10.289,10.289,10.289,10.289,10.289,10.289,10.289,10.289,10.289,10.289,10.289,10.289,10.289,10.289,10.2695,10.2187,10.1797,10.0898,9.9687,9.9687,9.8945,9.7695,9.7695,9.7695,9.7695,9.7695,9.7695,9.7695,9.7695,9.7652,9.7557,9.7557,9.7383,9.722,9.722,9.6949,9.6588,9.6588,9.6466,9.6288,9.6288,9.6288,9.6288,9.6288,9.6288,9.6288,9.6288,9.6288,9.6338,9.6549,9.6506,9.6452,9.6592,9.6158,9.5597,9.5102,9.4296,9.371,9.371,9.371,9.3835,9.4258,9.4335,9.4335,9.4335,9.3557,9.2903,9.2518,9.171,9.121,9.121,9.1595,9.2402,9.3633,9.4104,9.4941,9.6288,9.6288,9.6288,9.6288,9.6288,9.6288,9.6288,9.6288,9.6288,8.5267,8.6852,8.8832,9.2897,9.5123,9.6288,9.6288,9.6288,9.6306,9.6358,9.7432,9.8196,9.7452,9.8842,9.9844,9.9101,9.9726,10.039,10.0508,10.1094,10.1914,10.2812,10.289,10.3203,10.3906,10.3515,10.3086,10.289,10.3008,10.3086,10.3086,10.3008,10.3008,10.3086,10.3008,10.289,10.289,10.289,10.3008,10.3086,10.3008,10.2812,10.2617,10.1015,9.9922,9.9219,9.9062,9.8515,9.7695,9.7695,9.7695,9.7695,9.7695,9.7695,9.7695,9.7655,9.7553,9.7407,9.7343,9.7142,9.6944,9.6944,9.6745,9.6566,9.6566,9.644,9.6288,9.6288,9.6288,9.6288,9.6288,9.6288,9.6288,9.6288,9.6288,9.6338,9.6549,9.6578,9.6549,9.6574,9.6578,9.6267,9.536,9.4634,9.4134,9.4134,9.4134,9.4403,9.5143,9.522,9.522,9.522,9.445,9.3633,9.2979,9.2133,9.1556,9.1441,9.221,9.3018,9.3672,9.4527,9.5412,9.6288,9.6288,9.6288,9.6288,9.6288,9.6288,9.6288,9.6288,9.6288,8.4343,8.7671,9.1288,9.2851,9.4769,9.6288,9.6288,9.6288,9.6367,9.6521,9.6904,9.7178,9.7061,9.8215,9.914,9.9023,9.9726,10.0586,10.1289,10.1484,10.1914,10.2812,10.289,10.289,10.3086,10.3711,10.3711,10.3008,10.3594,10.3984,10.3984,10.3281,10.3203,10.3984,10.3281,10.289,10.289,10.289,10.3281,10.3984,10.3281,10.25,10.1719,10.0781,10.0195,10.0117,9.9336,9.8515,9.7695,9.7695,9.7695,9.7695,9.7695,9.7695,9.7695,9.7501,9.7423,9.7354,9.7126,9.6893,9.6663,9.6663,9.6514,9.634,9.634,9.6334,9.6288,9.6288,9.6288,9.6288,9.6288,9.6288,9.6288,9.6288,9.6288,9.6338,9.6549,9.6466,9.6386,9.6563,9.6458,9.6284,9.6143,9.6019,9.5942,9.5942,9.5942,9.598,9.6095,9.6134,9.6134,9.6134,9.5365,9.4797,9.4681,9.3873,9.3056,9.2364,9.3095,9.3595,9.371,9.4527,9.5412,9.6288,9.6288,9.6288,9.6288,9.6288,9.6288,9.6288,9.6288,9.6288,8.376,8.6796,8.9953,9.2336,9.3886,9.5095,9.6095,9.6378,9.6499,9.6592,9.6911,9.7386,9.7857,9.9336,10.0586,10.1094,10.1914,10.2812,10.3711,10.3789,10.3709,10.3411,10.351,10.3396,10.2707,10.3198,10.3515,10.3594,10.3515,10.3711,10.4219,10.3789,10.3594,10.3515,10.3594,10.3398,10.289,10.289,10.3086,10.3515,10.3086,10.2695,10.2304,10.0898,10.0312,10.0312,9.9375,9.8789,9.8398,9.789,9.7695,9.7695,9.7695,9.7612,9.7507,9.7429,9.7223,9.6915,9.6827,9.6627,9.644,9.644,9.6382,9.6288,9.6288,9.6288,9.6288,9.6288,9.6288,9.6288,9.6288,9.6288,9.6288,9.6288,9.6288,9.6304,9.6398,9.6442,9.6499,9.6599,9.6456,9.6288,9.6288,9.6288,9.6288,9.6288,9.6288,9.6288,9.6288,9.6288,9.6288,9.6288,9.5518,9.4989,9.4989,9.422,9.3557,9.3172,9.395,9.445,9.445,9.5249,9.5903,9.6288,9.6288,9.6288,9.6288,9.6288,9.6288,9.6288,9.6288,9.6288,8.2854,8.5118,8.7454,9.0669,9.2303,9.3441,9.498,9.5841,9.6306,9.6359,9.6927,9.773,9.889,10.0302,10.1601,10.2383,10.3515,10.4492,10.5307,10.5383,10.5098,10.4209,10.4304,10.4086,10.3309,10.3585,10.4101,10.4492,10.3906,10.3906,10.4804,10.4414,10.4101,10.3906,10.4297,10.4101,10.3203,10.3203,10.3086,10.289,10.3086,10.3008,10.25,10.1211,10.0508,10.0312,9.9375,9.8984,9.8945,9.8281,9.789,9.7695,9.7695,9.7563,9.7405,9.733,9.7017,9.6574,9.6558,9.6423,9.6288,9.6288,9.6288,9.6288,9.6288,9.6288,9.6288,9.6288,9.6288,9.6288,9.6288,9.6288,9.6288,9.6288,9.6288,9.6288,9.6288,9.6407,9.6521,9.6521,9.6412,9.6288,9.6288,9.6288,9.6288,9.6288,9.6288,9.6288,9.6288,9.6288,9.6288,9.6288,9.5711,9.5335,9.5335,9.4711,9.4249,9.4027,9.4835,9.522,9.5027,9.5826,9.6288,9.6288,9.6288,9.6288,9.6288,9.6288,9.6288,9.6288,9.6288,9.6288,8.1294,8.2797,8.4458,8.7287,8.9671,9.1556,9.2479,9.4149,9.5532,9.5705,9.6635,9.7989,9.988,10.0312,10.0703,10.1484,10.3086,10.4409,10.5001,10.51,10.5097,10.5012,10.5019,10.5103,10.5311,10.6015,10.6211,10.5508,10.539,10.5703,10.6484,10.5117,10.4883,10.6484,10.5781,10.5,10.4101,10.4101,10.3711,10.289,10.3711,10.3281,10.1719,10.1601,10.1094,10.0312,9.9375,9.8984,9.8984,9.8945,9.8437,9.7695,9.7695,9.7563,9.7356,9.7111,9.6855,9.6578,9.6369,9.6306,9.6288,9.6288,9.6288,9.6288,9.6288,9.6288,9.6288,9.6288,9.6288,9.6288,9.6288,9.6288,9.6288,9.6288,9.6288,9.6288,9.6288,9.6306,9.6325,9.6325,9.6306,9.6288,9.6288,9.6288,9.6288,9.6288,9.6288,9.6288,9.6288,9.6288,9.6288,9.6288,9.6249,9.6249,9.6249,9.6211,9.5826,9.4989,9.5749,9.5865,9.5027,9.5826,9.6288,9.6288,9.6288,9.6288,9.6288,9.6288,9.6288,9.6288,9.6288,9.6288,7.9475,8.0783,8.2656,8.5417,8.7432,8.9162,9.0682,9.2419,9.3949,9.4762,9.5791,9.6977,9.8397,9.9531,10.0896,10.2702,10.3981,10.4999,10.55,10.6594,10.6905,10.5702,10.5809,10.5497,10.4487,10.4798,10.5195,10.5508,10.5508,10.5898,10.6719,10.6093,10.5781,10.5898,10.6211,10.5898,10.5,10.4492,10.3984,10.3711,10.3515,10.2695,10.1601,10.1015,10.0586,10.0312,9.9375,9.8984,9.8945,9.8398,9.7969,9.7695,9.7558,9.7358,9.7107,9.6855,9.6592,9.6403,9.6304,9.6288,9.6288,9.6288,9.6288,9.6288,9.6288,9.6288,9.6313,9.6458,9.6491,9.6491,9.6491,9.6491,9.6466,9.6322,9.6288,9.6288,9.6288,9.6288,9.6288,9.6288,9.6288,9.6288,9.6288,9.6288,9.6288,9.6288,9.6288,9.6288,9.6288,9.6288,9.6288,9.6288,9.6288,9.6288,9.6288,9.6288,9.6172,9.5865,9.6134,9.6172,9.5865,9.6134,9.6288,9.6288,9.6288,9.6288,9.6288,9.6288,9.6288,9.6288,9.6288,9.6288,7.8154,7.9294,8.1073,8.37,8.5285,8.6785,8.8873,9.0463,9.1914,9.3252,9.461,9.5988,9.7365,9.8726,10.0417,10.2605,10.3883,10.4899,10.5683,10.7291,10.7909,10.6497,10.6485,10.6182,10.5302,10.4915,10.5117,10.6289,10.5508,10.5508,10.6601,10.6211,10.5703,10.5508,10.6015,10.6015,10.5508,10.4297,10.3789,10.3711,10.2617,10.1601,10.0703,10.0117,9.9687,9.9375,9.8744,9.8668,9.8945,9.8315,9.7841,9.7563,9.7356,9.7103,9.6855,9.6676,9.6452,9.6288,9.6288,9.6288,9.6288,9.6288,9.6288,9.6288,9.6288,9.6288,9.6313,9.6466,9.6506,9.6506,9.6506,9.6506,9.6474,9.6322,9.6288,9.6288,9.6288,9.6288,9.6288,9.6288,9.6288,9.6288,9.6288,9.6288,9.6288,9.6288,9.6346,9.6412,9.6412,9.6412,9.6412,9.6412,9.634,9.6288,9.6288,9.6288,9.6288,9.6288,9.6288,9.6288,9.6288,9.6288,9.6288,9.6288,9.6288,9.6288,9.6288,9.6288,9.6288,9.6288,9.6288,9.6288,0.0,0.0,0.0,8.2051,8.3266,8.4513,8.6971,8.8236,8.9371,9.1121,9.3037,9.4996,9.6961,9.7791,9.8843,10.0805,10.2619,10.4097,10.5281,10.6998,10.7883,10.7288,10.7202,10.739,10.7889,10.6484,10.6211,10.7812,10.5703,10.5,10.6601,10.5117,10.4609,10.5508,10.5508,10.5508,10.5508,10.3789,10.289,10.289,10.1211,9.9883,9.8984,9.8984,9.8515,9.7695,9.7492,9.7971,9.8944,9.8738,9.8146,9.7351,9.7095,9.6838,9.6588,9.6574,9.6482,9.6288,9.6288,9.6288,9.6288,9.6288,9.6288,9.6288,9.6288,9.6288,9.6288,9.6306,9.6306,9.6306,9.6306,9.6297,9.6288,9.6288,9.6288,9.6288,9.6288,9.6288,9.6288,9.6288,9.6288,9.6288,9.6288,9.6288,9.6288,9.6306,9.646,9.6595,9.6602,9.6609,9.6602,9.6595,9.6423,9.6297,9.6288,9.6288,9.6288,9.6288,9.6288,9.6288,9.6288,9.6288,9.6288,9.6288,9.6288,9.6288,9.6288,9.6288,9.6288,9.6288,9.6288,9.6288,7.7622,0.0,0.0,0.0,0.0,0.0,8.383,8.5046,8.6568,8.8443,9.0233,9.2249,9.4832,9.5902,9.7135,9.9402,10.121,10.281,10.4093,10.6512,10.7897,10.7288,10.7904,10.8107,10.7108,10.6601,10.6601,10.6992,10.6406,10.6211,10.6719,10.5703,10.5312,10.5508,10.5508,10.5508,10.5508,10.4414,10.3515,10.289,10.1797,10.0508,9.8984,9.8984,9.8431,9.749,9.7423,9.7452,9.7535,9.7485,9.7345,9.7087,9.6821,9.6676,9.6599,9.6448,9.6358,9.6288,9.6288,9.6288,9.6288,9.6288,9.6288,9.6288,9.6288,9.6288,9.6322,9.6498,9.6506,9.6506,9.6506,9.6429,9.6288,9.6288,9.6288,9.6288,9.6288,9.6288,9.6288,9.6288,9.6288,9.6288,9.6288,9.6288,9.6367,9.6499,9.6563,9.6682,9.6877,9.6903,9.6821,9.6616,9.6534,9.6458,9.6315,9.6288,9.6288,9.6288,9.6288,9.6288,9.6288,9.6288,9.6288,9.6288,9.6288,9.6288,9.6288,9.6288,9.6288,9.6288,9.6288,9.6288,7.7376,7.8253,7.9255,8.0162,0.0,0.0,8.3417,8.4035,8.4981,8.7167,8.8685,9.0389,9.2854,9.415,9.5578,9.775,9.957,10.1502,10.3683,10.6399,10.8115,10.791,10.851,10.8611,10.789,10.6797,10.6289,10.6719,10.6093,10.5703,10.5703,10.4798,10.4484,10.4883,10.5,10.5,10.5,10.4101,10.3203,10.2304,10.1094,9.9764,9.8343,9.8343,9.7913,9.7233,9.7115,9.6993,9.6832,9.6734,9.6759,9.681,9.658,9.646,9.6466,9.6349,9.6288,9.6288,9.6288,9.6288,9.6288,9.6288,9.6288,9.6288,9.6288,9.6288,9.6304,9.6426,9.646,9.646,9.646,9.6378,9.6288,9.6288,9.6288,9.6288,9.6288,9.6288,9.6288,9.6288,9.6288,9.6288,9.6288,9.6373,9.6474,9.6599,9.6798,9.7007,9.7138,9.7153,9.7107,9.6969,9.6726,9.6542,9.6448,9.6367,9.6288,9.6288,9.6288,9.6288,9.6288,9.6288,9.6288,9.6288,9.6288,9.6288,9.6288,9.6288,9.6288,9.6288,9.6288,9.6288,7.7228,7.8292,7.958,8.0334,8.0966,0.0,8.423,8.4014,8.4024,8.6478,8.7679,8.8889,9.0924,9.2457,9.4044,9.5971,9.7768,10.0081,10.369,10.6282,10.8119,10.8697,10.8891,10.9015,10.9101,10.7109,10.6093,10.6797,10.5312,10.4297,10.4219,10.3094,10.3088,10.4218,10.4101,10.4101,10.4101,10.3203,10.2304,10.1406,9.9765,9.8421,9.7409,9.7356,9.722,9.6954,9.6689,9.6606,9.6542,9.6382,9.642,9.6534,9.6373,9.6288,9.6288,9.6288,9.6288,9.6288,9.6288,9.6288,9.6288,9.6288,9.6288,9.6288,9.6288,9.6288,9.6288,9.6288,9.6288,9.6288,9.6288,9.6288,9.6288,9.6288,9.6288,9.6288,9.6288,9.6288,9.6288,9.6288,9.6288,9.6288,9.6288,9.6474,9.6602,9.6643,9.7082,9.7414,9.7427,9.7429,9.7425,9.7412,9.695,9.6695,9.6656,9.6482,9.6364,9.6364,9.6358,9.6349,9.6364,9.6358,9.6349,9.6364,9.6364,9.6364,9.6364,9.6334,9.6288,9.6288,9.6288,9.6288,7.8983,7.927,7.9734,8.1109,8.1427,0.0,8.1827,8.1732,8.2093,8.3947,8.5016,8.6396,8.8834,9.0586,9.2237,9.3997,9.5849,9.8532,10.269,10.5285,10.6982,10.7782,10.8682,10.8982,10.8281,10.7812,10.7617,10.7695,10.6211,10.4883,10.4219,10.3319,10.3201,10.4219,10.3515,10.3203,10.3203,10.2304,10.1406,10.0508,9.9349,9.8292,9.7405,9.7199,9.6944,9.6689,9.6623,9.6529,9.6346,9.6325,9.6304,9.6338,9.6325,9.6288,9.6288,9.6288,9.6288,9.6288,9.6288,9.6288,9.6288,9.6288,9.6288,9.6288,9.6288,9.6288,9.6288,9.6288,9.6288,9.6288,9.6288,9.6288,9.6288,9.6288,9.6288,9.6288,9.6288,9.6288,9.6288,9.6288,9.6288,9.6288,9.6288,9.6474,9.6689,9.6903,9.7171,9.744,9.7611,9.7653,9.7563,9.742,9.7322,9.7145,9.6954,9.6887,9.6849,9.6849,9.6643,9.6654,9.6844,9.6675,9.6623,9.6849,9.6849,9.6849,9.6849,9.6497,9.6288,9.6288,9.6288,9.6288,7.8476,7.8925,7.9593,8.0349,8.1053,0.0,0.0,8.1849,8.2179,8.3371,8.4286,8.5401,8.7094,8.9133,9.1133,9.2826,9.4721,9.7251,10.0797,10.3497,10.5589,10.7002,10.8003,10.8281,10.7383,10.7383,10.6992,10.6211,10.4795,10.4089,10.4218,10.3193,10.3191,10.4218,10.3398,10.2695,10.2304,10.1797,10.0898,9.9648,9.8982,9.8157,9.721,9.6939,9.6663,9.6442,9.6442,9.6395,9.6288,9.6288,9.6288,9.6288,9.6288,9.6288,9.6288,9.6288,9.6288,9.6288,9.6288,9.6288,9.6288,9.6288,9.6288,9.6288,9.6288,9.6288,9.6288,9.6288,9.6288,9.6288,9.6288,9.6288,9.6288,9.6288,9.6288,9.6288,9.6288,9.6288,9.6288,9.6288,9.6288,9.6322,9.644,9.6654,9.6903,9.7145,9.7381,9.7604,9.7695,9.7695,9.7655,9.7558,9.7442,9.7343,9.7223,9.7078,9.7012,9.7012,9.6887,9.6871,9.7007,9.6882,9.6871,9.7007,9.7012,9.7012,9.7012,9.6759,9.6566,9.6434,9.6358,9.6288,7.8164,7.8932,7.9943,7.9924,8.0976,8.2077,0.0,0.0,0.0,8.33,8.4096,8.4882,8.5494,8.7547,8.9663,9.1248,9.33,9.5558,9.8178,10.0703,10.3208,10.5702,10.6406,10.6601,10.6015,10.5781,10.5312,10.4297,10.2983,10.2897,10.4101,10.3216,10.3094,10.4218,10.3203,10.2304,10.1601,10.1289,10.039,9.8984,9.8572,9.7886,9.7003,9.6682,9.645,9.6288,9.6288,9.6288,9.6288,9.6288,9.6288,9.6326,9.648,9.6519,9.6519,9.6519,9.6519,9.6519,9.6365,9.6288,9.6288,9.6288,9.6288,9.6288,9.6288,9.6288,9.6288,9.6288,9.6288,9.6288,9.6288,9.6288,9.6288,9.6288,9.6288,9.6288,9.6288,9.6288,9.6288,9.6288,9.6322,9.6429,9.6578,9.6832,9.7091,9.7351,9.7561,9.7695,9.7695,9.7695,9.7695,9.7695,9.7557,9.744,9.744,9.7265,9.7142,9.7142,9.7103,9.7099,9.7138,9.7142,9.7142,9.7142,9.7142,9.7142,9.7142,9.7099,9.6954,9.6682,9.6442,9.6346,8.082,8.125,8.1948,8.1739,8.2413,8.2879,8.2007,0.0,8.291,8.2735,0.0,8.3985,8.3903,0.0,0.0,8.7825,9.0255,9.2645,9.4473,9.5874,9.8351,10.281,10.2695,10.2617,10.3281,10.2617,10.2695,10.4101,10.2616,10.2382,10.4101,10.328,10.328,10.4219,10.2617,10.1719,10.1601,10.0117,9.9219,9.8984,9.7778,9.7117,9.6993,9.6522,9.6334,9.6288,9.6288,9.6288,9.6288,9.6288,9.6288,9.6365,9.7096,9.7365,9.7365,9.7365,9.7365,9.725,9.6557,9.6288,9.6288,9.6288,9.6288,9.6288,9.6288,9.6288,9.6288,9.6288,9.6288,9.6288,9.6288,9.6288,9.6288,9.6288,9.6288,9.6288,9.6288,9.6288,9.6288,9.6288,9.6426,9.6578,9.6581,9.6832,9.7091,9.7351,9.7561,9.7695,9.7695,9.7695,9.7695,9.7695,9.7695,9.7655,9.7655,9.7653,9.7612,9.7612,9.7444,9.7435,9.7611,9.7612,9.7612,9.7612,9.7612,9.7612,9.7612,9.7439,9.7227,9.6959,9.6695,9.6563,8.0469,8.125,8.2148,8.1553,8.2447,8.3176,8.2102,8.2148,8.2338,8.2133,0.0,0.0,0.0,0.0,0.0,0.0,8.9954,9.2017,9.3832,9.3637,9.4906,9.9213,9.9816,10.0298,10.1289,10.0117,10.0117,10.1797,10.0781,10.0586,10.1914,10.2109,10.2304,10.2695,10.25,10.1914,10.0898,10.0117,9.9258,9.8242,9.7406,9.7012,9.6993,9.6506,9.6288,9.6288,9.6288,9.6288,9.6288,9.6288,9.6288,9.6365,9.7211,9.7211,9.6788,9.6788,9.6788,9.6749,9.6442,9.6288,9.6288,9.6288,9.6288,9.6288,9.6288,9.6288,9.6288,9.6288,9.6288,9.6288,9.6288,9.6288,9.6288,9.6288,9.6288,9.6288,9.6288,9.6288,9.6331,9.6442,9.6558,9.6682,9.7026,9.7145,9.7291,9.7553,9.7653,9.7695,9.7695,9.7695,9.7695,9.7695,9.7695,9.7695,9.7695,9.7695,9.7695,9.7695,9.7611,9.7609,9.7695,9.7695,9.7695,9.7695,9.7695,9.7695,9.7695,9.761,9.7509,9.7392,9.7,9.6838,8.0664,8.1523,8.2461,8.1562,8.25,8.3319,8.2314,8.2654,8.2942,8.2266,8.3201,0.0,0.0,0.0,8.7659,8.8554,0.0,9.133,9.2765,9.1866,9.2455,9.6158,9.7436,9.8383,9.9405,9.8007,9.7812,9.9804,9.8945,9.8906,10.0195,10.0898,10.1211,10.1211,10.1601,10.1289,10.0312,9.9844,9.9062,9.8047,9.7328,9.7012,9.6993,9.6506,9.6288,9.6288,9.6288,9.6288,9.6288,9.6288,9.6288,9.6365,9.6942,9.6942,9.6634,9.6634,9.6634,9.6596,9.6365,9.6288,9.6288,9.6288,9.6288,9.6288,9.6288,9.6288,9.6288,9.6288,9.6288,9.6288,9.6288,9.6288,9.6288,9.6288,9.6288,9.6288,9.6288,9.6349,9.6423,9.6578,9.6708,9.692,9.7338,9.7409,9.7485,9.7655,9.7695,9.7695,9.7695,9.7695,9.7695,9.7695,9.7695,9.7695,9.7695,9.7695,9.7695,9.7695,9.7695,9.7695,9.7695,9.7695,9.7695,9.7695,9.7695,9.7695,9.7695,9.7695,9.7695,9.7695,9.7291,9.7107,8.2461,8.2851,8.3359,8.2461,8.2929,8.3359,8.25,8.4258,8.5543,8.365,8.5231,8.6599,8.5358,8.5899,8.7022,8.8477,8.9402,0.0,0.0,8.9996,9.1106,9.4226,9.554,9.6518,9.7416,9.6158,9.6328,9.8867,9.75,9.7656,10.0195,10.0312,10.0312,10.0312,9.9531,9.9492,10.0312,9.8633,9.8164,9.8945,9.7643,9.7012,9.6993,9.6506,9.6288,9.6288,9.6288,9.6288,9.6288,9.6288,9.6288,9.6288,9.6326,9.6788,9.7442,9.7442,9.7442,9.7365,9.6557,9.6288,9.6288,9.6288,9.6288,9.6288,9.6288,9.6288,9.6288,9.6288,9.6288,9.6288,9.6288,9.6288,9.6288,9.6288,9.6288,9.6288,9.6288,9.645,9.6574,9.6588,9.7035,9.7361,9.7407,9.7409,9.7485,9.7655,9.7695,9.7695,9.7695,9.7695,9.7695,9.7695,9.7695,9.7695,9.7695,9.7695,9.7695,9.7695,9.7695,9.7695,9.7695,9.7695,9.7695,9.7695,9.7695,9.7695,9.7695,9.7695,9.7695,9.7695,9.7493,9.7402,8.4101,8.5078,8.582,8.4375,8.4687,8.4804,8.2773,8.3867,8.4999,8.3743,8.5108,8.6143,8.5013,8.6406,8.7807,8.8016,8.9697,9.0728,0.0,8.9893,9.055,9.23,9.265,9.3277,9.468,9.401,9.4336,9.6328,9.5429,9.5664,9.7695,9.8281,9.8828,9.9414,10.0312,10.0312,9.9453,9.9414,9.8984,9.8125,9.7367,9.7012,9.6993,9.6506,9.6288,9.6326,9.6865,9.6788,9.6403,9.748,9.7288,9.6365,9.6903,9.6942,9.6711,9.6711,9.7403,9.825,9.7403,9.6749,9.6288,9.6288,9.6288,9.6288,9.6288,9.6288,9.6288,9.6288,9.6288,9.6288,9.6288,9.6288,9.6288,9.6288,9.6288,9.6288,9.6288,9.6458,9.6663,9.6838,9.7142,9.7433,9.7562,9.7606,9.7611,9.7695,9.7604,9.75,9.75,9.75,9.75,9.75,9.7611,9.7695,9.7695,9.7695,9.7695,9.7695,9.7695,9.7695,9.7695,9.7695,9.7695,9.7695,9.7695,9.7695,9.7695,9.7695,9.7695,9.7695,9.7612,9.7606,8.582,8.664,8.7304,8.6445,8.6445,8.6211,8.4531,8.5234,8.6094,8.5547,8.6328,8.7145,8.7282,8.8156,8.8821,8.8738,9.0369,9.119,0.0,8.9455,8.9622,9.0611,9.1338,9.2248,9.3385,9.2954,9.3203,9.4648,9.3945,9.4219,9.5937,9.6836,9.7539,9.8086,9.9492,9.9804,9.9023,9.9258,9.8984,9.8164,9.7463,9.7091,9.6998,9.658,9.6373,9.6326,9.6865,9.6788,9.6365,9.748,9.7288,9.6365,9.6865,9.6942,9.6711,9.6403,9.698,9.7827,9.7288,9.6749,9.6288,9.6288,9.6288,9.6288,9.6288,9.6288,9.6288,9.6288,9.6288,9.6288,9.6288,9.6288,9.6288,9.6288,9.6338,9.642,9.642,9.6668,9.6954,9.7107,9.7348,9.7555,9.7695,9.7695,9.7695,9.7695,9.7605,9.7501,9.7501,9.7435,9.7425,9.7498,9.7558,9.7611,9.7695,9.7695,9.7695,9.7695,9.7695,9.7695,9.7695,9.7695,9.7695,9.7695,9.7695,9.7695,9.7695,9.7695,9.7695,9.7695,9.7695,9.7695]}]]